     2              OBSERVATION DATA    GPS                 RINEX VERSION / TYPE
TRRINEXO-V2.3.1-LH UCLA/SCEC 31-MAR-1994                    PGM / RUN BY / DATE
                                                            COMMENT
Original Marker Name: CALABASAS 1933 RE 62                  COMMENT
Campaign Name: Northridge 1994                              COMMENT
4-Character Station Name: CALA                              COMMENT
6-Character Antenna Code: TRMSST                            COMMENT
Vertical Measurement Point: TGP                             COMMENT
Vertical Offset to Rinex Ref. Point: 0.0629                 COMMENT
Radial Measurement Point: NGP                               COMMENT
Radial Offset to Rinex Ref. Point: 0.2334                   COMMENT
Antenna Height from Field Measurement: 1.6430 m             COMMENT
Original XYZ: -2533529.5167 -4637997.3412 3559547.1926      COMMENT
New XYZ position is based on association with SCEC monument COMMENT
E1C7Y9N6+0011. Position of that monument is believed to be  COMMENT
valid to within 1 m horizontally; vertical accuracy         COMMENT
should be no worse than 3-times this value.                 COMMENT
                                                            COMMENT
Revised Rinex header created by UCSD GPS archive for        COMMENT
GSAC on 10-Apr-1999 (1999:100) 00:52:36 GMT                 COMMENT
For assistance contact dagnew@ucsd.edu or hjohnson@ucsd.edu COMMENT
                                                            COMMENT
CALABASAS 1933 RE 62                                        MARKER NAME
Z. SHEN UCLA                                                OBSERVER / AGENCY
497 TRIMBLE 4000 SST 4.81                                   REC # / TYPE / VERS
129 TR 4000SST L1/L2 GEO                                    ANT # / TYPE
 -2533555.0000 -4638069.0000  3559574.0000                  APPROX POSITION XYZ
        1.5634        0.0000        0.0000                  ANTENNA: DELTA H/E/N
     1     1     0                                          WAVELENGTH FACT L1/2
     3    C1    L1    L2    P2                              # / TYPES OF OBSERV
    30                                                      INTERVAL
  1994     1    30     0     1   30.000000                  TIME OF FIRST OBS
  1994     1    30    23    59   30.000000                  TIME OF LAST OBS
     0                                                      # OF SATELLITES
                                                            END OF HEADER
 94  1 30  0  1 30.0000000  0  7 19 27  2 18 16  7 31
  21017315.414          -0.97217
  20744052.188          -0.05917
  22039693.602          -0.13916
  22305575.516          -0.17316
  24080450.102          -0.63115
  24540067.086          -0.22614
  22555616.383          -0.99316
 94  1 30  0  2  0.0000000  0  7 19 27  2 18 16  7 31
  21016771.313       -2854.339 7        -0.11839
  20734292.641      -51293.727 7        -0.14539
  22026049.203      -71693.783 6
  22319125.664       71197.971 6        -0.45637
  24077639.805      -14755.162 5
  24515540.680     -128888.314 4
  22561104.453       28843.126 6
 94  1 30  0  2 30.0000000  0  7 19 27  2 18 16  7 31
  21016274.156       -5487.144 7     -2051.65129
  20724577.406     -102350.370 7    -39784.51429
  22012455.242     -143124.105 6        -0.47037
  22332730.641      142701.847 6     55716.81026
  24074935.242      -28983.581 5        -0.28234
  24491019.117     -257748.504 4        -0.38134
  22566694.414       58215.658 6        -0.02136
 94  1 30  0  3  0.0000000  0  7 19 27  2 18 16  7 31
  21015811.164       -7908.620 7     -3938.50529
  20714900.133     -153193.286 7    -79402.33829
  21998910.656     -214305.376 6    -55466.35827
  22346390.047      214497.552 6    111661.47426
  24072322.008      -42702.827 5    -10690.59724
  24466499.820     -386606.274 4   -100408.86124
  22572384.461       88123.023 6     23304.44626
 94  1 30  0  3 30.0000000  0  7 19 27  2 18 16  7 31
  21015387.820      -10121.940 7     -5663.16728
  20705266.688     -203812.283 7   -118845.69429
  21985415.508     -285224.581 6   -110728.03927
  22360110.219      286585.949 6    167834.21026
  24069806.344      -55917.538 5    -20987.75624
  24441979.102     -515460.310 4   -200814.45524
  22578177.703      118567.762 6     47027.64126
 94  1 30  0  4  0.0000000  0  7 19 27  2 18 16  7 31
  21015006.734      -12131.998 7     -7229.45229
  20695685.273     -254171.998 7   -158087.02629
  21971972.695     -355872.724 6   -165778.51128
  22373886.625      358977.667 6    224243.28926
  24067387.375      -68636.054 5    -30898.29724
  24417466.273     -644296.367 4   -301206.04225
  22584080.719      149559.369 6     71176.95726
 94  1 30  0  4 30.0000000  0  7 19 27  2 18 16  7 31
  21014666.875      -13930.205 7     -8630.64329
  20686151.227     -304278.800 7   -197131.27029
  21958577.898     -426249.873 6   -220617.80927
  22387721.203      431672.217 6    280888.36026
  24065060.656      -80872.146 5    -40432.88623
  24392952.281     -773116.248 4   -401585.03924
  22590077.445      181097.948 6     95752.49426
 94  1 30  0  5  0.0000000  0  7 19 27  2 18 16  7 31
  21014362.727      -15511.681 7     -9862.95329
  20676664.492     -354126.339 7   -235973.48529
  21945237.852     -496348.380 6   -275239.98428
  22401611.734      504665.709 6    337766.36726
  24062820.984      -92630.695 5    -49595.38822
  24368441.492     -901915.201 3   -501947.71225
  22596178.281      213171.969 6    120745.25826
 94  1 30  0  5 30.0000000  0  7 19 27  2 18 16  7 31
  21014102.898      -16878.688 7    -10928.14728
  20667230.102     -403713.424 7   -274612.75929
  21931953.828     -566156.639 6   -329635.99327
  22415555.492      577952.821 6    394873.17326
  24060675.289     -103919.786 5    -58392.05023
  24343935.453    -1030688.694 4   -602290.56025
  22602382.469      245772.313 6    146148.13326
 94  1 30  0  6  0.0000000  0  7 19 27  2 18 16  7 31
  21013887.797      -18010.009 7    -11809.68028
  20657840.156     -453052.738 7   -313058.94329
  21918726.805     -635665.038 6   -383798.33327
  22429555.281      651527.866 6    452204.35226
  24058614.984     -114731.924 5    -66817.07422
  24319433.898    -1159424.285 3   -702603.88125
  22608688.961      278900.996 6    171962.70826
 94  1 30  0  6 30.0000000  0  7 19 27  2 18 16  7 31
  21013720.211      -18902.299 7    -12504.97728
  20648490.461     -502180.173 7   -351340.05429
  21905556.008     -704879.344 6   -437731.53928
  22443610.539      725380.004 6    509751.41926
  24056647.461     -125069.902 5    -74872.65322
  24294938.836    -1288139.466 3   -802901.31725
  22615087.906      312532.065 6    198168.72826
 94  1 30  0  7  0.0000000  0  7 19 27  2 18 16  7 31
  21013596.891      -19545.367 7    -13006.05929
  20639184.148     -551090.171 7   -389451.72329
  21892442.242     -773798.250 6   -491434.53728
  22457715.734      799507.051 6    567512.72426
  24054775.117     -134923.267 5    -82550.57623
  24270457.195    -1416836.467 4   -903184.57925
  22621585.445      346661.791 6    224763.32826
 94  1 30  0  7 30.0000000  0  7 19 27  2 18 16  7 31
  21013522.234      -19926.547 7
  20629918.891     -599779.263 7   -427391.25829
  21879382.992     -842425.645 6   -544910.40327
  22471873.906      873897.932 6    625479.61026
  24052989.859     -144280.082 5    -89841.60423
  24245962.063    -1545514.712 3  -1003453.22025
  22628173.875      381295.081 6    251750.30926
 94  1 30  0  8  0.0000000  0  7 19 27  2 18 16  7 31
  21013504.305      -20034.054 7
  20620697.000     -648247.250 7   -465158.49729
  21866373.359     -910782.861 6   -598175.73627
  22486079.273      948554.046 6    683653.16826
  24051308.352     -153137.739 5    -96743.68524
  24221484.336    -1674165.864 3  -1103700.75924
  22634855.352      416415.697 6    279117.02726
 94  1 30  0  8 30.0000000  0  7 19 27  2 18 16  7 31
  21013535.086      -19865.411 7
  20611519.734     -696469.922 7   -502734.58029
  21853415.375     -978875.222 6   -651234.69328
  22500338.016     1023489.987 6    742044.77926
  24049718.172     -161496.180 5   -103256.73224
  24197004.391    -1802776.174 4  -1203916.47724
  22641634.164      452029.921 6    306868.37326
 94  1 30  0  9  0.0000000  0  7 19 27  2 18 16  7 31
  21013619.070      -19419.231 7    -12907.73329
  20602390.992     -744437.721 7   -540112.06829
  21840507.289    -1046709.846 7   -704092.80828
  22514651.414     1098691.468 6    800643.30226
  24048222.953     -169368.612 5   -109391.08125
  24172540.844    -1931332.923 3  -1304090.44925
  22648505.906      488141.797 6    335007.49026
 94  1 30  0  9 30.0000000  0  7 19 27  2 18 16  7 31
  21013757.930      -18694.822 7    -12343.25229
  20593312.102     -792146.598 7   -577287.80029
  21827650.656    -1114274.920 7   -756740.88428
  22529009.438     1174152.684 6    859444.21026
  24046813.188     -176757.390 5   -115148.57425
  24148089.570    -2059819.893 4  -1404210.05625
  22655473.297      524747.009 6    363531.04026
 94  1 30  0 10  0.0000000  0  7 19 27  2 18 16  7 31
  21013944.359      -17715.338 7    -11580.00829
  20584280.477     -839602.364 7   -614266.30129
  21814844.070    -1181579.904 6   -809186.29828
  22543415.875     1249871.303 6    918445.69326
  24045496.070     -183681.587 5   -120544.05125
  24123645.273    -2188235.106 3  -1504273.73824
  22662531.102      561842.123 6    392436.32026
 94  1 30  0 10 30.0000000  0  7 19 27  2 18 16  7 31
  21014173.523      -16498.004 7    -10631.43929
  20575300.508     -886794.015 7   -651038.99729
  21802090.063    -1248606.088 6   -861414.46128
  22557875.336     1325846.771 6    977647.31426
  24044266.602     -190139.954 5   -125576.52625
  24099238.727    -2316579.028 5  -1604281.89525
  22669689.695      599446.682 6    421738.57326
 94  1 30  0 11  0.0000000  0  7 19 27  2 18 16  7 31
  21014450.273      -15065.708 7     -9515.35529
  20566369.172     -933730.697 7   -687613.01229
  21789387.633    -1315359.008 6   -913429.69228
  22572378.859     1402064.516 6   1037037.72826
  24043121.992     -196139.559 5   -130251.52423
  24074827.836    -2444866.133 5  -1704245.78725
  22676940.789      637566.014 6    451441.95626
 94  1 30  0 11 30.0000000  0  7 19 27  2 18 16  7 31
  21014755.828      -13442.765 7     -8250.71329
  20557485.414     -980417.892 7   -723992.62729
  21776733.656    -1381849.654 7   -965240.54828
  22586931.383     1478528.805 6   1096620.25426
  24042072.070     -201680.453 5   -134569.08424
  24050418.547    -2573115.579 5  -1804180.33124
  22684290.203      676194.793 6    481542.29826
 94  1 30  0 12  0.0000000  0  7 19 27  2 18 16  7 31
  21015100.906      -11639.289 7     -6845.40729
  20548648.633    -1026863.733 7   -760184.17629
  21764127.336    -1448092.224 7  -1016858.10328
  22601529.297     1555259.630 6   1156410.47026
  24041106.336     -206757.303 5   -138525.06722
  24026019.000    -2701338.651 5  -1904094.34825
  22691741.344      715338.162 6    512043.62626
 94  1 30  0 12 30.0000000  0  7 19 27  2 18 16  7 31
  21015482.586       -9637.126 7     -5285.27629
  20539855.703    -1073067.700 7   -796187.24929
  21751570.570    -1514069.673 7  -1068269.06728
  22616187.719     1632267.264 6   1216416.38426
  24040232.094     -211352.819 5   -142105.97322
  24001626.477    -2829530.867 5  -2003984.30925
  22699285.922      754990.252 6    542941.35226
 94  1 30  0 13  0.0000000  0  7 19 27  2 18 16  7 31
  21015909.242       -7396.842 7     -3539.59529
  20531108.969    -1119022.939 7   -831996.50729
  21739069.914    -1579770.841 7  -1119464.74928
  22630894.727     1709565.322 6   1276648.60126
  24039451.148     -215451.773 5   -145299.95624
  23977242.305    -2957666.430 5  -2103830.13725
  22706929.437      795150.548 6    574235.08726
 94  1 30  0 13 30.0000000  0  7 19 27  2 18 16  7 31
  21016380.422       -4908.845 7     -1600.89229
  20522406.547    -1164749.444 7   -867627.53329
  21726620.820    -1645201.825 7  -1170449.89828
  22645658.625     1787136.621 6   1337093.72526
  24038762.305     -219074.617 5   -148122.93623
  23952872.484    -3085751.918 5  -2203636.93825
  22714661.656      835784.196 6    605897.66926
 94  1 30  0 14  0.0000000  0  7 19 27  2 18 16  7 31
  21016907.508       -2155.784 7       544.35429
  20513751.820    -1210232.824 7   -903069.11929
  21714223.750    -1710345.642 7  -1221211.28028
  22660468.070     1864966.028 6   1397739.97126
  24038161.422     -222225.680 5   -150578.31023
  23928509.063    -3213768.246 5  -2303389.85225
  22722483.211      876888.093 6    637926.67926
 94  1 30  0 14 30.0000000  0  7 19 27  2 18 16  7 31
  21017484.070         878.772 7      2908.95029
  20505148.180    -1255452.323 7   -938305.08529
  21701881.539    -1775191.162 7  -1271740.21728
  22675324.992     1943040.030 6   1458576.81526
  24037650.320     -224911.279 5   -152670.98824
  23904163.477    -3341696.542 5  -2403074.17025
  22730394.555      918467.548 6    670326.25626
 94  1 30  0 15  0.0000000  0  7 19 27  2 18 16  7 31
  21018114.992        4196.026 7      5493.83029
  20496595.945    -1300394.276 7   -973324.77329
  21689598.820    -1839739.822 7  -1322037.84828
  22690224.211     2021344.414 6   1519593.17126
  24037227.133     -227143.133 4   -154410.10824
  23879839.477    -3469533.372 5  -2502687.21725
  22738399.430      960533.193 6    703104.68126
 94  1 30  0 15 30.0000000  0  7 19 27  2 18 16  7 31
  21018796.516        7783.223 7      8289.04229
  20488098.469    -1345044.728 7  -1008117.32529
  21677375.031    -1903989.009 7  -1372102.11628
  22705170.625     2099878.623 6   1580788.60726
  24036885.625     -228910.864 5   -155787.53823
  23855530.141    -3597274.486 5  -2602225.67725
  22746499.328     1003098.608 6    736272.53226
 94  1 30  0 16  0.0000000  0  7 19 27  2 18 16  7 31
  21019525.875       11616.969 7     11276.38029
  20479655.031    -1389421.088 7  -1042696.29029
  21665198.820    -1967964.754 7  -1421953.30928
  22720153.953     2178627.652 6   1642151.44826
  24036637.984     -230224.253 5   -156810.96223
  23831234.680    -3724935.709 5  -2701701.89125
  22754688.938     1046144.710 6    769814.95226
 94  1 30  0 16 30.0000000  0  7 19 27  2 18 16  7 31
  21020304.055       15698.810 7     14457.03629
  20471260.227    -1433542.883 7  -1077076.90229
  21653072.078    -2031681.445 7  -1471602.65028
  22735179.047     2257599.699 6   1703688.05526
  24036478.281     -231080.611 5   -157478.25623
  23806961.875    -3852511.805 5  -2801111.76625
  22762969.109     1089659.973 6    803722.94226
 94  1 30  0 17  0.0000000  0  7 19 27  2 18 16  7 31
  21021127.852       20040.052 7     17839.82929
  20462911.109    -1477404.389 7  -1111254.68229
  21641002.633    -2095121.671 7  -1521036.55728
  22750255.750     2336806.634 6   1765407.69926
  24036405.547     -231467.804 5
  23782699.367    -3979990.072 5  -2900445.41325
  22771344.734     1133653.396 6    838003.53326
 94  1 30  0 17 30.0000000  0  7 19 27  2 18 16  7 31
  21022003.102       24636.384 7     21421.39229
  20454611.953    -1521012.468 7  -1145234.99029
  21628982.281    -2158290.871 7  -1570259.28328
  22765373.211     2416254.613 6   1827315.16926
  24036417.687     -231387.810 5
  23758456.156    -4107370.755 5  -2999703.01225
  22779805.008     1178106.967 6    872642.68126
 94  1 30  0 18  0.0000000  0  7 19 27  2 18 16  7 31
  21022926.664       29497.296 7     25209.11929
  20446364.523    -1564363.998 7  -1179015.38129
  21617009.492    -2221188.319 7  -1619270.24728
  22780539.570     2495944.144 6   1889410.86426
  24036517.383     -230861.766 5   -157307.68823
  23734237.094    -4234644.508 5  -3098877.28425
  22788348.313     1223007.502 6    907630.11226
 94  1 30  0 18 30.0000000  0  7 19 27  2 18 16  7 31
  21023903.273       34620.694 7     29201.37829
  20438163.281    -1607453.796 7  -1212591.83029
  21605095.055    -2283810.104 7  -1668066.40228
  22795749.820     2575877.221 6   1951696.33126
  24036701.172     -229894.508 5   -156553.98821
  23710040.320    -4361807.350 5  -3197965.12924
  22796978.094     1268368.671 6    942976.48026
 94  1 30  0 19  0.0000000  0  7 19 27  2 18 16  7 31
  21024924.859       39990.043 7     33385.28029
  20430013.008    -1650275.190 7  -1245959.14229
  21593231.711    -2346159.318 7  -1716650.18328
  22811003.875     2656042.276 6   2014162.56026
  24036966.219     -228503.285 5   -155469.93022
  23685860.703    -4488876.444 5  -3296979.94825
  22805699.250     1314194.654 6    978685.03226
 94  1 30  0 19 30.0000000  0  7 19 27  2 18 16  7 31
  21025995.266       45602.871 7     37758.91329
  20421920.195    -1692822.258 7  -1279112.68729
  21581414.000    -2408253.381 7  -1765035.12228
  22826302.727     2736438.536 6   2076808.95426
  24037309.773     -226684.019 5   -154052.30522
  23661705.508    -4615836.111 5  -3395909.48725
  22814506.242     1360484.213 6   1014754.82426
 94  1 30  0 20  0.0000000  0  7 19 27  2 18 16  7 31
  21027106.656       51453.761 7     42318.05129
  20413872.984    -1735108.800 7  -1312063.21929
  21569641.453    -2470109.396 7  -1813234.58328
  22841651.516     2817068.949 6   2139637.78726
  24037743.703     -224434.351 5   -152299.29824
  23637560.000    -4742686.808 5  -3494754.09725
  22823402.977     1407248.519 6   1051194.53526
 94  1 30  0 20 30.0000000  0  7 19 27  2 18 16  7 31
  21028263.836       57535.062 7     47056.72229
  20405870.289    -1777147.613 7  -1344820.72529
  21557917.609    -2531737.542 7  -1861256.48928
  22857028.391     2897917.599 6   2202636.68626
  24038250.234     -221743.431 5   -150202.47122
  23613439.219    -4869449.645 5  -3593530.25825
  22832395.898     1454488.650 6   1088005.02926
 94  1 30  0 21  0.0000000  0  7 19 27  2 18 16  7 31
  21029467.438       63859.403 7     51984.78229
  20397924.531    -1818914.178 7  -1377366.07929
  21546236.227    -2593125.456 7  -1909091.18528
  22872457.023     2978979.600 6   2265801.83426
  24038855.680     -218600.421 5   -147753.37124
  23589337.039    -4996108.218 5  -3692225.18725
  22841476.867     1502206.326 6   1125187.62126
 94  1 30  0 21 30.0000000  0  7 19 27  2 18 16  7 31
  21030717.094       70428.535 7     57103.58829
  20390027.594    -1860418.216 7  -1409706.86329
  21534596.734    -2654273.446 7  -1956738.93828
  22887920.672     3060247.681 6   2329127.56026
  24039537.344     -214996.482 5   -144945.11723
  23565251.422    -5122658.862 5  -3790836.00725
  22850645.742     1550385.709 6   1162729.99926
 94  1 30  0 22  0.0000000  0  7 19 27  2 18 16  7 31
  21032015.453       77256.477 7     62424.06629
  20382180.148    -1901650.893 7  -1441836.21229
  21523013.922    -2715146.929 7  -2004172.78728
  22903428.656     3141728.466 6   2392619.02726
  24040314.922     -210916.656 5   -141766.02923
  23541199.508    -5249110.065 5  -3889369.33825
  22859902.664     1599028.445 6   1200633.41926
 94  1 30  0 22 30.0000000  0  7 19 27  2 18 16  7 31
  21033367.602       84351.033 7     67952.29329
  20374389.695    -1942585.834 7  -1473733.55429
  21511489.719    -2775719.976 7  -2051372.53028
  22918971.852     3223412.026 6   2456268.51126
  24041177.867     -206362.105 5   -138217.04222
  23517152.969    -5375449.241 5  -3987815.37625
  22869242.461     1648119.845 6   1238886.44326
 94  1 30  0 23  0.0000000  0  7 19 27  2 18 16  7 31
  21034762.203       91690.111 7     73671.05428
  20366652.820    -1983245.442 7  -1505416.34929
  21500016.875    -2836006.628 7  -2098349.11128
  22934553.172     3305286.062 6   2520066.40326
  24042132.820     -201357.995 5   -134317.75123
  23493130.555    -5501674.849 5  -4086172.91625
  22878664.250     1697635.426 6   1277470.00426
 94  1 30  0 23 30.0000000  0  7 19 27  2 18 16  7 31
  21036207.680       99284.528 7     79588.77929
  20358969.836    -2023630.786 7  -1536885.43129
  21488597.313    -2896005.290 7  -2145101.28528
  22950172.992     3387372.258 6   2584029.61226
  24043170.852     -195901.569 5   -130066.00124
  23469129.297    -5627785.734 5  -4184441.05625
  22888168.500     1747576.836 6   1316385.38626
 94  1 30  0 24  0.0000000  0  7 19 27  2 18 16  7 31
  21037704.977      107148.780 7     85716.77528
  20351338.648    -2063722.909 7  -1568126.02529
  21477236.883    -2955711.355 7  -2191625.45528
  22965832.117     3469673.715 6   2648160.57326
  24044293.805     -190010.245 5   -125475.36223
  23445157.688    -5753778.250 5  -4282616.97426
  22897754.930     1797949.156 6   1355636.53226
 94  1 30  0 24 30.0000000  0  7 19 27  2 18 16  7 31
  21039249.969      115269.699 7     92044.76828
  20343761.922    -2103531.312 7  -1599145.53729
  21465927.922    -3015146.789 7  -2237938.74628
  22981534.281     3552176.979 6   2712448.77626
  24045488.055     -183723.372 5   -120576.50623
  23421202.289    -5879650.751 5  -4380699.36625
  22907419.188     1848739.027 6   1395213.03726
 94  1 30  0 25  0.0000000  0  7 19 27  2 18 16  7 31
  21040846.281      123651.914 7     98576.36929
  20336241.156    -2143058.985 7  -1629946.29829
  21454666.633    -3074319.352 7  -2284047.19928
  22997272.781     3634872.036 6   2776886.43226
  24046758.766     -177048.867 5   -115375.60122
  23397271.961    -6005409.112 5  -4478692.81225
  22917164.352     1899952.881 6   1435119.92226
 94  1 30  0 25 30.0000000  0  7 19 27  2 18 16  7 31
  21042491.242      132294.421 7    105310.79828
  20328778.375    -2182290.220 7  -1660516.07329
  21443454.828    -3133229.190 7  -2329950.93728
  23013035.695     3717745.550 6   2841463.14825
  24048101.008     -169991.336 5   -109876.23523
  23373360.875    -6131062.335 5  -4576604.34226
  22926991.148     1951587.925 6   1475355.00026
 94  1 30  0 26  0.0000000  0  7 19 27  2 18 16  7 31
  21044182.766      141191.293 7    112243.43028
  20321368.625    -2221222.947 7  -1690853.24829
  21432295.117    -3191871.788 7  -2375646.43328
  23028840.047     3800790.801 6   2906173.68025
  24049521.219     -162537.205 5   -104067.82824
  23349473.875    -6256592.092 5  -4674419.65526
  22936895.000     2003644.677 6   1515918.68826
 94  1 30  0 26 30.0000000  0  7 19 27  2 18 16  7 31
  21045923.125      150332.484 7    119366.44028
  20314013.727    -2259862.234 7  -1720961.77029
  21421187.813    -3250254.743 7  -2421139.60628
  23044676.500     3884004.839 6   2971015.73525
  24051017.672     -154660.016 5    -97929.80424
  23325612.578    -6381978.749 5  -4772123.46125
  22946883.094     2056127.205 6   1556814.14426
 94  1 30  0 27  0.0000000  0  7 19 27  2 18 16  7 31
  21047708.141      159716.572 7    126678.72128
  20306715.742    -2298213.087 7  -1750845.53729
  21410126.813    -3308389.595 7  -2466439.45528
  23060544.945     3967388.464 6   3035989.94325
  24052598.742     -146336.046 5    -91443.58022
  23301780.844    -6507216.586 5  -4869711.28625
  22956954.492     2109050.239 6   1598052.85326
 94  1 30  0 27 30.0000000  0  7 19 27  2 18 16  7 31
  21049538.328      169336.395 7    134174.68829
  20299469.984    -2336283.247 7  -1780510.57529
  21399108.484    -3366286.115 7  -2511553.59428
  23076447.477     4050947.104 6   3101100.52125
  24054273.523     -137566.974 5    -84610.54323
  23277987.703    -6632298.197 5  -4967177.39425
  22967110.461     2162407.693 6   1639630.07426
 94  1 30  0 28  0.0000000  0  7 19 27  2 18 16  7 31
  21051419.477      179211.950 7    141869.93129
  20292284.523    -2374060.911 7  -1809947.69929
  21388136.063    -3423941.479 7  -2556479.81729
  23092378.305     4134690.138 6   3166354.78225
  24056021.070     -128359.060 5    -77435.55523
  23254209.867    -6757205.941 5  -5064508.01226
  22977344.227     2216199.349 6   1681545.64026
 94  1 30  0 28 59.9990000  0  7 19 27  2 18 16  7 31
  21055331.339      199776.448 7    157894.21329
  20278076.800    -2448713.515 7  -1868118.53629
  21366334.448    -3538498.307 7  -2645744.80728
  23124356.409     4302716.443 6   3297284.25825
  24059768.550     -108694.036 5    -62112.15024
  23206767.878    -7006521.251 5  -5258779.50925
  22998069.276     2325099.526 6   1766402.88726
 94  1 30  0 29 29.9990000  0  7 19 27  2 18 16  7 31
  21057366.761      210474.643 7    166230.47229
  20271063.003    -2485568.753 7  -1896836.89629
  21355510.839    -3595377.147 7  -2690065.95028
  23140395.573     4387003.790 6   3362962.65325
  24061755.065      -98265.169 5    -53985.78323
  23183088.503    -7130954.380 5  -5355740.29826
  23008547.550     2380184.813 6   1809326.47526
 94  1 30  0 29 59.9990000  0  7 19 27  2 18 16  7 31
  21059455.151      221448.157 7
  20264109.331    -2522115.743 7  -1925315.06029
  21344742.526    -3651978.349 7  -2734170.75028
  23156470.386     4471468.722 6   3428779.42925
  24063809.261      -87445.278 5
  23159439.401    -7255251.934 5  -5452595.45426
  23019108.964     2435677.886 6   1852567.82126
 94  1 30  0 30 29.9990000  0  7 19 27  2 18 16  7 31
  21061592.698      232681.472 7
  20257208.378    -2558379.353 7  -1953572.41129
  21334023.058    -3708300.860 7  -2778058.38629
  23172578.784     4556114.844 6   3494737.39625
  24065943.378      -76217.724 5
  23135805.784    -7379415.108 5  -5549345.88325
  23029744.776     2491573.556 6   1896122.87826
 94  1 30  0 30 59.9990000  0  7 19 27  2 18 16  7 31
  21063778.651      244172.703 7    192488.70829
  20250361.745    -2594358.145 7  -1981607.82029
  21323360.386    -3764336.199 7  -2821722.25829
  23188718.378     4640944.980 6   3560838.76025
  24068159.948      -64579.607 5
  23112206.534    -7503437.216 5  -5645986.40926
  23040460.081     2547866.989 6   1939987.88426
 94  1 30  0 31 29.9990000  0  7 19 27  2 18 16  7 31
  21066013.058      255903.286 7    201629.41828
  20243564.034    -2630079.699 7  -2009442.79129
  21312749.831    -3820093.421 7  -2865169.41129
  23204894.526     4725936.660 6   3627065.98425
  24070450.581      -52562.009 5    -37302.46923
  23088630.855    -7627331.849 5  -5742527.60026
  23051244.714     2604545.320 6   1984152.81126
 94  1 30  0 31 59.9990000  0  7 19 27  2 18 16  7 31
  21068294.706      267892.940 7    210972.00028
  20236815.612    -2665541.502 7  -2037075.35929
  21302190.698    -3875576.034 7  -2908402.59029
  23221098.073     4811082.863 6   3693413.61425
  24072808.628      -40156.119 5    -27635.55123
  23065084.269    -7751081.043 6  -5838955.45626
  23062102.901     2661613.773 6   2028621.73626
 94  1 30  0 32 29.9990000  0  7 19 27  2 18 16  7 31
  21070626.956      280152.111 7    220524.60028
  20230121.479    -2700714.552 7  -2064482.92329
  21291688.386    -3930774.738 7  -2951414.53829
  23237327.370     4896386.004 5   3759883.54425
  24075242.128      -27353.644 4    -17659.60923
  23041565.479    -7874659.396 6  -5935250.19126
  23073041.331     2719087.999 6   2073406.83425
 94  1 30  0 32 59.9990000  0  7 19 27  2 18 16  7 31
  21073012.261      292691.572 7    230295.60428
  20223488.628    -2735579.799 7  -2091650.64029
  21281235.886    -3985702.686 7  -2994215.50829
  23253587.323     4981833.748 5   3826466.13725
  24077754.636      -14174.369 4     -7390.04224
  23018080.058    -7998076.565 5  -6031419.32726
  23084056.565     2776967.551 6   2118507.77326
 94  1 30  0 33 29.9990000  0  7 19 27  2 18 16  7 31
  21075451.245      305510.468 7    240284.34929
  20216911.042    -2770134.514 7  -2118576.38629
  21270830.526    -4040386.622 7  -3036826.34729
  23269872.800     5067426.894 5   3893162.03725
  24080332.394        -609.953 4      3179.63924
  22994623.378    -8121324.689 5  -6127456.73226
  23095143.104     2835242.776 6   2163917.02626
 94  1 30  0 33 59.9990000  0  7 19 27  2 18 16  7 31
  21077940.659      318590.671 7    250476.71028
  20210395.675    -2804373.854 7  -2145256.38429
  21260466.050    -4094850.140 7  -3079265.42429
  23286187.175     5153150.634 5   3959959.69725
  24082993.050       13360.798 5     14065.91024
  22971204.487    -8244397.299 6  -6223357.38626
  23106307.042     2893884.472 6   2209611.84425
 94  1 30  0 34 29.9990000  0  7 19 27  2 18 16  7 31
  21080476.050      331909.926 7    260855.34128
  20203941.433    -2838299.051 7  -2171691.59629
  21250141.636    -4149096.934 7  -3121535.62829
  23302527.894     5239010.841 5   4026863.69425
  24085726.261       27730.237 4     25262.87822
  22947818.331    -8367288.154 6  -6319116.40226
  23117532.737     2952898.367 6   2255596.68126
 94  1 30  0 34 59.9990000  0  7 19 27  2 18 16  7 31
  21083058.800      345483.169 7    271431.88528
  20197547.440    -2871905.780 7  -2197878.65129
  21239859.667    -4203119.851 7  -3163631.38329
  23318895.690     5325018.959 5   4093882.94125
  24088535.222       42510.546 4     36779.97224
  22924476.729    -8489975.303 6  -6414716.69626
  23128837.144     3012296.675 5   2301881.04725
 94  1 30  0 35 29.9990000  0  8 19 27  2 18 16  7 31 26
  21085687.737      359297.323 7    282196.14729
  20191207.847    -2905205.985 7  -2223826.85729
  21229625.300    -4256917.139 7  -3205551.31829
  23335285.042     5411168.514 5   4161012.41725
  24091427.667       57698.732 5     48614.91722
  22901169.065    -8612448.510 6  -6510150.27426
  23140209.956     3072066.290 5   2348454.75925
  24728993.034     -116863.237 3
 94  1 30  0 35 59.9990000  0  8 19 27  2 18 16  7 31 26
  21088364.237      373363.663 7    293156.92129
  20184930.815    -2938199.107 7  -2249535.77729
  21219435.776    -4310461.957 7  -3247274.52229
  23351709.292     5497459.210 5   4228251.86525
  24094391.644       73278.353 5     60754.88123
  22877900.440    -8734714.513 6  -6605422.41326
  23151658.464     3132217.853 5   2395326.09525
  24706779.995     -233564.692 3        -0.32032
 94  1 30  0 36 29.9990000  0  8 19 27  2 18 16  7 31 26
  21091092.026      387694.209 7    304323.57629
  20178710.261    -2970893.364 7  -2275011.81129
  21209292.925    -4363752.890 7  -3288799.89429
  23368162.901     5583908.172 5   4295614.64125
  24097424.417       89213.841 4     73172.14123
  22854671.229    -8856786.858 6  -6700543.63926
  23163179.425     3192763.443 5   2442504.45025
  24684608.698     -350096.327 3    -90804.06822
 94  1 30  0 36 59.9990000  0  8 19 27  2 18 16  7 31 26
  21093871.198      402304.562 7    315708.25629
  20172544.339    -3003288.511 7  -2300254.77129
  21199202.612    -4416796.980 7  -3330132.92829
  23384639.948     5670507.619 5   4363094.66425
  24100523.276      105497.784 5     85860.91122
  22831479.409    -8978683.396 6  -6795527.87826
  23174766.519     3253681.947 5   2489973.40125
  24662471.808     -466441.118 3   -181462.22422
 94  1 30  0 37 29.9990000  0  8 19 27  2 18 16  7 31 26
  21096705.542      417197.979 7    327313.50929
  20166438.503    -3035378.584 7  -2325260.01429
  21189154.925    -4469584.272 7  -3371265.85329
  23401148.550     5757265.686 5   4430698.30025
  24103690.644      122137.157 4     98826.63521
  22808313.034    -9100416.304 6  -6890384.61926
  23186436.159     3314976.748 6   2537735.55325
  24640367.026     -582584.428 3   -271963.39321
 94  1 30  0 37 59.9990000  0  8 19 27  2 18 16  7 31 26
  21099592.394      432372.159 7    339137.53829
  20160389.425    -3067162.476 7  -2350026.67729
  21179158.597    -4522120.588 7  -3412203.20729
  23417684.019     5844172.719 5   4498418.00525
  24106927.136      139135.139 5    112071.82322
  22785177.854    -9221984.566 6  -6985113.06026
  23198167.448     3376647.434 5   2585790.61325
  24618307.011     -698533.732 3   -362313.40122
 94  1 30  0 38 29.9990000  0  8 19 27  2 18 16  7 31 26
  21102533.815      447828.269 7    351181.25129
  20154401.495    -3098628.948 7  -2374546.00129
  21169203.847    -4574423.359 7  -3452958.58429
  23434249.331     5931218.305 5   4566245.66325
  24110230.261      156495.061 5    125599.02723
  22762080.808    -9343371.541 6  -7079700.24426
  23209978.698     3438694.140 5   2634138.67525
  24596276.175     -814289.740 4   -452512.76322
 94  1 30  0 38 59.9990000  0  8 19 27  2 18 16  7 31 26
  21105528.683      463567.603 7    363445.66729
  20148472.823    -3129781.466 7  -2398820.67829
  21159299.456    -4626486.174 7  -3493526.97829
  23450838.628     6018376.556 5   4634161.12925
  24113602.800      174234.891 4    139422.27622
  22739013.487    -9464570.279 6  -7174140.74626
  23221853.339     3501101.264 5   2682767.58425
  24574288.948     -929858.493 4   -542566.24223
 94  1 30  0 39 29.9990000  0  8 19 27  2 18 16  7 31 26
  21108580.690      479599.708 7    375938.21429
  20142609.901    -3160608.276 7  -2422841.54629
  21149438.589    -4678288.600 7  -3533892.47329
  23467444.917     6105644.162 5   4702161.81825
  24117056.565      192363.102 4    153548.12322
  22715990.737    -9585557.455 6  -7268416.39126
  23233795.378     3563877.402 5   2731684.03325
  24552327.175    -1045238.471 4   -632472.59523
 94  1 30  0 39 59.9990000  0  8 19 27  2 18 16  7 31 26
  21111685.042      495921.027 7    388656.11628
  20136802.315    -3191113.168 7  -2446611.59129
  21139629.651    -4729839.205 7  -3574061.74729
  23484065.495     6192996.783 5   4770228.72325
  24120572.940      210847.749 5    167951.74322
  22693009.948    -9706329.507 6  -7362524.41626
  23245809.315     3626999.010 5   2780869.66625
  24530403.167    -1160441.749 3   -722241.27722
 94  1 30  0 40 29.9990000  0  8 19 27  2 18 16  7 31 26
  21114847.784      512529.262 7    401597.59129
  20131058.612    -3221293.737 7  -2470128.90729
  21129872.253    -4781124.751 7  -3614024.48029
  23500705.144     6280441.619 5   4838367.50825
  24124154.019      229685.433 4    182630.41022
  22670065.354    -9826897.090 6  -7456473.12226
  23257887.620     3690465.206 5   2830323.81426
  24508520.370    -1275459.896 4   -811865.66923
 94  1 30  0 40 59.9990000  0  8 19 27  2 18 16  7 31 26
  21118059.581      529412.772 7    414753.56328
  20125377.792    -3251155.917 7  -2493398.12729
  21120164.886    -4832130.222 7  -3653768.97429
  23517365.159     6367986.951 5   4906584.58625
  24127812.206      248881.325 5    197588.25422
  22647161.534    -9947262.391 6  -7550264.20226
  23270032.300     3754268.940 5   2880040.99825
  24486666.815    -1390293.530 4   -901346.32822
 94  1 30  0 41 29.9990000  0  8 19 27  2 18 16  7 31 26
  21121321.159      546559.936 7    428114.98628
  20119759.237    -3280687.440 7  -2516409.68029
  21110510.495    -4882859.223 7  -3693298.04229
  23534049.855     6455648.082 5   4974891.90025
  24131530.401      268425.338 4    212817.34521
  22624297.862   -10067403.687 6  -7643880.73226
  23282238.948     3818428.190 5   2930035.19825
  24464849.440    -1504934.670 4   -990676.98422
 94  1 30  0 41 59.9990000  0  8 19 27  2 18 16  7 31 26
  21124629.995      563942.604 7    441659.91928
  20114198.144    -3309902.141 7  -2539174.36929
  21100907.378    -4933327.954 7  -3732624.30829
  23550752.198     6543433.071 5   5043295.73525
  24135309.183      288302.061 3    228305.69121
  22601478.534   -10187323.496 6  -7737324.67826
  23294513.792     3882936.870 5   2980301.68425
  24443072.190    -1619382.051 4  -1079856.68122
 94  1 30  0 42 29.9990000  0  8 19 27  2 18 16  7 31 26
  21127980.206      581548.613 7    455378.88128
  20108695.956    -3338809.020 7  -2561699.19929
  21091351.636    -4983546.942 7  -3771755.95929
  23567479.448     6631347.503 5   5111800.44125
  24139160.769      308521.049 3    244060.74622
  22578698.417   -10307023.297 6  -7830597.18926
  23306858.729     3947797.578 5   3030842.46025
  24421331.729    -1733629.806 4  -1168880.76023
 94  1 30  0 42 59.9990000  0  8 19 27  2 18 16  7 31 26
  21131376.206      599389.949 7    469281.21628
  20103252.284    -3367407.779 7  -2583983.93329
  21081842.769    -5033525.170 7  -3810700.00929
  23584231.229     6719382.551 5   5180399.13025
  24143068.979      329072.201 4    260074.58922
  22555967.190   -10426490.896 6  -7923688.76826
  23319267.401     4013003.371 5   3081652.14725
  24399634.792    -1847661.339 4  -1257736.41721
 94  1 30  0 43 29.9990000  0  8 19 27  2 18 16  7 31 26
  21134818.792      617476.769 7    483374.84128
  20097870.964    -3395699.029 7  -2606029.04629
  21072376.206    -5083262.630 7  -3849456.44829
  23601006.815     6807528.452 5   5249084.19225
  24147042.854      349948.012 4    276341.45523
  22533273.534   -10545744.426 6  -8016613.52526
  23331740.308     4078554.765 5   3132731.13725
  24377970.136    -1961479.481 3  -1346425.76522
 94  1 30  0 43 59.9990000  0  8 19 27  2 18 16  7 31 26
  21138309.261      635830.388 7    497676.35129
  20092549.605    -3423668.195 7  -2627823.18829
  21062962.620    -5132738.714 7  -3888009.21929
  23617803.761     6895784.485 5   5317855.07225
  24151079.542      371164.233 4    292873.52321
  22510615.862   -10664801.073 6  -8109384.86626
  23344278.854     4144454.617 5   3184081.64725
  24356355.722    -2075078.813 4  -1434944.61622
 94  1 30  0 44 29.9990000  0  8 19 27  2 18 16  7 31 26
  21141856.245      654465.330 7    512197.08028
  20087288.925    -3451305.092 7  -2649358.41929
  21053595.909    -5181957.715 7  -3926361.65729
  23634614.237     6984127.189 5   5386693.48925
  24155183.667      392738.868 4    309684.91223
  22488000.019   -10783671.580 6  -8202011.16126
  23356887.190     4210698.528 5   3235700.25925
  24334774.229    -2188469.920 4  -1523301.22421
 94  1 30  0 44 59.9990000  0  8 19 27  2 18 16  7 31 26
  21145455.511      673384.881 7    526939.58828
  20082093.792    -3478608.277 7  -2670633.61929
  21044278.183    -5230922.503 7  -3964516.02229
  23651433.339     7072546.269 5   5455591.40625
  24159360.706      414665.847 4    326770.86522
  22465412.690   -10902352.065 6  -8294489.39426
  23369555.003     4277279.773 5   3287581.74325
  24313243.503    -2301658.574 4  -1611500.07324
 94  1 30  0 45 29.9990000  0  8 19 27  2 18 16  7 31 26
  21149110.495      692586.881 7    541902.18528
  20076961.761    -3505573.859 7  -2691645.75329
  21035006.370    -5279644.732 7  -4002481.37029
  23668278.620     7161049.087 5   5524554.59824
  24163598.714      436955.124 4    344139.13222
  22442866.448   -11020818.156 6  -8386800.55426
  23382287.847     4344200.387 5   3339727.64025
  24291732.120    -2414654.998 4  -1699549.11924
 94  1 30  0 45 59.9990000  0  8 19 27  2 18 16  7 31 26
  21152817.979      712070.053 7    557083.87728
  20071896.245    -3532199.075 7  -2712392.66529
  21025775.440    -5328145.253 7  -4040273.96629
  23685141.065     7249634.211 5   5593581.91424
  24167908.995      459605.357 4    361788.61221
  22420375.292   -11139033.698 6  -8478916.47626
  23395084.987     4411443.594 5   3392124.92925
  24270276.901    -2527443.160 4  -1787435.89922
 94  1 30  0 46 29.9990000  0  8 19 27  2 18 16  7 31 26
  21156581.722      731840.611 7    572489.50428
  20066894.433    -3558489.112 7  -2732878.39729
  21016584.831    -5376437.442 7  -4077904.22529
  23702011.612     7338309.482 5   5662679.48024
  24172284.308      482608.358 4    379713.03523
  22397931.378   -11256967.668 6  -8570812.99826
  23407944.190     4479003.976 5   3444769.35825
  24248850.104    -2640010.488 4  -1875150.59422
 94  1 30  0 46 59.9990000  0  8 19 27  2 18 16  7 31 26
  21160397.089      751896.286 7    588117.30328
  20061949.886    -3584451.281 7  -2753108.65129
  21007438.370    -5424517.775 7  -4115369.40129
  23718904.433     7427086.131 5   5731856.06623
  24176723.667      505929.356 3    397885.20723
  22375542.136   -11374611.044 6  -8662483.08226
  23420855.729     4546862.444 5   3497646.07625
  24227471.112    -2752357.068 4  -1962693.28024
 94  1 30  0 47 29.9990000  0  8 19 27  2 18 16  7 31 26
  21164264.894      772224.702 7    603957.62528
  20057075.409    -3610081.038 7  -2773079.88529
  20998326.964    -5472387.551 7  -4152670.50429
  23735818.909     7515966.947 5   5801113.80524
  24181218.737      529551.236 4    416291.83922
  22353207.433   -11491979.864 6  -8753939.21526
  23433826.753     4615006.218 5   3550745.09625
  24206133.081    -2864492.702 5  -2050071.61123
 94  1 30  0 47 59.9990000  0  8 19 27  2 18 16  7 31 26
  21168183.362      792817.875 7    620004.25528
  20052262.479    -3635367.470 7  -2792783.58629
  20989264.190    -5520021.912 7  -4189788.16829
  23752750.558     7604947.682 5   5870449.39924
  24185770.440      553460.452 4    434922.36822
  22330924.386   -11609103.584 6  -8845204.35426
  23446843.206     4683438.805 5   3604069.17525
  24184837.714    -2976409.251 4  -2137279.23124
 94  1 30  0 48 29.9990000  0  8 19 27  2 18 16  7 31 26
  21172152.511      813674.371 7    636256.07228
  20047522.503    -3660296.152 7  -2812208.52529
  20980246.401    -5567392.564 7  -4226700.34129
  23769703.034     7694030.661 5   5939864.66423
  24190374.206      577656.921 3    453776.72124
  22308678.854   -11725995.775 6  -8936289.10526
  23459922.534     4752175.942 5   3657630.56225
  24163580.440    -3088095.933 4  -2224307.72124
 94  1 30  0 48 59.9990000  0  8 19 27  2 18 16  7 31 26
  21176169.901      834789.693 7    652709.56128
  20042844.136    -3684863.579 7  -2831351.96629
  20971286.644    -5614494.682 7  -4263403.27429
  23786676.347     7783201.331 5   6009348.25423
  24195035.526      602141.942 3    472855.93824
  22286474.558   -11842670.112 6  -9027204.08926
  23473064.480     4821218.793 5   3711430.16525
  24142369.823    -3199543.886 3  -2311150.21223
 94  1 30  0 49 29.9990000  0  8 19 27  2 18 16  7 31 26
  21180237.417      856162.671 7    669363.82428
  20038238.206    -3709074.312 7  -2850217.47029
  20962371.175    -5661340.369 7  -4299906.38929
  23803651.050     7872431.210 5   6078877.98824
  24199745.854      626920.167 3    492163.59123
  22264312.886   -11959131.615 6  -9117953.24026
  23486264.776     4890584.933 5   3765481.69525
  24121223.315    -3310740.959 4  -2397797.16524
 94  1 30  0 49 59.9990000  0  8 19 27  2 18 16  7 31 26
  21184357.042      877809.944 7    686231.83428
  20033698.362    -3732940.824 7  -2868814.75029
  20953504.026    -5707928.545 7  -4336208.84529
  23820638.401     7961697.513 5   6148436.10923
  24204521.534      652002.552 3    511708.27923
  22242196.003   -12075357.107 6  -9208518.48226
  23499528.206     4960287.327 5   3819795.22825
  24100103.354    -3421658.795 3  -2484226.56124
 94  1 30  0 50 29.9990000  0  8 19 27  2 18 16  7 31 26
  21188530.815      899748.495 7    703326.80728
  20029216.667    -3756487.584 7  -2887162.86829
  20944683.362    -5754284.527 7  -4372330.37629
  23837631.237     8050994.626 5   6218018.21423
  24209358.651      677399.796 3    531498.30922
  22220130.050   -12191322.305 6  -9298880.90226
  23512857.784     5030324.571 5   3874369.69425
  24079052.386    -3532309.088 4  -2570447.48425
 94  1 30  0 50 59.9990000  0  8 19 27  2 18 16  7 31 26
  21192762.550      921984.156 7    720653.30128
  20024792.479    -3779723.579 7  -2905268.83729
  20935905.253    -5800418.401 7  -4408278.82829
  23854632.925     8140332.137 5   6287631.84323
  24214251.175      703120.387 4    551540.29723
  22198115.378   -12307009.638 6  -9389026.80726
  23526245.144     5100694.520 5   3929203.40325
  24058048.011    -3642702.100 5  -2656467.91124
 94  1 30  0 51 29.9990000  0  8 19 27  2 18 16  7 31 26
  21197047.956      944504.916 7    738201.94228
  20020428.839    -3802654.332 7  -2923136.95029
  20927169.144    -5846332.708 7  -4444056.19829
  23871639.589     8229718.198 5   6357283.27523
  24219203.261      729160.232 3    571831.06622
  22176154.011   -12422409.769 6  -9478948.92927
  23539699.300     5171393.348 5   3984293.39225
  24037089.511    -3752850.812 5  -2742298.00724
 94  1 30  0 51 59.9990000  0  8 19 27  2 18 16  7 31 26
  21201386.823      967302.297 7    755966.14728
  20016124.722    -3825273.944 7  -2940762.61729
  20918475.729    -5892016.064 7  -4479653.59429
  23888664.214     8319178.703 5   6426992.71624
  24224223.651      755525.021 4    592375.02322
  22154249.604   -12537524.112 6  -9568648.35227
  23553212.198     5242402.060 5   4039624.84325
  24016168.222    -3862771.364 5  -2827950.28324
 94  1 30  0 52 29.9990000  0  8 19 27  2 18 16  7 31 26
  21205778.347      990377.568 7    773946.87128
  20011886.253    -3847546.768 7  -2958118.06629
  20909828.347    -5937457.488 7  -4515062.47229
  23905707.214     8408740.788 5   6496781.31524
  24229302.120      782218.314 4    613174.98922
  22132401.011   -12652347.943 6  -9658121.40027
  23566783.448     5313714.800 5   4095193.19825
  23995290.136    -3972476.812 4  -2913434.97123
 94  1 30  0 52 59.9990000  0  8 19 27  2 18 16  7 31 26
  21210220.136     1013718.746 7    792134.80328
  20007720.472    -3869440.929 7  -2975178.44729
  20901228.479    -5982643.242 7  -4550272.13229
  23922764.854     8498391.851 5   6566639.25723
  24234438.511      809218.809 3    634214.25922
  22110601.534   -12766895.374 6  -9747379.08227
  23580402.464     5385313.128 5   4150984.08525
  23974459.519    -4081954.632 5  -2998742.24923
 94  1 30  0 53 29.9990000  0  8 19 27  2 18 16  7 31 26
  21214709.136     1037309.662 7    810517.32928
  20003627.433    -3890957.828 7  -2991944.86029
  20892674.917    -6027591.095 7  -4585296.40929
  23939834.659     8588092.550 5   6636535.87324
  24239627.628      836497.466 3    655470.32322
  22088853.597   -12881190.172 6  -9836439.89327
  23594081.370     5457167.832 5   4206974.75025
  23953667.136    -4191212.936 5  -3083878.53124
 94  1 30  0 53 59.9990000  0  8 19 27  2 18 16  7 31 26
  21219242.347     1061145.930 7    829091.04328
  19999603.401    -3912100.782 7  -3008419.88629
  20884167.909    -6072304.147 7  -4620137.72529
  23956917.839     8677828.803 5   6706460.19222
  24244875.104      864045.936 3    676936.65721
  22067149.456   -12995240.584 6  -9925310.27127
  23607800.112     5529261.305 5   4263151.46525
  23932918.276    -4300250.146 5  -3168842.48123
 94  1 30  0 54 29.9990000  0  8 19 27  2 18 16  7 31 26
  21223831.456     1085249.246 7    847872.84928
  19995652.292    -3932860.128 7  -3024595.99129
  20875705.144    -6116773.931 7  -4654789.47429
  23973997.659     8767595.979 5   6776408.61922
  24250165.425      891864.858 3    698613.73622
  22045498.378   -13109020.391 6 -10013969.79227
  23621568.417     5601608.757 5   4319526.07824
  23912223.628    -4409033.190 5  -3253608.41323
 94  1 30  0 54 59.9990000  0  8 19 27  2 18 16  7 31 26
  21228471.925     1109639.133 7    866877.95228
  19991774.667    -3953247.634 7  -3040482.35429
  20867289.237    -6160987.013 7  -4689241.20329
  23991085.706     8857405.766 5   6846390.23122
  24255514.331      919962.065 4    720507.60221
  22023898.800   -13222517.756 6 -10102409.22927
  23635388.362     5674220.023 5   4376106.29624
  23891573.979    -4517531.278 5  -3338152.30224
 94  1 30  0 55 29.9990000  0  8 19 27  2 18 16  7 31 26
  21233168.261     1134311.852 7    886103.44228
  19987956.386    -3973296.525 7  -3056104.87029
  20858923.175    -6204966.375 7  -4723510.81829
  24008183.136     8947262.635 5   6916408.53623
  24260909.815      948329.137 4    742611.78821
  22002351.433   -13335743.654 6 -10190637.12827
  23649247.745     5747086.347 5   4432885.23025
  23870976.425    -4625754.864 5  -3422482.27923
 94  1 30  0 55 59.9990000  0  8 19 27  2 18 16  7 31 26
  21237920.175     1159285.049 7    905563.07328
  19984206.479    -3993006.349 7  -3071463.16529
  20850598.479    -6248713.059 7  -4757599.12029
  24025296.909     9037179.196 5   6986473.38722
  24266363.886      976971.733 4    764930.67821
  21980856.784   -13448702.517 6 -10278656.93927
  23663168.487     5820216.649 5   4489869.87425
  23850437.245    -4733701.745 5  -3506596.63324
 94  1 30  0 56 29.9990000  0  8 19 27  2 18 16  7 31 26
  21242734.659     1184589.441 7    925280.78028
  19980525.808    -4012361.972 7  -3086545.46029
  20842315.120    -6292230.563 7  -4791508.83529
  24042419.675     9127159.000 5   7056587.46823
  24271866.409     1005895.467 3    787468.61921
  21959417.386   -13561380.651 6 -10366458.00927
  23677135.979     5893619.422 5   4547066.83225
  23829951.386    -4841355.298 5  -3590482.43524
 94  1 30  0 56 59.9990000  0  8 19 27  2 18 16  7 31 26
  21247612.956     1210221.554 7    945253.84528
  19976908.292    -4031355.568 7  -3101345.66129
  20834076.995    -6335530.193 7  -4825248.77929
  24059554.823     9217204.518 5   7126752.78721
  24277425.112     1035111.150 3    810234.09622
  21938024.675   -13673784.498 6 -10454045.34127
  23691151.987     5967283.553 5   4604467.44125
  23809521.370    -4948714.658 5  -3674138.98724
 94  1 30  0 57 29.9990000  0  8 19 27  2 18 16  7 31 26
  21252547.800     1236153.833 7    965460.80828
  19973362.964    -4049988.060 7  -3115864.47829
  20825875.940    -6378631.623 7  -4858834.29129
  24076697.073     9307288.543 5   7196948.12822
  24283036.909     1064605.037 3    833216.31723
  21916684.542   -13785929.497 6 -10541430.97327
  23705216.690     6041196.140 5   4662061.66925
  23789146.581    -5055787.990 5  -3757572.67325
 94  1 30  0 57 59.9990000  0  8 19 27  2 18 16  7 31 26
  21257536.909     1262370.334 7    985889.24428
  19969883.901    -4068266.825 7  -3130107.66929
  20817711.878    -6421529.972 7  -4892261.54929
  24093840.206     9397391.334 5   7267158.07522
  24288701.808     1094375.143 3    856413.74922
  21895398.737   -13897793.497 6 -10628597.65027
  23719331.237     6115355.555 5   4719848.19725
  23768823.597    -5162579.435 5  -3840786.68324
 94  1 30  0 58 29.9990000  0  8 19 27  2 18 16  7 31 26
  21262577.331     1288860.828 7   1006531.17828
  19966472.589    -4086201.519 7  -3144082.74329
  20809589.800    -6464211.726 7  -4925520.03329
  24110996.097     9487515.474 5   7337384.66323
  24294416.964     1124415.781 3    879822.05422
  21874171.190   -14009354.547 6 -10715528.25627
  23733490.628     6189768.456 5   4777832.26825
  23748561.448    -5269073.570 5  -3923769.04523
 94  1 30  0 58 59.9990000  0  8 19 27  2 18 16  7 31 26
  21267664.972     1315599.865 7   1027366.78228
  19963125.417    -4103796.585 7  -3157793.18229
  20801508.487    -6506668.204 7  -4958602.97629
  24128147.878     9577654.191 5   7407622.61622
  24300186.354     1154716.850 4    903433.24522
  21852999.737   -14120611.209 6 -10802221.68327
  23747703.433     6264437.350 5   4836015.81125
  23728348.136    -5375276.239 5  -4006524.25623
 94  1 30  0 59 29.9990000  0  8 19 27  2 18 16  7 31 26
  21272801.495     1342588.760 7   1048397.08428
  19959840.604    -4121062.913 7  -3171247.45329
  20793473.878    -6548891.661 7  -4991504.34829
  24145303.433     9667805.320 5   7477870.23422
  24305999.214     1185269.289 3    927240.33721
  21831885.925   -14231553.073 6 -10888669.81527
  23761960.073     6339378.669 5   4894411.61925
  23708189.745    -5481196.568 5  -4089059.50425
 94  1 30  0 59 59.9990000  0  8 19 27  2 18 16  7 31 26
  21277987.964     1369839.773 7   1069631.63228
  19956614.558    -4138001.779 7  -3184446.56729
  20785485.995    -6590882.179 7  -5024224.21529
  24162462.644     9757971.087 4   7548129.27523
  24311857.675     1216072.461 3    951242.78622
  21810836.394   -14342166.401 6 -10974861.94927
  23776270.104     6414591.499 5   4953019.00625
  23688090.440    -5586843.776 5  -4171381.93225
 94  1 30  1  0 29.9990000  0  8 19 27  2 18 16  7 31 26
  21283222.815     1397354.741 7   1091071.85728
  19953458.276    -4154595.304 7  -3197376.57829
  20777536.487    -6632651.576 7  -5056771.77629
  24179618.628     9848148.327 4   7618397.25221
  24317767.644     1247117.124 3    975433.40622
  21789844.214   -14452479.007 6 -11060819.75727
  23790637.253     6490063.593 5   5011828.41725
  23668035.987    -5692215.395 5  -4253489.57424
 94  1 30  1  0 59.9990000  0  8 19 27  2 18 16  7 31 26
  21288507.737     1425130.501 7   1112715.30028
  19950369.472    -4170833.530 7  -3210029.73229
  20769627.269    -6674205.703 7  -5089151.59229
  24196779.229     9938336.134 4   7688673.47821
  24323726.190     1278414.945 3    999821.33722
  21768911.089   -14562494.448 6 -11146546.01427
  23805044.651     6565790.066 5   5070836.05425
  23648033.315    -5797315.603 5  -4335385.75625
 94  1 30  1  1 29.9990000  0  8 19 27  2 18 16  7 31 26
  21293846.698     1453183.487 7   1134574.76028
  19947348.253    -4186699.595 7  -3222392.88529
  20761763.097    -6715541.031 7  -5121360.91729
  24213944.870    10028539.654 3   7758961.91023
  24329728.933     1309971.662 3   1024410.95322
  21748031.823   -14672204.084 6 -11232033.97927
  23819500.495     6641767.996 5   5130039.63125
  23628087.792    -5902138.296 5  -4417065.69924
 94  1 30  1  1 59.9990000  0  8 19 27  2 18 16  7 31 26
  21299239.534     1481517.854 7   1156653.47328
  19944400.144    -4202186.151 7  -3234460.32829
  20753940.269    -6756656.895 7  -5153399.23929
  24231111.167    10118743.894 3   7829250.92321
  24335779.026     1341766.800 3   1049186.34521
  21727212.644   -14781610.716 6 -11317285.84927
  23834003.269     6717975.171 4   5189421.83125
  23608197.917    -6006672.453 5  -4498520.80425
 94  1 30  1  2 29.9990000  0  8 19 27  2 18 15  7 31 26
  21304683.034     1510129.215 6   1178948.02927
  19941529.026    -4217287.210 7  -3246227.37529
  20746157.276    -6797544.626 7  -5185259.77829
  24248278.862    10208952.633 3   7899543.47222
  24290890.003          -0.36513
  21706451.503   -14890717.946 6 -11402304.41227
  23848548.386     6794404.864 5   5248977.43325
  23588354.190    -6110910.580 5  -4579745.25424
 94  1 30  1  2 59.9990000  0  8 19 27  2 18 15  7 31 26
  21310181.331     1539026.991 6   1201465.76828
  19938727.440    -4232007.245 7  -3257697.52329
  20738421.315    -6838195.870 7  -5216936.05729
  24265447.722    10299171.429 3   7969843.82922
  24275664.479      -79965.354 3
  21685749.378   -14999505.700 6 -11487074.03627
  23863133.839     6871060.265 5   5308708.90925
  23568577.081    -6214858.600 5  -4660743.63824
 94  1 30  1  3 29.9990000  0  8 19 27  2 18 15  7 31 26
  21315736.948     1568220.029 6   1224213.56527
  19936002.229    -4246333.019 7  -3268860.45529
  20730731.565    -6878605.613 7  -5248424.15029
  24282613.909    10389397.345 3   8040149.71921
  24260502.292     -159670.641 3        -0.40032
  21665111.003   -15107964.102 6 -11571587.02428
  23877768.956     6947940.776 5   5368615.78825
  23548851.089    -6318515.738 5  -4741515.35724
 94  1 30  1  4 29.9980000  0  8 19 27  2 18 15  7 31 26
  21327003.514     1627423.455 6   1270346.08928
  19930757.443    -4273895.745 7  -3290337.90029
  20715479.936    -6958751.892 7  -5310875.77529
  24316958.256    10569852.029 3   8180763.77521
  24230314.061     -318312.851 3   -123617.44422
  21624012.139   -15323931.292 6 -11739873.04128
  23907145.857     7102332.962 5   5488921.37325
  23509564.576    -6524980.115 5  -4902396.55825
 94  1 30  1  4 59.9980000  0  8 19 27  2 18 15  7 31 26
  21332711.303     1657420.555 6   1293720.44527
  19928236.381    -4287140.030 7  -3300658.11029
  20707916.803    -6998498.132 7  -5341846.85829
  24334127.959    10660098.516 3   8251085.68821
  24215294.092     -397237.355 3   -185116.94722
  21603554.318   -15431438.255 6 -11823644.64728
  23921902.646     7179871.041 5   5549340.64025
  23490003.225    -6627793.773 5  -4982511.03324
 94  1 30  1  5 29.9980000  0  8 19 27  2 18 15  7 31 26
  21338467.162     1687668.214 6   1317290.04127
  19925780.787    -4300032.701 7  -3310704.35429
  20700393.975    -7038044.547 7  -5372662.23529
  24351305.943    10750350.905 3   8321412.17621
  24200326.318     -475889.220 3   -246403.98222
  21583156.264   -15538629.586 6 -11907170.30528
  23936698.350     7257634.489 5   5609935.54324
  23470494.123    -6730305.444 5  -5062390.18524
 94  1 30  1  5 59.9980000  0  8 19 27  2 18 15  7 31 26
  21344274.029     1718174.319 6   1341061.02927
  19923393.217    -4312592.569 7  -3320491.25929
  20692903.115    -7077392.681 7  -5403323.09329
  24368483.818    10840612.116 4   8391745.52521
  24185408.014     -554266.072 3   -307476.76222
  21562817.139   -15645502.674 6 -11990447.98728
  23951537.826     7335619.092 5   5670702.76625
  23451050.006    -6832498.878 5  -5142021.37325
 94  1 30  1  6 29.9980000  0  8 19 27  2 18 15  7 31 26
  21350128.646     1748941.652 7   1365035.56827
  19921066.428    -4324803.401 7  -3330006.18729
  20685454.857    -7116549.631 7  -5433834.98129
  24385651.803    10930869.527 3   8462075.94022
  24170546.701     -632373.568 3   -368339.67223
  21542541.514   -15752060.756 6 -12073480.20928
  23966419.732     7413814.281 5   5731634.07425
  23431658.303    -6934370.627 5  -5221401.88925
 94  1 30  1  6 59.9980000  0  8 19 27  2 18 15  7 31 26
  21356037.084     1779988.786 6   1389228.14027
  19918814.178    -4336649.122 7  -3339236.62029
  20678033.529    -7155534.695 7  -5464212.93129
  24402826.154    11021114.763 3   8532396.87022
  24155737.037     -710209.877 3   -428991.25923
  21522325.318   -15858299.802 6 -12156263.82828
  23981334.912     7492198.209 5   5792712.46325
  23412343.107    -7035900.394 5  -5300515.92925
 94  1 30  1  7 29.9980000  0  8 19 27  2 18 15  7 31 26
  21362000.678     1811334.834 6   1413653.62327
  19916630.646    -4348115.575 7  -3348171.51329
  20670654.443    -7194320.492 7  -5494435.61829
  24419999.842    11111336.999 4   8602699.90022
  24140978.990     -787768.882 3   -489426.79822
  21502170.287   -15964215.697 6 -12238795.63928
  23996284.576     7570757.106 5   5853927.20225
  23393086.334    -7137072.444 5  -5379351.22825
 94  1 30  1  7 59.9980000  0  8 19 27  2 18 15  7 31 26
  21368024.529     1842996.640 6   1438325.15927
  19914524.123    -4359186.823 7  -3356798.45529
  20663318.045    -7232879.952 7  -5524481.92729
  24437163.420    11201539.484 4   8672987.51622
  24126270.170     -865039.247 3   -549637.42022
  21482079.357   -16069795.639 6 -12321065.67328
  24011271.514     7649504.916 5   5915289.12325
  23373905.037    -7237884.215 5  -5457905.80724
 94  1 30  1  8 29.9980000  0  8 19 27  2 18 15  7 31 26
  21374105.287     1874955.982 6   1463228.53827
  19912493.498    -4369851.668 7  -3365108.71329
  20656022.139    -7271217.308 7  -5554355.17329
  24454320.686    11291700.467 4   8743242.76923
  24111622.951     -942020.798 3   -609622.97423
  21462050.232   -16175054.086 6 -12403085.18928
  24026290.529     7728442.295 5   5976798.76825
  23354781.459    -7338355.000 5  -5536194.68225
 94  1 30  1  8 59.9980000  0  8 19 27  2 18 15  7 31 26
  21380244.678     1907207.957 6   1488359.95328
  19910540.381    -4380120.585 7  -3373110.46329
  20648772.654    -7309317.534 7  -5584043.63729
  24471463.154    11381813.064 3   8813460.34321
  24097030.287    -1018709.089 3   -669379.98122
  21442081.514   -16279984.435 6 -12484849.03828
  24041345.443     7807575.150 4   6038460.73324
  23335727.764    -7438491.220 5  -5614222.83825
 94  1 30  1  9 29.9980000  0  8 19 27  2 18 15  7 31 26
  21386434.397     1939736.814 6   1513707.10328
  19908658.889    -4390013.712 7  -3380819.39729
  20641567.076    -7347170.043 7  -5613539.08229
  24488602.404    11471864.336 3   8883630.14521
  24082490.154    -1095109.550 3   -728912.75722
  21422176.779   -16384585.892 6 -12566356.61428
  24056444.904     7886903.102 4   6100274.73124
  23316729.193    -7538322.673 5  -5692013.53625
 94  1 30  1  9 59.9980000  0  8 19 27  2 18 15  7 31 26
  21392677.092     1972541.013 6   1539268.82927
  19906850.631    -4399520.608 7  -3388227.36629
  20634407.225    -7384790.143 7  -5642853.42629
  24505725.857    11561870.143 3   8953764.49122
  24068009.053    -1171212.914 3   -788214.02222
  21402337.061   -16488841.896 6 -12647595.00728
  24071572.373     7966432.748 4   6162245.88224
  23297789.553    -7637859.082 5  -5769574.31324
 94  1 30  1 10 29.9980000  0  7 19 27  2 15  7 31 26
  21398971.623     2005621.708 6   1565045.99227
  19905114.193    -4408634.488 7  -3395329.08229
  20627293.451    -7422193.033 7  -5671998.52029
  24053586.014    -1247017.967 3   -847282.80222
  21382565.654   -16592745.628 6 -12728558.90428
  24086743.607     8046145.162 3   6224359.44924
  23278907.279    -7737099.473 5  -5846904.44525
 94  1 30  1 10 59.9980000  0  7 19 27  2 15  7 31 26
  21405321.131     2038986.423 6   1591044.46927
  19903457.451    -4417356.698 7  -3402125.60829
  20620215.193    -7459377.514 7  -5700973.43029
  24039215.248    -1322522.803 3   -906117.71622
  21362862.467   -16696275.255 6 -12809231.29028
  24101941.482     8126024.151 4   6286602.84024
  23260080.623    -7836029.143 5  -5923992.45225
 94  1 30  1 11 29.9980000  0  7 19 27  2 15  7 31 26
  21411723.271     2072634.940 6   1617264.09227
  19901868.232    -4425687.481 7  -3408617.11929
  20613179.803    -7496353.746 7  -5729786.06229
  24024909.217    -1397719.700 4   -964712.64221
  21343233.709   -16799427.179 6 -12889609.37328
  24117175.740     8206073.490 4   6348978.94924
  23241318.490    -7934634.488 5  -6000827.73925
 94  1 30  1 11 59.9980000  0  7 19 27  2 15  7 31 26
  21418180.436     2106559.313 6   1643698.67027
  19900358.107    -4433637.994 7  -3414812.31629
  20606179.561    -7533138.953 7  -5758449.84029
  24010658.592    -1472610.862 3  -1023069.34322
  21323674.873   -16902212.935 6 -12969702.13128
  24132449.318     8286298.302 4   6411491.78824
  23222615.514    -8032900.683 5  -6077398.73725
 94  1 30  1 12 29.9980000  0  7 19 27  2 15  7 31 26
  21424688.014     2140762.244 6   1670350.30527
  19898916.779    -4441215.926 7  -3420717.20129
  20599215.928    -7569721.946 7  -5786956.06129
  23996466.568    -1547189.760 4  -1081182.72122
  21304187.857   -17004620.764 7 -13049500.38228
  24147752.748     8366710.636 4   6474150.75625
  23203986.990    -8130802.474 5  -6153685.80625
 94  1 30  1 12 59.9980000  0  7 19 27  2 15  7 31 26
  21431249.350     2175237.256 6   1697213.95427
  19897544.631    -4448431.739 7  -3426339.91029
  20592293.428    -7606097.958 7  -5815300.98629
  23982328.803    -1621456.249 4  -1139052.67524
  21284771.600   -17106658.152 7 -13129009.99228
  24163089.693     8447320.369 4   6536963.54824
  23185426.678    -8228339.118 5  -6229688.34925
 94  1 30  1 13 29.9980000  0  7 19 27  2 15  7 31 26
  21437859.982     2209980.662 6   1724286.73927
  19896240.459    -4455280.489 7  -3431676.59129
  20585410.061    -7642271.622 7  -5843488.24729
  23968256.982    -1695403.886 3  -1196674.14223
  21265421.896   -17208332.411 7 -13208236.64328
  24178464.982     8528141.540 4   6599941.07924
  23166933.865    -8325516.777 5  -6305411.15125
 94  1 30  1 13 59.9980000  0  7 19 27  2 15  7 31 26
  21444524.537     2244995.381 6   1751570.93127
  19895008.061    -4461754.635 7  -3436721.37129
  20578566.561    -7678241.594 7  -5871516.78329
  23954246.201    -1769031.964 3  -1254046.61824
  21246145.826   -17309633.027 7 -13287172.14628
  24193878.732     8609160.644 4   6663072.86024
  23148506.787    -8422346.846 5  -6380863.10825
 94  1 30  1 14 29.9980000  0  7 19 27  2 15  7 31 26
  21451237.889     2280270.659 6   1779058.17427
  19893848.545    -4467836.203 7  -3441460.24629
  20571763.428    -7714004.795 7  -5899384.20029
  23940299.943    -1842338.242 4  -1311168.33724
  21226939.654   -17410558.836 7 -13365815.59028
  24209340.373     8690361.299 4   6726346.10824
  23130145.662    -8518832.563 5  -6456046.73825
 94  1 30  1 14 59.9980000  0  7 19 27  2 15  7 31 26
  21457997.951     2315801.660 6   1806744.66327
  19892766.904    -4473522.479 7  -3445891.10829
  20564993.561    -7749566.714 7  -5927094.77829
  23926414.209    -1915320.125 4  -1368037.27222
  21207801.443   -17511130.653 7 -13444183.20528
  24224821.459     8771723.412 4   6789745.15624
  23111853.186    -8614977.516 5  -6530964.85025
 94  1 30  1 15 29.9980000  0  7 19 27  2 15  7 31 26
  21464807.506     2351590.990 6   1834632.45527
  19891758.709    -4478816.812 7  -3450016.56929
  20558264.170    -7784935.665 7  -5954654.98429
  23912583.295    -1987975.627 3  -1424651.90522
  21188730.475   -17611349.999 7 -13522276.16029
  24240325.904     8853238.838 4   6853263.68025
  23093619.998    -8710774.560 5  -6605611.85125
 94  1 30  1 15 59.9980000  0  7 19 27  2 15  7 31 26
  21471671.014     2387648.111 6   1862728.91727
  19890825.975    -4483721.017 7  -3453838.02629
  20551566.811    -7820114.514 7  -5982067.05129
  23898819.967    -2060302.830 3  -1481010.73123
  21169725.389   -17711220.862 7 -13600097.56829
  24255873.193     8934904.370 4   6916899.16224
  23075461.521    -8806206.034 5  -6679973.99325
 94  1 30  1 16 29.9980000  0  7 19 27  2 15  7 31 26
  21478581.740     2423980.076 6   1891039.54127
  19889968.287    -4488240.320 7  -3457359.55029
  20544907.936    -7855114.359 7  -6009339.63929
  23885123.389    -2132302.139 3  -1537114.04222
  21150783.076   -17810766.179 7 -13677665.31029
  24271438.412     9016712.393 4   6980645.69625
  23057374.693    -8901254.451 5  -6754037.65825
 94  1 30  1 16 59.9980000  0  6 19 27  2 15  7 26
  21485552.725     2460611.867 6   1919583.80427
  19889176.686    -4492382.939 7  -3460587.55829
  20538283.521    -7889928.190 7  -6036467.27829
  23871485.818    -2203967.612 4  -1592957.21323
  21131902.475   -17909982.016 7 -13754976.30729
  23039362.482    -8995922.031 5  -6827804.57025
 94  1 30  1 17 29.9980000  0  6 19 27  2 15  7 26
  21492580.990     2497540.844 6   1948359.63227
  19888460.217    -4496160.043 7  -3463530.74429
  20531694.350    -7924551.651 7  -6063446.58029
  23857911.756    -2275303.890 4  -1648543.89123
  21113088.209   -18008853.951 7 -13832019.32629
  23021415.373    -9090221.099 5  -6901284.31025
 94  1 30  1 17 59.9980000  0  6 19 27  2 15  7 26
  21499665.318     2534771.048 6   1977370.18427
  19887811.912    -4499566.798 7  -3466185.35229
  20525145.412    -7958966.537 7  -6090263.35629
  23844398.568    -2346304.888 3  -1703869.32322
  21094341.326   -18107364.077 7 -13908780.41729
  23003535.896    -9184159.642 5  -6974483.14025
 94  1 30  1 18 29.9980000  0  6 19 27  2 15  7 26
  21506806.514     2572297.993 6   2006611.96727
  19887236.811    -4502587.183 7  -3468538.89429
  20518641.506    -7993146.119 7  -6116896.78429
  23830949.834    -2416955.738 3  -1758921.88122
  21075669.607   -18205485.432 7 -13985238.57129
  22985731.475    -9277734.430 5  -7047398.51425
 94  1 30  1 18 59.9980000  0  6 19 27  2 15  7 26
  21514001.951     2610101.589 6   2036069.31527
  19886731.873    -4505228.821 7  -3470597.31229
  20512185.154    -8027079.242 7  -6143338.16729
  23817574.701    -2487257.081 3  -1813702.10622
  21057075.842   -18303204.560 7 -14061383.29829
  22967991.600    -9370961.128 5  -7120042.64725
 94  1 30  1 19 29.9980000  0  6 19 27  2 15  7 26
  21521243.732     2648165.031 6   2065729.14127
  19886303.912    -4507489.690 7  -3472359.02229
  20505770.428    -8060782.883 7  -6169600.71929
  23804262.920    -2557208.911 4  -1868209.98424
  21038557.904   -18400516.812 7 -14137210.97029
  22950322.037    -9463823.733 5  -7192403.07425
 94  1 30  1 19 59.9980000  0  6 19 27  2 15  7 26
  21528537.178     2686485.467 6   2095589.22927
  19885948.154    -4509353.124 7  -3473811.04129
  20499397.443    -8094284.406 7  -6195705.79429
  23791023.178    -2626809.727 4  -1922444.32723
  21020113.475   -18497435.102 7 -14212731.67029
  22932717.850    -9556315.039 5  -7264474.17625
 94  1 30  1 20 29.9980000  0  6 19 27  2 15  7 26
  21535879.186     2725068.758 6   2125654.13727
  19885672.982    -4510802.897 7  -3474940.72629
  20493056.365    -8127599.504 7  -6221665.58829
  23777840.818    -2696054.707 3  -1976401.44022
  21001742.834   -18593971.533 7 -14287954.81329
  22915194.521    -9648417.509 5  -7336242.29725
 94  1 30  1 20 59.9980000  0  6 19 27  2 15  7 26
  21543274.076     2763939.449 6   2155942.98827
  19885475.100    -4511850.462 7  -3475756.99729
  20486747.576    -8160743.604 7  -6247492.14029
  23764729.881    -2764943.257 3  -2030080.77124
  20983443.576   -18690129.428 7 -14362882.99829
  22897741.936    -9740127.518 6  -7407704.57825
 94  1 30  1 21 29.9980000  0  6 19 27  2 15  7 26
  21550728.014     2803117.146 6   2186471.05827
  19885358.162    -4512470.357 7  -3476240.03629
  20480472.373    -8193723.767 7  -6273190.96429
  23751696.811    -2833466.847 4  -2083475.75423
  20965219.967   -18785899.529 7 -14437509.01629
  22880365.022    -9831433.878 5  -7478852.35925
 94  1 30  1 21 59.9980000  0  6 19 27  2 15  7 26
  21558244.764     2842603.985 6   2217240.03427
  19885322.076    -4512657.632 7
  20474232.568    -8226522.555 7  -6298748.44429
  23738726.443    -2901626.517 4  -2136587.15322
  20947069.850   -18881277.028 7 -14511829.09729
  22863065.686    -9922350.573 5  -7549696.50025
 94  1 30  1 22 29.9980000  0  6 19 27  2 15  7 26
  21565814.928     2882390.430 6   2248242.45227
  19885359.756    -4512435.582 7
  20468028.662    -8259125.825 7  -6324153.58329
  23725818.881    -2969422.805 4  -2189415.41122
  20928995.350   -18976253.623 7 -14585836.79929
  22845835.615   -10012887.860 6  -7620244.98825
 94  1 30  1 22 59.9980000  0  6 19 27  2 15  7 26
  21573440.037     2922461.955 6   2279467.01827
  19885479.412    -4511815.055 7  -3475729.39729
  20461862.326    -8291522.002 7  -6349397.33929
  23712990.303    -3036852.072 4  -2241957.65823
  20911003.600   -19070809.376 7 -14659516.56529
  22828677.865   -10103052.830 6  -7690503.35025
 94  1 30  1 23 29.9980000  0  6 19 27  2 15  7 26
  21581116.420     2962799.685 6   2310899.01227
  19885678.279    -4510775.243 7  -3474919.15529
  20455742.865    -8323691.377 7  -6374464.36829
  23700230.779    -3103905.981 5  -2294207.43122
  20893091.865   -19164946.320 7 -14732869.98929
  22811590.209   -10192841.964 6  -7760468.87825
 94  1 30  1 23 59.9980000  0  6 19 27  2 15  7 26
  21588840.139     3003393.715 6   2342530.71527
  19885952.303    -4509332.524 7  -3473794.95529
  20449664.318    -8355627.685 7  -6399349.79629
  23687547.107    -3170578.138 5  -2346159.72424
  20875258.123   -19258660.885 7 -14805894.29629
  22794581.279   -10282250.703 6  -7830137.98925
 94  1 30  1 24 29.9980000  0  6 19 27  2 15  7 26
  21596615.521     3044246.379 6   2374363.96627
  19886302.381    -4507503.498 7  -3472369.73329
  20443625.342    -8387351.793 7  -6424069.85529
  23674933.975    -3236868.060 5  -2397814.14024
  20857500.600   -19351966.021 7 -14878599.55429
  22777638.646   -10371274.720 5  -7899507.29525
 94  1 30  1 24 59.9980000  0  6 19 27  2 15  7 26
  21604437.334     3085357.414 6   2406398.53827
  19886722.998    -4505278.090 7  -3470635.64329
  20437627.006    -8418878.646 7  -6448636.21129
  23662383.631    -3302783.434 4  -2449176.73123
  20839817.201   -19444886.979 7 -14951005.46129
  22760770.475   -10459908.842 5  -7968572.81025
 94  1 30  1 25 29.9980000  0  6 19 27  2 15  7 26
  21612313.443     3126739.747 6   2438644.51626
  19887227.287    -4502640.099 7  -3468580.05929
  20431662.943    -8450211.682 7  -6473051.54029
  23649913.959    -3368313.809 4  -2500239.30022
  20822209.193   -19537421.382 7 -15023110.15729
  22743979.779   -10548137.973 5  -8037322.73925
 94  1 30  1 25 59.9980000  0  6 19 27  2 15  7 26
  21620238.475     3168402.897 6   2471109.30926
  19887808.178    -4499593.762 7  -3466206.28728
  20425733.475    -8481373.320 7  -6497333.31529
  23637515.857    -3433458.438 4  -2551001.28923
  20804677.404   -19629559.193 7 -15094905.81829
  22727270.482   -10635955.840 5  -8105752.19325
 94  1 30  1 26 29.9980000  0  6 19 27  2 15  7 26
  21628223.615     3210348.522 6   2503794.20426
  19888463.561    -4496127.890 7  -3463505.61629
  20419837.904    -8512362.726 7  -6521480.89529
  23625192.209    -3498216.882 4  -2601462.38624
  20787216.639   -19721314.747 7 -15166403.62929
  22710639.209   -10723354.311 6  -8173854.85625
 94  1 30  1 26 59.9980000  0  6 19 27  2 15  7 26
  21636258.209     3252571.152 6   2536694.97027
  19889208.014    -4492233.336 7  -3460470.89229
  20413974.061    -8543168.779 7  -6545485.58529
  23612943.373    -3562585.453 4  -2651619.64424
  20769831.123   -19812671.614 7 -15237590.76229
  22694088.467   -10810326.856 5  -8241625.62226
 94  1 30  1 27 29.9980000  0  6 19 27  2 15  7 26
  21644344.764     3295070.191 6   2569811.10426
  19890024.264    -4487931.199 7  -3457118.56429
  20408149.389    -8573790.420 7  -6569346.59829
  23600774.553    -3626559.993 4  -2701469.90423
  20752527.467   -19903601.025 7 -15308444.80529
  22677617.623   -10896874.571 5  -8309065.36025
 94  1 30  1 27 59.9980000  0  6 19 27  2 15  7 26
  21652484.771     3337843.068 6   2603140.61326
  19890916.521    -4483247.235 7  -3453468.72929
  20402357.834    -8604222.370 7  -6593059.78829
  23588669.873    -3690141.691 4  -2751014.03324
  20735303.772   -19994111.676 7 -15378972.55729
  22661229.459   -10982999.943 6  -8376176.00226
 94  1 30  1 28 29.9980000  0  6 19 27  2 15  7 26
  21660675.732     3380892.120 6   2636685.33226
  19891877.029    -4478196.542 7  -3449533.11629
  20396607.686    -8634443.489 7  -6616608.68729
  23576656.795    -3753326.186 4  -2800248.68424
  20718160.818   -20084197.644 7 -15449169.37429
  22644921.881   -11068693.124 6  -8442949.85926
 94  1 30  1 28 59.9980000  0  6 19 27  2 15  7 26
  21668920.607     3424219.175 6   2670446.67426
  19892905.686    -4472785.462 7  -3445316.68929
  20390895.834    -8664455.938 7  -6639995.00029
  23564702.318    -3816108.367 4  -2849169.82222
  20701105.084   -20173833.233 7 -15519015.25329
  22628697.826   -11153958.661 6  -8509390.49926
 94  1 30  1 29 29.9980000  0  6 19 27  2 15  7 26
  21677216.037     3467815.070 6   2704417.49826
  19894005.568    -4467006.760 7  -3440813.80129
  20385223.850    -8694263.709 7  -6663221.81729
  23552831.943    -3878487.572 5  -2897776.95623
  20684128.248   -20263036.827 7 -15588524.51129
  22612551.772   -11238806.819 6  -8575505.89025
 94  1 30  1 29 59.9980000  0  6 19 27  2 15  7 26
  21685568.889     3511693.920 6   2738608.81226
  19895183.350    -4460825.109 7  -3435996.92329
  20379591.576    -8723858.458 7  -6686282.64829
  23541042.240    -3940455.774 5  -2946063.83123
  20667236.459   -20351818.378 7 -15657704.90829
  22596488.475   -11323230.842 6  -8641290.81026
 94  1 30  1 30 29.9980000  0  6 19 27  2 15  7 26
  21693968.475     3555853.879 6   2773019.17126
  19896441.334    -4454216.619 7  -3430847.43629
  20373996.865    -8753259.623 7  -6709192.63529
  23529321.053    -4002018.443 5  -2994034.68922
  20650420.193   -20440177.755 7 -15726556.33529
  22580501.318   -11407234.211 6  -8706747.92726
 94  1 30  1 30 59.9980000  0  6 19 27  2 15  7 26
  21702430.053     3600303.838 6   2807655.49926
  19897786.131    -4447148.875 7  -3425340.10429
  20368438.998    -8782474.689 7  -6731957.61729
  23517694.021    -4063164.892 5  -3041681.25624
  20633685.881   -20528117.625 7 -15795080.87429
  22564594.967   -11490821.097 6  -8771880.52426
 94  1 30  1 31 29.9980000  0  6 19 27  2 15  7 26
  21710942.826     3645045.557 6   2842519.17826
  19899215.647    -4439625.614 7  -3419477.81629
  20362911.639    -8811512.150 7  -6754584.19029
  23506131.748    -4123897.904 5  -3089005.63625
  20617028.904   -20615660.200 7 -15863295.83529
  22548767.740   -11573984.749 6  -8836683.33426
 94  1 30  1 31 59.9980000  0  6 19 27  2 15  7 26
  21719513.014     3690080.054 6   2877610.99326
  19900730.896    -4431664.611 7  -3413274.43729
  20357417.701    -8840384.019 7  -6777081.73629
  23494656.436    -4184216.553 4  -3136007.15224
  20600447.498   -20702795.252 7 -15931193.23429
  22533021.803   -11656726.067 6  -8901157.04225
 94  1 30  1 32 29.9980000  0  6 19 27  2 15  7 26
  21728138.334     3735395.931 6   2912922.07126
  19902325.021    -4423284.311 7  -3406744.32329
  20351955.022    -8869097.460 7  -6799455.82929
  23483254.936    -4244114.340 5  -3182680.70624
  20583945.279   -20789511.212 7 -15998764.07229
  22517361.131   -11739039.715 6  -8965297.51626
 94  1 30  1 32 59.9980000  0  6 19 27  2 15  7 26
  21736812.451     3780984.023 6   2948445.26126
  19903996.584    -4414503.810 7  -3399902.35529
  20346521.982    -8897638.538 7  -6821695.61329
  23471936.850    -4303592.299 5  -3229027.14024
  20567524.029   -20875795.747 7 -16065998.74429
  22501776.467   -11820932.836 6  -9029110.28925
 94  1 30  1 33 29.9980000  0  6 19 27  2 15  7 26
  21745538.592     3826837.139 6   2984174.95326
  19905741.975    -4405337.008 7  -3392759.38929
  20341124.428    -8925997.001 7  -6843793.10529
  23460704.006    -4362649.338 5  -3275045.57623
  20551189.701   -20961631.952 7 -16132884.06829
  22486274.045   -11902399.155 6  -9092590.50826
 94  1 30  1 33 59.9980000  0  6 19 27  2 15  7 26
  21754314.764     3872962.710 6   3020116.94826
  19907563.740    -4395766.385 7  -3385301.76929
  20335768.678    -8954153.540 7  -6865733.27129
  23449538.186    -4421274.072 5  -3320727.15824
  20534949.936   -21046986.811 7 -16199394.31629
  22470853.709   -11983427.703 6  -9155729.59926
 94  1 30  1 34 29.9980000  0  6 19 27  2 15  7 26
  21763147.107     3919370.833 6   3056279.13426
  19909463.428    -4385782.876 7  -3377522.39729
  20330449.897    -8982094.209 7  -6887505.20529
  23438468.451    -4479467.421 5  -3366072.57423
  20518796.357   -21131864.152 7 -16265532.46429
  22455519.381   -12064004.521 6  -9218516.67826
 94  1 30  1 34 59.9980000  0  6 19 27  2 15  7 26
  21772030.201     3966057.323 6   3092658.22026
  19911441.326    -4375386.996 7  -3369421.70329
  20325173.053    -9009817.950 7  -6909108.10929
  23427477.975    -4537236.792 5  -3411087.64423
  20502732.006   -21216279.816 7 -16331310.86629
  22440270.365   -12144137.400 6  -9280957.84926
 94  1 30  1 35 29.9980000  0  6 19 27  2 15  7 26
  21780968.928     4013022.984 6   3129254.83026
  19913500.279    -4364573.399 7  -3360995.52729
  20319938.717    -9037334.607 7  -6930549.65629
  23416566.561    -4594576.358 5  -3455767.77024
  20486753.631   -21300254.004 7 -16396745.26729
  22425112.521   -12223810.883 6  -9343041.05126
 94  1 30  1 35 59.9980000  0  6 19 27  2 15  7 26
  21789959.139     4060276.622 6   3166075.83726
  19915639.014    -4353329.088 7  -3352233.72328
  20314740.053    -9064649.133 7  -6951833.69129
  23405736.217    -4651475.445 5  -3500104.69424
  20470854.373   -21383801.325 7 -16461847.04029
  22410039.717   -12303018.105 6  -9404760.93226
 94  1 30  1 36 29.9980000  0  6 19 27  2 15  7 26
  21799004.287     4107807.566 6   3203112.93526
  19917857.826    -4341670.546 7  -3343149.13328
  20309578.154    -9091774.456 7  -6972970.28329
  23394993.232    -4707937.363 5  -3544100.95624
  20455033.318   -21466945.271 7 -16526634.49629
  22395048.201   -12381782.303 6  -9466135.59326
 94  1 30  1 36 59.9980000  0  6 19 27  2 15  7 26
  21808097.811     4155593.250 6   3240348.52826
  19920154.428    -4329593.216 7  -3333738.22729
  20304453.053    -9118716.868 7  -6993964.35929
  23384332.373    -4763958.045 5  -3587753.41624
  20439290.514   -21549671.750 7 -16591096.66229
  22380143.115   -12460108.197 6  -9527168.72726
 94  1 30  1 37 29.9980000  0  6 19 27  2 15  7 26
  21817237.639     4203619.128 6   3277771.28926
  19922530.490    -4317106.837 7  -3324008.58529
  20299354.865    -9145494.144 7  -7014829.76629
  23373757.787    -4819539.781 5  -3631063.81825
  20423630.865   -21631965.994 7 -16655222.01229
  22365320.990   -12538003.346 6  -9587866.22526
 94  1 30  1 37 59.9980000  0  6 19 27  2 15  7 26
  21826423.178     4251890.856 6   3315385.62126
  19924983.514    -4304216.030 7  -3313963.80429
  20294292.873    -9172106.199 7  -7035566.41529
  23363269.904    -4874679.583 5  -3674029.85724
  20408055.826   -21713807.731 7 -16718994.75929
  22350579.357   -12615471.162 6  -9648230.72026
 94  1 30  1 38 29.9980000  0  6 19 27  2 15  7 26
  21835652.943     4300399.943 6   3353184.90126
  19927512.436    -4290925.500 7  -3303607.54129
  20289260.717    -9198550.860 7  -7056172.63229
  23352851.850    -4929377.744 5  -3716651.78224
  20392572.779   -21795173.916 7 -16782396.95529
  22335920.357   -12692506.367 6  -9708258.12926
 94  1 30  1 39 29.9970000  0  6 19 27  2 15  7 26
  21854255.884     4398172.159 6   3429371.03526
  19932803.673    -4263125.316 7  -3281945.06529
  20279292.704    -9250934.079 7  -7096990.71629
  23332290.673    -5037429.823 5  -3800848.12524
  20361878.001   -21956474.041 7 -16908085.29329
  22306860.321   -12845212.962 6  -9827250.22126
 94  1 30  1 39 59.9970000  0  6 19 27  2 15  7 26
  21863644.860     4447489.282 6   3467799.94726
  19935564.829    -4248613.321 7  -3270637.03029
  20274359.767    -9276858.615 7  -7117191.64429
  23322141.798    -5090775.447 5  -3842416.12324
  20346662.735   -22036438.473 7 -16970395.22229
  22292461.681   -12920881.794 6  -9886212.93426
 94  1 30  1 40 29.9970000  0  6 19 27  2 15  7 26
  21873083.095     4497098.984 6   3506456.86026
  19938407.954    -4233681.211 7  -3259001.62229
  20269460.743    -9302597.656 7  -7137248.01229
  23312074.540    -5143667.888 5  -3883630.98024
  20331531.071   -22115956.520 7 -17032357.29729
  22278149.743   -12996100.844 6  -9944825.15926
 94  1 30  1 40 59.9970000  0  6 19 27  2 15  7 26
  21882581.735     4547009.981 6   3545348.54026
  19941329.071    -4218324.876 7  -3247035.65229
  20264597.892    -9328150.319 7  -7157159.15929
  23302097.689    -5196104.130 5  -3924490.37024
  20316481.704   -22195034.077 7 -17093976.14029
  22263920.931   -13070867.779 6 -10003085.08226
 94  1 30  1 41 29.9970000  0  6 19 27  2 15  7 26
  21892136.243     4597224.274 6   3584476.55726
  19944334.134    -4202536.441 7  -3234732.97529
  20259771.993    -9353519.310 7  -7176927.19129
  23292206.728    -5248077.568 5  -3964989.12224
  20301521.423   -22273656.582 7 -17155240.40729
  22249783.446   -13145171.701 6 -10060984.21626
 94  1 30  1 41 59.9970000  0  6 19 27  2 15  7 26
  21901747.571     4647732.639 6   3623833.71626
  19947424.259    -4186297.215 7  -3222079.04529
  20254980.368    -9378700.112 7  -7196548.58129
  23282404.923    -5299585.092 5  -4005124.82324
  20286647.665   -22351817.008 7 -17216144.61029
  22235734.884   -13218995.393 6 -10118509.14726
 94  1 30  1 42 29.9970000  0  6 19 27  2 15  7 26
  21911409.782     4698508.366 6   3663399.20726
  19950600.470    -4169610.142 7  -3209076.14229
  20250224.735    -9403697.040 7  -7216026.70129
  23272692.884    -5350628.330 5  -4044898.74224
  20271862.517   -22429511.316 7 -17276685.59729
  22221777.360   -13292325.838 6 -10175649.72826
 94  1 30  1 42 59.9970000  0  6 19 27  2 15  7 26
  21921124.829     4749548.524 6   3703170.74626
  19953859.353    -4152478.362 7  -3195726.70929
  20245502.306    -9428509.167 7  -7235360.82629
  23263068.501    -5401198.748 5  -4084304.24124
  20257167.462   -22506737.094 7 -17336861.49729
  22207921.860   -13365141.620 6 -10232389.27626
 94  1 30  1 43 29.9970000  0  6 19 27  2 15  7 26
  21930882.251     4800838.293 6   3743136.80026
  19957203.626    -4134909.307 7  -3182036.53529
  20240814.337    -9453137.579 7  -7254551.78229
  23253537.681    -5451302.319 5  -4123345.95524
  20242559.728   -22583507.064 7 -17396682.23129
  22194161.524   -13437452.390 6 -10288735.31226
 94  1 30  1 43 59.9970000  0  7 19 27  2 13 15  7 26
  21940688.649     4852375.226 6   3783295.44626
  19960628.103    -4116907.265 7  -3168008.97329
  20236166.149    -9477563.449 7  -7273584.91729
  24030770.649          -0.34313
  23244095.782    -5500929.448 5  -4162016.40624
  20228038.681   -22659810.600 7 -17456139.50829
  22180497.095   -13509265.909 6 -10344693.87626
 94  1 30  1 44 29.9970000  0  7 19 27  2 13 15  7 26
  21950544.149     4904147.727 6   3823637.65026
  19964131.306    -4098499.800 7  -3153665.49529
  20231554.212    -9501801.748 7  -7292471.88629
  24003518.376     -143211.871 3
  23234733.556    -5550085.256 5  -4200319.60824
  20213606.064   -22735644.705 7 -17515230.98829
  22166920.814   -13580610.326 6 -10400286.90126
 94  1 30  1 44 59.9970000  0  7 19 27  2 13 15  7 26
  21960436.407     4956158.796 6   3864165.74626
  19967708.978    -4079702.262 7  -3139018.06629
  20226972.595    -9525872.522 7  -7311228.31429
  23976271.470     -286391.379 3
  23225471.688    -5598772.581 5  -4238257.76525
  20199263.353   -22811018.371 7 -17573963.70029
  22153431.735   -13651501.806 6 -10455527.00626
 94  1 30  1 45 29.9970000  0  7 19 27  2 13 15  7 26
  21970385.517     5008415.706 6   3904885.40726
  19971361.517    -4060506.247 7  -3124060.13129
  20222425.407    -9549767.099 7  -7329847.45229
  23949030.517     -429534.418 3        -0.11531
  23216299.712    -5646987.370 5  -4275827.68924
  20185009.157   -22885926.256 7 -17632333.45829
  22140026.017   -13721949.357 6 -10510421.17026
 94  1 30  1 45 59.9970000  0  7 19 27  2 13 15  7 26
  21980376.946     5060941.460 6   3945814.56626
  19975090.384    -4040917.540 7  -3108796.21429
  20217910.165    -9573498.231 7  -7348339.23629
  23921796.853     -572637.004 3   -111508.41021
  23207216.267    -5694727.086 5  -4313027.45425
  20170844.392   -22960360.432 7 -17690334.08629
  22126700.938   -13791954.170 6 -10564970.34926
 94  1 30  1 46 29.9970000  0  7 19 27  2 13 15  7 26
  21990430.853     5113764.154 6   3986975.10626
  19978894.024    -4020916.747 7  -3093211.17329
  20213429.618    -9597050.498 7  -7366691.64929
  23894575.634     -715684.922 3   -222974.19622
  23198225.548    -5741978.763 5  -4349846.91323
  20156768.228   -23034334.035 7 -17747975.83329
  22113467.790   -13861497.550 6 -10619159.97126
 94  1 30  1 46 59.9970000  0  7 19 27  2 13 15  7 26
  22000539.290     5166879.221 6   4028363.46426
  19982779.196    -4000505.576 7  -3077306.37229
  20208981.509    -9620417.392 7  -7384899.60729
  23867371.860     -858682.192 4   -334400.46521
  23189322.337    -5788747.548 5  -4386290.10424
  20142778.595   -23107858.696 7 -17805267.75529
  22100324.728   -13930570.190 6 -10672982.78426
 94  1 30  1 47 29.9970000  0  7 19 27  2 13 15  7 26
  22010701.274     5220289.226 6   4069981.64326
  19986742.235    -3979676.983 7  -3061076.30629
  20204574.681    -9643581.050 7  -7402949.20529
  23840165.071    -1001626.229 4
  23180516.189    -5835032.383 5  -4422356.18324
  20128873.938   -23180919.546 7 -17862198.26629
  22087271.759   -13999168.659 6 -10726436.11626
 94  1 30  1 47 59.9970000  0  7 19 27  2 13 15  7 26
  22020921.118     5273985.101 6   4111822.57926
  19990785.970    -3958434.129 7  -3044523.43129
  20200202.579    -9666551.362 7  -7420848.13829
  23812974.235    -1144512.144 4
  23171800.595    -5880829.551 5  -4458042.27124
  20115062.407   -23253507.085 7 -17918759.96429
  22074311.314   -14067275.094 6 -10779506.04026
 94  1 30  1 48 29.9970000  0  7 19 27  2 13 15  7 26
  22031187.923     5327937.168 6   4153863.13726
  19994910.259    -3936761.612 7  -3027635.75429
  20195870.157    -9689315.310 7  -7438586.27529
  23785798.587    -1287335.694 4        -0.19831
  23163172.009    -5926135.709 5  -4493345.75325
  20101340.243   -23325612.319 7 -17974945.82829
  22061448.228   -14134866.606 6 -10832174.72526
 94  1 30  1 48 59.9970000  0  7 19 27  2 13 15  7 26
  22041503.259     5382145.718 5   4196103.55726
  19999118.853    -3914643.704 7  -3010401.02129
  20191576.626    -9711880.161 7  -7456169.25729
  23758635.993    -1430085.549 5   -111233.68121
  23154652.423    -5970940.983 5  -4528258.95625
  20087716.579   -23397200.188 7 -18030728.55929
  22048687.759   -14201925.718 6 -10884428.54426
 94  1 30  1 49 29.9970000  0  7 19 27  2 13 15  7 26
  22051866.813     5436596.465 6   4238532.70326
  20003410.478    -3892086.258 7  -2992823.79529
  20187316.165    -9734272.074 7  -7473617.50029
  23731482.165    -1572772.827 4   -222418.41221
  23146219.064    -6015257.942 5  -4562791.63125
  20074190.189   -23468290.177 7 -18086123.32529
  22036024.665   -14268468.108 6 -10936279.73626
 94  1 30  1 49 59.9970000  0  7 19 27  2 13 15  7 26
  22062271.774     5491291.268 6   4281152.03426
  20007787.274    -3869087.895 7  -2974902.98229
  20183089.220    -9756491.438 7  -7490931.27829
  23704342.595    -1715391.582 5   -333549.74021
  23137877.103    -6059081.749 5  -4596940.03724
  20060753.157   -23538894.171 7 -18141139.39929
  22023461.603   -14334489.724 6 -10987725.12926
 94  1 30  1 50 29.9970000  0  7 19 27  2 13 15  7 26
  22072727.962     5546239.459 6   4323968.79526
  20012247.353    -3845648.932 7  -2956638.85629
  20178893.446    -9778532.912 7  -7508106.44129
  23677211.868    -1857941.200 4   -444627.22721
  23129633.446    -6102413.152 5  -4630704.73424
  20047408.665   -23609019.848 7 -18195782.75829
  22010994.720   -14400005.683 6 -11038776.51126
 94  1 30  1 50 59.9970000  0  7 19 27  2 13 15  7 26
  22083234.470     5601452.576 6   4366991.99626
  20016788.860    -3821780.771 7  -2938040.29029
  20174730.181    -9800405.183 7  -7525149.76529
  23650100.181    -2000414.358 4   -555645.07321
  23121480.196    -6145246.719 5  -4664081.53525
  20034154.345   -23678670.455 7 -18250055.92729
  21998620.423   -14465033.032 6 -11089447.15326
 94  1 30  1 51 29.9970000  0  7 19 27  2 13 15  7 26
  22093790.243     5656925.619 6   4410217.73125
  20021408.173    -3797501.380 7  -2919121.28728
  20170602.298    -9822105.163 7  -7542058.81929
  23623007.579    -2142813.462 5   -666605.24722
  23113425.345    -6187585.644 5  -4697072.88525
  20020989.532   -23747855.959 7 -18303966.69129
  21986337.228   -14529582.764 6 -11139745.62526
 94  1 30  1 51 59.9970000  0  7 19 27  2 13 15  7 26
  22104397.821     5712662.849 6   4453649.33525
  20026106.657    -3772813.736 7  -2899884.15528
  20166504.478    -9843639.626 7  -7558838.92229
  23595921.384    -2285135.282 4   -777505.19322
  23105462.665    -6229428.709 5  -4729677.85125
  20007915.118   -23816558.821 7 -18357501.36329
  21974144.438   -14593651.123 6 -11189669.00526
 94  1 30  1 52 29.9970000  0  7 19 27  2 13 15  7 26
  22115053.806     5768667.580 6   4497289.38425
  20030884.345    -3747713.143 7  -2880325.25628
  20162434.806    -9865020.812 7  -7575499.57929
  23568858.235    -2427372.929 5   -888339.54821
  23097595.040    -6270769.951 5  -4761891.77125
  19994936.970   -23884761.337 7 -18410646.15729
  21962043.853   -14657241.636 6 -11239220.03526
 94  1 30  1 52 59.9970000  0  7 19 27  2 13 15  7 26
  22125765.290     5824942.611 6   4541140.04325
  20035739.938    -3722198.047 7  -2860443.36428
  20158395.157    -9886252.706 7  -7592043.89429
  23541802.813    -2569525.821 4   -999107.82322
  23089824.321    -6311610.732 5  -4793715.73425
  19982053.532   -23952471.022 7 -18463406.91729
  21950034.220   -14720351.269 6 -11288396.35426
 94  1 30  1 53 29.9970000  0  7 19 27  2 13 15  7 26
  22136527.243     5881495.907 6   4585207.55025
  20040674.923    -3696265.725 7  -2840236.35728
  20154384.642    -9907328.062 7  -7608466.25529
  23514771.868    -2711592.466 5  -1109808.93121
  23082147.907    -6351951.031 5  -4825149.71725
  19969261.329   -24019686.326 7 -18515782.45229
  21938119.149   -14782969.343 6 -11337189.65026
 94  1 30  1 53 59.9970000  0  7 19 27  2 13 15  7 26
  22147341.282     5938329.308 6   4629493.31025
  20045690.259    -3669902.483 7  -2819693.57328
  20150406.071    -9928239.375 7  -7624760.77529
  23487752.071    -2853560.252 4  -1220432.99921
  23074568.282    -6391779.214 5  -4856184.64225
  19956564.259   -24086411.240 7 -18567775.86729
  21926299.290   -14845079.418 6 -11385587.09726
 94  1 30  1 54 29.9970000  0  7 19 27  2 13 15  7 26
  22158206.931     5995425.641 6   4673983.95925
  20050787.751    -3643118.747 7  -2798823.12828
  20146461.189    -9948967.904 7  -7640912.86429
  23460758.071    -2995430.664 4  -1330981.18421
  23067090.431    -6431098.683 5  -4886823.16325
  19943955.212   -24152669.302 7 -18619405.49829
  21914576.423   -14906689.675 6 -11433595.08626
 94  1 30  1 54 59.9970000  0  7 19 27  2 13 15  7 26
  22169122.009     6052775.491 5   4718672.14525
  20055964.634    -3615913.845 7  -2777624.50828
  20142552.446    -9969507.042 7  -7656917.37129
  23433779.188    -3137202.762 4  -1441452.76721
  23059703.610    -6469909.904 5  -4917065.66025
  19931433.774   -24218472.178 7 -18670680.44629
  21902948.548   -14967787.474 6 -11481203.73426
 94  1 30  1 55 29.9970000  0  7 19 27  2 13 15  7 26
  22180077.954     6110355.504 5   4763539.68525
  20061219.376    -3588293.594 7  -2756102.23528
  20138678.720    -9989861.173 7  -7672777.72429
  23406820.954    -3278875.142 5  -1551846.69422
  23052410.720    -6508213.152 5  -4946912.32225
  19919000.392   -24283814.349 7 -18721596.40029
  21891420.712   -15028364.357 6 -11528406.49626
 94  1 30  1 55 59.9970000  0  7 19 27  2 13 15  7 26
  22191077.212     6168169.828 5   4808589.80625
  20066560.688    -3560238.457 7  -2734241.10028
  20134840.931   -10010026.932 7  -7688491.29029
  23379884.790    -3420437.546 4  -1662154.91021
  23045221.853    -6545999.846 5  -4976356.46524
  19906658.149   -24348681.189 7 -18772141.96229
  21879993.681   -15088414.247 6 -11575198.61126
 94  1 30  1 56 29.9970000  0  7 19 27  2 13 15  7 26
  22202124.212     6226222.410 5   4853825.57026
  20071980.751    -3531748.392 7  -2712041.05628
  20131037.149   -10030020.818 7  -7704070.93229
  23352961.126    -3561888.608 5  -1772376.35521
  23038128.954    -6583270.049 5  -5005398.17325
  19894406.665   -24413051.518 7 -18822300.64029
  21868665.532   -15147946.476 6 -11621587.36126
 94  1 30  1 56 59.9970000  0  7 19 27  2 13 15  7 26
  22213219.915     6284524.728 5   4899255.93925
  20077485.767    -3502822.528 7  -2689501.42428
  20127261.610   -10049863.403 7  -7719532.68129
  23326066.454    -3703225.708 5  -1882509.05722
  23031141.493    -6620022.847 5  -5034036.69025
  19882252.892   -24476915.167 7 -18872064.50029
  21857439.876   -15206946.509 6 -11667561.39426
 94  1 30  1 57 29.9970000  0  7 19 27  2 13 15  7 26
  22224364.142     6343087.348 5   4944889.14225
  20083069.189    -3473476.142 7  -2666634.11628
  20123515.446   -10069549.614 7  -7734872.57929
  23299192.829    -3844449.225 5  -1992553.25021
  23024235.524    -6656260.268 5  -5062273.62924
  19870197.298   -24540268.406 7 -18921430.64029
  21846311.735   -15265426.535 6 -11713130.23926
 94  1 30  1 57 59.9970000  0  7 19 27  2 13 15  7 26
  22235560.774     6401922.753 5   4990734.90125
  20088736.353    -3443702.035 7  -2643433.52528
  20119799.563   -10089078.144 7  -7750089.60429
  23272346.063    -3985550.019 5  -2102501.78522
  23017442.532    -6691974.869 5  -5090103.17724
  19858240.743   -24603104.313 7 -18970393.66529
  21835278.329   -15323398.952 6 -11758303.53626
 94  1 30  1 58 29.9970000  0  7 19 27  2 13 15  7 26
  22246805.384     6461020.084 5   5036784.76325
  20094481.251    -3413511.855 7  -2619908.71428
  20116112.540   -10108445.819 7  -7765181.28829
  23245511.876    -4126524.347 5  -2212351.81122
  23010744.103    -6727165.183 5  -5117524.17825
  19846381.095   -24665431.274 7 -19018960.10629
  21824345.040   -15380861.842 6 -11803079.81026
 94  1 30  1 58 59.9970000  0  7 19 27  2 13 15  7 26
  22258100.634     6520371.523 5   5083032.62825
  20100303.806    -3382911.900 7  -2596064.59828
  20112461.017   -10127639.799 7  -7780137.62129
  23218711.571    -4267375.728 5  -2322106.03123
  23004147.032    -6761836.233 5  -5144540.55825
  19834614.610   -24727264.087 7 -19067141.50229
  21813503.298   -15437813.335 6 -11847457.59026
 94  1 30  1 59 29.9970000  0  7 19 27  2 13 15  7 26
  22269438.860     6579962.662 5   5129467.26125
  20106205.595    -3351901.438 7  -2571900.60929
  20108842.204   -10146654.523 7  -7794954.28129
  23191932.657    -4408104.625 5  -2431764.84021
  22997649.681    -6795989.955 5  -5171153.82824
  19822941.704   -24788608.214 7 -19114942.09229
  21802761.142   -15494278.135 6 -11891456.12726
 94  1 30  1 59 59.9970000  0  7 19 27  2 13 15  7 26
  22280825.509     6639777.134 5   5176075.93325
  20112184.118    -3320469.780 7  -2547408.41329
  20105254.438   -10165500.909 7  -7809639.76329
  23165177.220    -4548703.923 5  -2541322.63422
  22991246.040    -6829621.099 5  -5197359.90224
  19811361.321   -24849455.553 7 -19162355.58329
  21792114.017   -15550237.234 6 -11935060.61326
 94  1 30  2  0 29.9970000  0  7 19 27  2 13 15  7 26
  22292250.071     6699839.901 5   5222878.08325
  20118245.579    -3288626.377 7  -2522595.37029
  20101704.814   -10184157.895 7  -7824177.66329
  23138447.970    -4689165.321 5  -2650772.98222
  22984952.493    -6862723.371 5  -5223153.85724
  19799879.149   -24909798.197 7 -19209375.80529
  21781567.001   -15605668.245 6 -11978253.59626
 94  1 30  2  0 59.9970000  0  7 19 27  2 13 15  7 26
  22303722.267     6760145.484 5   5269869.44325
  20124380.814    -3256386.750 7  -2497473.58829
  20098190.243   -10202630.278 7  -7838571.71329
  23111745.165    -4829493.777 5  -2760119.70722
  22978752.087    -6895303.470 5  -5248540.91523
  19788491.368   -24969646.854 7 -19256011.10329
  21771114.673   -15660581.716 6 -12021043.29426
 94  1 30  2  1 29.9970000  0  7 19 27  2 13 15  7 26
  22315250.368     6820697.667 5   5317052.94325
  20130591.704    -3223747.250 7  -2472040.22129
  20094710.860   -10220911.130 7  -7852816.52329
  23085071.181    -4969677.780 5  -2869353.89521
  22972652.884    -6927351.958 5  -5273513.74025
  19777196.298   -25028993.683 7 -19302255.36629
  21760765.064   -15714969.981 6 -12063423.74926
 94  1 30  2  1 59.9970000  0  7 19 27  2 13 15  7 26
  22326815.626     6881488.621 5   5364422.52025
  20136877.087    -3190719.379 7  -2446304.22029
  20091267.634   -10239010.254 7  -7866919.72529
  23058416.649    -5109726.581 5  -2978482.69322
  22966648.524    -6958880.168 5  -5298081.16624
  19765995.399   -25087857.875 7 -19348123.54729
  21750513.110   -15768832.210 6 -12105394.31226
 94  1 30  2  2 29.9970000  0  7 19 27  2 13 15  7 26
  22338433.087     6942536.714 5   5411992.44225
  20143240.134    -3157280.977 7  -2420248.32229
  20087861.860   -10256909.077 7  -7880866.84229
  23031798.821    -5249625.039 5  -3087494.38121
  22960753.337    -6989874.330 5  -5322232.44324
  19754884.548   -25146234.697 7 -19393611.96129
  21740366.845   -15822167.673 6 -12146954.39226
 94  1 30  2  2 59.9970000  0  7 19 27  2 13 15  7 26
  22350096.462     7003810.579 5   5459738.30525
  20149685.626    -3123407.601 7  -2393853.48828
  20084488.665   -10274632.187 7  -7894677.04729
  23005203.337    -5389375.039 5  -3196390.36921
  22954957.681    -7020338.632 5  -5345970.82224
  19743867.110   -25204133.332 7 -19438727.75829
  21730317.079   -15874985.030 6 -12188110.75026
 94  1 30  2  3 29.9970000  0  7 19 27  2 13 15  7 26
  22361801.110     7065319.148 5   5507667.04325
  20156215.634    -3089088.241 7  -2367111.13528
  20081148.931   -10292185.682 7  -7908355.08329
  22978639.478    -5528974.655 5  -3305169.14022
  22949264.782    -7050272.880 5  -5369296.19224
  19732942.642   -25261549.183 7 -19483467.36329
  21720360.493   -15927281.333 6 -12228861.10426
 94  1 30  2  3 59.9970000  0  7 19 27  2 13 15  7 26
  22373549.548     7127070.454 5   5555784.93525
  20162835.235    -3054311.843 7  -2340012.63928
  20077836.314   -10309580.979 7  -7921909.84729
  22952099.579    -5668416.342 5  -3413824.90022
  22943667.540    -7079671.217 5  -5392203.97125
  19722112.173   -25318463.771 7 -19527816.36929
  21710512.376   -15979055.305 6 -12269204.44726
 94  1 30  2  4 29.9970000  0  7 19 27  2 13 15  7 26
  22385345.798     7189055.510 5   5604084.97625
  20169535.712    -3019093.899 7  -2312570.09328
  20074556.165   -10326832.029 7  -7935352.21229
  22925599.188    -5807700.711 5  -3522358.04222
  22938168.181    -7108536.793 5  -5414696.59625
  19711376.829   -25374867.177 7 -19571767.05629
  21700757.587   -16030315.157 6 -12309147.17926
 94  1 30  2  4 59.9970000  0  7 19 27  2 13 15  7 26
  22397186.939     7251279.147 5   5652570.91125
  20176318.415    -2983450.765 7  -2284796.22528
  20071301.376   -10343927.594 7  -7948673.41629
  22899126.173    -5946823.105 5  -3630764.99822
  22932786.860    -7136866.937 5  -5436772.01624
  19700742.188   -25430762.599 7 -19615321.90729
  21691100.337   -16081058.144 6 -12348687.15126
 94  1 30  2  5 29.9970000  0  7 19 27  2 13 15  7 26
  22409073.306     7313751.110 5   5701250.35025
  20183178.860    -2947398.602 7  -2256703.63628
  20068080.290   -10360864.303 7  -7961870.83529
  22872679.962    -6085776.192 5  -3739040.02022
  22927492.665    -7164656.339 5  -5458426.06725
  19690202.306   -25486145.474 7 -19658477.37329
  21681545.579   -16131278.647 6 -12387819.99326
 94  1 30  2  5 59.9970000  0  7 19 27  2 13 15  7 26
  22421004.259     7376445.420 5   5750103.06025
  20190113.556    -2910952.892 7  -2228304.39028
  20064887.329   -10377645.023 7  -7974946.71129
  22846272.798    -6224561.446 5  -3847184.26422
  22922305.978    -7191908.497 5  -5479661.48625
  19679760.610   -25541021.178 7 -19701237.64629
  21672085.689   -16180978.077 6 -12426546.81026
 94  1 30  2  6 29.9970000  0  7 19 27  2 13 15  7 26
  22432974.290     7439354.970 5   5799123.47425
  20197124.009    -2874118.983 7  -2199602.65128
  20061724.782   -10394250.189 7  -7987885.78729
  22819888.579    -6363176.058 5  -3955195.52922
  22917216.610    -7218622.476 5  -5500477.54425
  19669411.024   -25595415.058 7 -19743622.46829
  21662732.149   -16230138.089 6 -12464853.29626
 94  1 30  2  6 59.9970000  0  7 19 27  2 13 15  7 26
  22444994.743     7502496.145 5   5848324.37725
  20204207.696    -2836886.807 7  -2170590.57728
  20058601.017   -10410677.752 7  -8000686.47529
  22793554.813    -6501614.207 5  -4063069.33122
  22912240.228    -7244794.749 5  -5520871.50624
  19659150.454   -25649322.747 7 -19785628.44229
  21653483.454   -16278747.006 6 -12502730.36226
 94  1 30  2  7 29.9970000  0  7 19 27  2 13 15  7 26
  22457051.595     7565862.884 5   5897701.04625
  20211370.064    -2799251.540 7  -2141264.39928
  20055507.157   -10426940.082 7  -8013358.40829
  22767238.876    -6639869.335 5  -4170800.49422
  22907361.759    -7270420.750 5  -5540839.77825
  19648989.806   -25702723.322 7 -19827239.25729
  21644334.821   -16326798.174 6 -12540172.82026
 94  1 30  2  7 59.9970000  0  7 19 27  2 13 15  7 26
  22469152.743     7629455.241 5   5947253.53425
  20218609.767    -2761211.434 7  -2111622.76428
  20052444.353   -10443024.379 7  -8025891.61829
  22740968.548    -6777941.720 5  -4278389.25722
  22902594.782    -7295503.193 5  -5560384.52624
  19638922.571   -25755614.237 7 -19868452.93729
  21635301.821   -16374297.010 6 -12577184.87626
 94  1 30  2  8 29.9970000  0  7 19 27  2 13 15  7 26
  22481300.923     7693296.176 5   5996999.71225
  20225925.798    -2722761.587 7  -2081661.85228
  20049413.462   -10458941.822 7  -8038294.81129
  22714726.415    -6915829.303 5  -4385834.05822
  22897920.142    -7320042.348 5  -5579505.91625
  19628959.353   -25807992.107 7 -19909266.84429
  21626361.478   -16421258.948 6 -12613778.58826
 94  1 30  2  8 59.9970000  0  7 19 27  2 13 15  7 26
  22493497.970     7757386.517 5   6046940.23025
  20233321.954    -2683895.515 7  -2051376.60928
  20046417.634   -10474699.459 7  -8050573.47529
  22688519.103    -7053529.776 5  -4493133.02222
  22893356.470    -7344038.083 5  -5598203.86325
  19619088.720   -25859845.447 7 -19949672.03329
  21617525.767   -16467706.144 6 -12649971.18526
 94  1 30  2  9 29.9970000  0  7 19 27  2 13 15  7 26
  22505733.657     7821707.181 5   6097060.20725
  20240799.282    -2644605.266 7  -2020760.83728
  20043451.532   -10490286.283 7  -8062719.04029
  22662357.548    -7191041.633 5  -4600285.04224
  22888895.032    -7367490.808 5  -5616478.68425
  19609320.181   -25911187.632 7 -19989678.90629
  21608781.634   -16513643.092 6 -12685766.19626
 94  1 30  2  9 59.9970000  0  7 19 27  2 13 15  7 26
  22518021.282     7886284.112 5   6147379.88525
  20248358.790    -2604869.632 7  -1989798.00628
  20040519.384   -10505688.390 7  -8074720.66929
  22636228.446    -7328353.147 5  -4707280.92024
  22884535.806    -7390391.042 5  -5634323.00324
  19599644.618   -25962019.492 7 -20029288.12429
  21600139.462   -16559062.581 6 -12721157.98926
 94  1 30  2 10 29.9970000  0  7 19 27  2 13 15  7 26
  22530358.837     7951106.740 5   6197891.01225
  20256000.735    -2564708.802 6  -1958503.86628
  20037619.907   -10520932.674 7  -8086599.32729
  22610134.392    -7465473.697 5  -4814128.01024
  22880283.985    -7412750.487 5  -5651745.93125
  19590067.446   -26012358.523 7 -20068513.32929
  21591590.751   -16603972.626 6 -12756152.82126
 94  1 30  2 10 59.9970000  0  7 19 27  2 13 15  7 26
  22542738.704     8016161.643 5   6248583.15625
  20263724.189    -2524123.890 6  -1926879.26128
  20034749.704   -10536010.247 7  -8098348.07929
  22584079.439    -7602398.859 5  -4920822.85723
  22876131.876    -7434567.137 5  -5668745.86225
  19580585.423   -26062198.592 7 -20107349.72729
  21583147.563   -16648353.991 6 -12790735.69126
 94  1 30  2 11 29.9970000  0  7 19 27  2 13 15  7 26
  22555167.110     8081459.119 5   6299464.28225
  20271528.251    -2483115.708 6  -1894924.84228
  20031914.712   -10550920.164 7  -8109966.18729
  22558056.892    -7739116.569 5  -5027356.04023
  22872080.017    -7455831.553 5  -5685315.51324
  19571196.493   -26111519.663 7 -20145781.70829
  21574804.774   -16692187.419 6 -12824891.59726
 94  1 30  2 11 59.9970000  0  7 19 27  2 13 15  7 26
  22567638.462     8147002.158 5   6350536.78325
  20279407.228    -2441709.547 6  -1862660.31528
  20029106.774   -10565670.391 7  -8121459.86029
  22532081.243    -7875627.953 5  -5133728.47524
  22868137.071    -7476546.674 5  -5701457.14725
  19561911.368   -26160316.274 7 -20183805.02229
  21566567.243   -16735476.664 6 -12858623.47126
 94  1 30  2 12 29.9970000  0  7 19 27  2 13 15  7 26
  22580149.392     8212770.022 5   6401784.44525
  20287363.274    -2399917.335 6  -1830094.95328
  20026329.181   -10580255.540 7  -8132824.90329
  22506138.446    -8011932.666 5  -5239939.85424
  22864306.189    -7496714.954 5  -5717172.66525
  19552720.892   -26208592.920 7 -20221423.16529
  21558437.407   -16778216.050 6 -12891926.86726
 94  1 30  2 13 29.9960000  0  7 19 27  2 13 15  7 26
  22605306.848     8344964.458 5   6504793.06325
  20303493.613    -2315141.115 6  -1764035.58028
  20020888.363   -10608853.851 7  -8155109.29029
  22454390.035    -8283893.996 5  -5451857.62622
  22856942.738    -7535395.768 5  -5747313.52024
  19534649.793   -26303575.900 7 -20295435.84629
  21542489.426   -16862023.382 6 -12957231.26626
 94  1 30  2 13 59.9960000  0  7 19 27  2 13 15  7 26
  22617941.848     8411381.458 5   6556546.55125
  20311671.785    -2272163.144 6  -1730546.25928
  20018224.113   -10622855.799 7  -8166019.89329
  22428578.356    -8419548.980 5  -5557562.74324
  22853422.543    -7553907.544 5  -5761738.23723
  19525754.105   -26350321.723 7 -20331861.14429
  21534669.246   -16903106.496 6 -12989244.06826
 94  1 30  2 14 29.9960000  0  7 19 27  2 13 15  7 26
  22630621.754     8478004.876 5   6608460.87724
  20319927.246    -2228781.934 6  -1696742.73728
  20015594.348   -10636667.488 7  -8176782.24429
  22402805.918    -8554983.258 5  -5663095.86523
  22850004.012    -7571867.895 5  -5775733.29224
  19516954.223   -26396580.591 7 -20367907.00029
  21526952.770   -16943653.290 6 -13020838.96526
 94  1 30  2 14 59.9960000  0  7 19 27  2 13 15  7 26
  22643343.324     8544838.206 5   6660538.77625
  20328256.410    -2184998.391 6  -1662625.69428
  20013000.043   -10650301.359 7  -8187406.03829
  22377078.980    -8690192.006 5  -5768453.26324
  22846692.691    -7589274.397 5  -5789296.77725
  19508241.488   -26442358.080 7 -20403577.74829
  21519337.605   -16983675.799 6 -13052025.32126
 94  1 30  2 15 29.9960000  0  7 19 27  2 13 15  7 26
  22656099.496     8611878.443 5   6712777.92923
  20336664.363    -2140818.088 6  -1628199.48828
  20010434.324   -10663783.373 7  -8197911.49129
  22351389.660    -8825170.006 5  -5873630.85024
  22843488.207    -7606124.650 5  -5802426.81725
  19499618.684   -26487662.233 7 -20438879.66429
  21511824.246   -17023174.979 6 -13082803.88026
 94  1 30  2 15 59.9960000  0  7 19 27  2 13 15  7 26
  22668898.793     8679128.571 5   6765180.59824
  20345147.543    -2096236.677 6  -1593460.74228
  20007893.988   -10677139.660 7  -8208318.98629
  22325745.801    -8959922.143 5  -5978632.46523
  22840386.395    -7622425.964 5  -5815129.11025
  19491091.582   -26532477.987 7 -20473801.02229
  21504403.715   -17062153.096 6 -13113176.42626
 94  1 30  2 16 29.9960000  0  7 19 27  2 13 15  7 26
  22681735.262     8746592.745 5   6817750.06824
  20353712.910    -2051231.484 6  -1558391.77028
  20005375.441   -10690361.612 7  -8218621.79229
  22300148.770    -9094438.427 5  -6083450.28523
  22837387.199    -7638170.846 5  -5827397.82724
  19482661.816   -26576787.357 7 -20508327.77829
  21497092.152   -17100585.053 6 -13143123.39026
 94  1 30  2 16 59.9960000  0  7 19 27  2 13 15  7 26
  22694610.473     8814259.133 5   6870477.12023
  20362357.340    -2005803.513 6  -1522993.35227
  20002887.473   -10703441.072 7  -8228813.55929
  22274593.168    -9228715.451 5  -6188081.67424
  22834493.418    -7653358.228 5  -5839232.11825
  19474328.379   -26620583.201 7 -20542454.38629
  21489882.020   -17138459.422 6 -13172635.87026
 94  1 30  2 17 29.9960000  0  7 19 27  2 13 15  7 26
  22707525.902     8882128.409 5   6923362.25624
  20371083.066    -1959951.153 6  -1487264.26027
  20000431.074   -10716357.125 7  -8238878.01429
  22249088.129    -9362752.184 5  -6292525.83224
  22831716.145    -7667989.512 5  -5850633.09523
  19466093.543   -26663840.964 7 -20576161.72229
  21482781.957   -17175773.286 6 -13201711.60826
 94  1 30  2 17 59.9960000  0  7 19 27  2 13 15  7 26
  22720483.543     8950210.798 5   6976413.44923
  20379890.559    -1913669.799 6  -1451200.87528
  19998007.535   -10729087.516 7  -8248797.78729
  22223630.012    -9496547.544 5  -6396781.88823
  22829038.699    -7682066.424 5  -5861602.05924
  19457969.066   -26706555.614 7 -20609445.84129
  21475784.941   -17212539.019 6 -13230360.21526
 94  1 30  2 18 29.9960000  0  7 19 27  2 13 15  7 26
  22733478.160     9018501.973 5   7029627.35324
  20388775.981    -1866984.452 6  -1414822.69728
  19995620.340   -10741634.927 7  -8258574.98029
  22198220.551    -9630104.771 5  -6500852.39823
  22826458.895    -7695595.011 5  -5872143.79225
  19449934.395   -26748753.061 7 -20642326.94129
  21468896.098   -17248768.858 6 -13258591.23826
 94  1 30  2 18 59.9960000  0  7 19 27  2 13 15  7 26
  22746515.004     9087028.018 5   7083024.26324
  20397732.840    -1819900.236 6  -1378133.71027
  19993268.574   -10753987.723 7  -8268200.52829
  22172850.324    -9763408.854 5  -6604725.67124
  22823989.512    -7708563.037 5  -5882248.72423
  19442003.176   -26790424.558 7 -20674798.21929
  21462100.668   -17284468.192 6 -13286408.88326
 94  1 30  2 19 29.9960000  0  7 19 27  2 13 15  7 26
  22759605.246     9155790.231 5   7136605.18224
  20406766.957    -1772434.708 6  -1341147.59727
  19990948.965   -10766176.951 7
  22147526.613    -9896469.412 5  -6708409.16623
  22821627.363    -7720982.572 5
  19434169.918   -26831600.255 7 -20706883.15829
  21455406.574   -17319649.526 6 -13313822.90126
 94  1 30  2 19 59.9960000  0  7 19 27  2 13 15  7 26
  22772736.809     9224799.516 4   7190378.64624
  20415873.020    -1724580.585 6  -1303858.68127
  19988657.051   -10778223.438 7  -8287085.47229
  22122256.481   -10029275.391 5  -6811894.30425
  22819377.637    -7732845.178 5
  19426424.856   -26872301.235 7 -20738598.18829
  21448810.629   -17354302.202 6 -13340824.96826
 94  1 30  2 20 29.9960000  0  7 19 27  2 13 15  7 26
  22785910.973     9294041.403 5   7244333.34823
  20425050.191    -1676350.698 6  -1266276.96027
  19986390.559   -10790130.891 7  -8296363.98529
  22097037.426   -10161821.500 6  -6915176.93424
  22817211.590    -7744148.599 5        -0.14034
  19418771.691   -26912523.962 7 -20769940.54929
  21442317.832   -17388415.407 6 -13367406.66826
 94  1 30  2 20 59.9960000  0  7 19 27  2 13 15  7 26
  22799127.480     9363498.821 4   7298456.00123
  20434301.309    -1627741.841 6  -1228399.94927
  19984153.973   -10801891.132 7  -8305527.80029
  22071857.059   -10294106.832 6  -7018256.39325
  22815175.660    -7754894.788 5     -8373.79024
  19411206.949   -26952261.833 7 -20800905.10929
  21435929.504   -17421983.739 6 -13393563.79626
 94  1 30  2 21 29.9960000  0  7 19 27  2 13 15  7 26
  22812387.254     9433161.995 4   7352738.97923
  20443624.527    -1578742.132 6  -1190218.36827
  19981943.574   -10813502.805 7  -8314575.84829
  22046736.723   -10426126.180 6  -7121128.56524
  22813241.613    -7765080.364 5    -16310.58225
  19403738.246   -26991512.408 7 -20831489.94329
  21429652.152   -17454986.350 6 -13419280.09826
 94  1 30  2 21 59.9960000  0  7 19 27  2 13 15  7 26
  22825680.434     9503023.077 4   7407176.16225
  20453023.223    -1529353.220 6  -1151733.51627
  19979764.379   -10824947.881 7  -8323494.08029
  22021664.949   -10557877.578 6  -7223791.95825
  22811403.066    -7774706.627 5    -23811.54924
  19396365.512   -27030266.192 7 -20861687.68929
  21423479.160   -17487428.377 6 -13444559.60026
 94  1 30  2 22 29.9960000  0  7 19 27  2 13 15  7 26
  22839004.270     9573063.746 4   7461753.30825
  20462495.066    -1479576.287 6  -1112946.29927
  19977623.856   -10836210.994 7  -8332270.51429
  21996646.340   -10689360.860 6  -7326246.43125
  22809677.856    -7783776.072 5    -30878.63625
  19389084.535   -27068515.245 7 -20891492.12929
  21417411.215   -17519313.944 6 -13469405.48426
 94  1 30  2 22 59.9960000  0  7 19 27  2 13 15  7 26
  22852373.457     9643293.039 4   7516477.41324
  20472045.645    -1429390.110 6  -1073840.20327
  19975513.316   -10847296.518 7  -8340908.56929
  21971676.715   -10820575.044 6  -7428491.20025
  22808054.981    -7792290.785 5    -37513.43024
  19381904.840   -27106266.834 7 -20920908.92428
  21411443.426   -17550651.456 6 -13493824.29826
 94  1 30  2 23 29.9960000  0  7 19 27  2 13 15  7 26
  22865771.590     9713718.743 4   7571354.56524
  20481675.856    -1378785.224 6  -1034407.83827
  19973437.754   -10858201.410 7  -8349405.88829
  21946761.902   -10951511.424 6  -7530519.51025
  22806544.230    -7800244.828 5    -43711.38225
  19374816.473   -27143521.657 7 -20949938.65329
  21405583.082   -17581455.586 6 -13517827.51426
 94  1 30  2 23 59.9960000  0  7 19 27  2 13 15  7 26
  22879209.973     9784336.284 4   7626381.21523
  20491383.363    -1327767.170 6   -994653.51127
  19971397.754   -10868918.777 7  -8357757.06629
  21921896.910   -11082164.515 6  -7632327.08225
  22805136.066    -7807635.614 5    -49470.40625
  19367820.543   -27180277.672 7 -20978579.68128
  21399821.082   -17611746.138 6 -13541430.52326
 94  1 30  2 24 29.9960000  0  7 19 27  2 13 15  7 26
  22892690.926     9855152.908 4   7681562.99324
  20501169.707    -1276348.451 6   -954586.98527
  19969395.543   -10879456.486 7  -8365968.25429
  21897090.457   -11212533.433 6  -7733913.20825
  22803840.152    -7814465.177 5    -54792.11625
  19360917.895   -27216532.536 7 -21006830.20829
  21394152.746   -17641516.360 6 -13564628.08226
 94  1 30  2 24 59.9960000  0  7 19 27  2 13 15  7 26
  22906205.059     9926178.982 4   7736907.95323
  20511025.723    -1224551.004 6   -914225.35727
  19967420.621   -10889821.407 7  -8374044.80329
  21872334.379   -11342618.805 6  -7835278.39025
  22802645.277    -7820736.678 5    -59678.97525
  19354117.504   -27252284.445 7 -21034688.82029
  21388590.191   -17670760.519 6 -13587415.72526
 94  1 30  2 25 29.9960000  0  7 19 27  2 13 15  7 26
  22919753.691     9997395.771 4   7792401.54321
  20520949.863    -1172403.589 6   -873591.01727
  19965480.590   -10900024.321 7  -8381995.11529
  21847637.035   -11472420.718 6  -7936422.69724
  22801558.082    -7826453.423 5    -64133.56024
  19347410.535   -27287526.336 7 -21062150.01829
  21383125.137   -17699471.597 6 -13609787.98326
 94  1 30  2 25 59.9960000  0  7 19 27  2 13 15  7 26
  22933342.574    10068801.330 4   7848042.22323
  20530935.231    -1119917.758 6   -832692.97127
  19963567.605   -10910075.352 7  -8389827.07229
  21822985.270   -11601939.693 6  -8037346.53125
  22800568.277    -7831618.819 5    -68158.51825
  19340802.379   -27322244.600 7 -21089203.19029
  21377763.137   -17727634.110 6 -13631732.77826
 94  1 30  2 26 29.9960000  0  7 19 27  2 13 15  7 26
  22946966.582    10140394.974 4   7903829.46221
  20540989.410    -1067084.884 6   -791524.52127
  19961677.535   -10919987.596 7  -8397550.89129
  21798394.215   -11731174.095 6  -8138048.60725
  22799702.285    -7836234.261 5    -71754.95025
  19334296.660   -27356443.492 7 -21115851.66029
  21372515.082   -17755243.521 6 -13653246.58426
 94  1 30  2 26 59.9960000  0  7 19 27  2 13 15  7 26
  22960629.504    10212166.402 4   7959755.23924
  20551115.754    -1013876.113 6   -750063.16227
  19959822.520   -10929756.987 7  -8405163.40229
  21773857.746   -11860108.900 6  -8238517.25725
  22798924.926    -7840287.604 5    -74913.37925
  19327885.590   -27390119.557 7 -21142092.74329
  21367364.324   -17782299.420 6 -13674329.09826
 94  1 30  2 27 29.9960000  0  7 19 27  2 13 15  7 26
  22974313.848    10284105.718 4   8015811.83623
  20561313.184     -960289.022 6   -708306.98127
  19957985.270   -10939398.925 7  -8412676.58629
  21749380.043   -11988750.144 6  -8338757.14125
  22798260.254    -7843787.922 5    -77640.85624
  19321577.848   -27423288.819 7 -21167938.89628
  21362314.770   -17808819.638 6 -13694994.18626
 94  1 30  2 27 59.9960000  0  7 19 27  2 13 15  7 26
  22988038.941    10356229.399 4   8072012.11424
  20571586.113     -906302.832 6   -666239.82927
  19956177.449   -10948897.967 7  -8420078.41729
  21724957.621   -12117094.372 6  -8438765.59425
  22797698.520    -7846734.483 5    -79936.84824
  19315360.238   -27455961.889 7 -21193398.41728
  21357373.027   -17834808.770 6 -13715245.43926
 94  1 30  2 28 29.9960000  0  7 19 27  2 13 15  7 26
  23001804.121    10428558.010 3   8128372.04024
  20581937.598     -851905.985 6   -623852.68827
  19954403.793   -10958224.348 7  -8427345.71529
  21700590.410   -12245123.858 6  -8538528.78725
  22797241.293    -7849112.397 5    -81789.74125
  19309236.277   -27488136.659 7 -21218469.64728
  21352527.504   -17860256.344 6 -13735074.70826
 94  1 30  2 28 59.9960000  0  7 19 27  2 13 15  7 26
  23015603.488    10501088.349 4   8184889.18322
  20592360.488     -797127.100 6   -581167.85427
  19952665.535   -10967371.138 7  -8434473.07729
  21676292.934   -12372847.859 6  -8638053.94725
  22796903.918    -7850934.309 5    -83209.37825
  19303206.199   -27519816.044 7 -21243154.86528
  21347786.598   -17885165.397 6 -13754484.35226
 94  1 30  2 29 29.9960000  0  7 19 27  2 13 15  7 26
  23029447.848    10573837.874 3   8241577.10122
  20602858.606     -741965.774 6   -538185.00527
  19950961.543   -10976314.713 7  -8441442.08629
  21652042.629   -12500259.482 6  -8737335.68825
  22796658.223    -7852196.377 5    -84192.78825
  19297273.848   -27550999.194 7 -21267453.40028
  21343151.356   -17909534.359 6 -13773473.13426
 94  1 30  2 29 59.9960000  0  7 19 27  2 13 15  7 26
  23043332.707    10646785.986 3   8298419.76224
  20613424.777     -686424.767 6   -494906.31127
  19949299.293   -10985049.633 7  -8448248.50729
  21627856.559   -12627359.223 6  -8836374.40525
  22796518.277    -7852902.295 5    -84742.82825
  19291435.316   -27581684.863 7 -21291364.29928
  21338614.191   -17933364.151 6 -13792041.78626
 94  1 30  2 30 29.9960000  0  7 19 27  2 13 15  7 26
  23057248.715    10719923.600 3   8355410.09622
  20624065.418     -630524.414 6   -451347.61127
  19947673.465   -10993582.005 7  -8454897.10329
  21603729.941   -12754142.722 6  -8935166.72125
  22796507.574    -7853050.513 5
  19285689.379   -27611867.173 7 -21314882.96928
  21334188.879   -17956649.895 6 -13810186.52826
 94  1 30  2 30 59.9960000  0  7 19 27  2 13 15  7 26
  23071199.566    10793244.317 3   8412543.12122
  20634773.770     -574251.616 6   -407498.67227
  19946086.691   -11001923.699 7  -8461397.10529
  21579663.949   -12880602.967 6  -9033707.12325
  22796570.293    -7852637.346 5
  19280045.441   -27641544.766 7 -21338008.34128
  21329856.981   -17979388.440 6 -13827904.84726
 94  1 30  2 31 29.9960000  0  7 19 27  2 13 15  7 26
  23085186.324    10866731.923 3   8469806.15022
  20645553.145     -517602.251 6   -363356.33327
  19944534.238   -11010097.831 7  -8467766.55429
  21555660.465   -13006742.602 6  -9131997.70825
  22796757.613    -7851668.508 5    -83781.38725
  19274487.363   -27670727.958 7 -21360748.48628
  21325635.223   -18001588.023 6 -13845203.22126
 94  1 30  2 31 59.9960000  0  7 19 27  2 13 15  7 26
  23099200.426    10940377.047 3   8527191.94722
  20656401.621     -460585.464 6   -318927.67027
  19943003.191   -11018131.434 7  -8474026.48229
  21531717.324   -13132561.149 6  -9230038.09125
  22797042.777    -7850146.505 5    -82595.37325
  19269033.121   -27699412.918 7 -21383100.38328
  21321512.066   -18023245.858 6 -13862079.43826
 94  1 30  2 32 29.9960000  0  7 19 27  2 13 15  7 26
  23113242.715    11014181.860 3   8584702.18521
  20667321.637     -403208.623 6   -274218.45827
  19941499.465   -11026036.050 7  -8480185.91729
  21507838.645   -13258060.651 6  -9327829.87825
  22797445.285    -7848076.343 5    -80982.23525
  19263662.160   -27727618.172 7 -21405078.48828
  21317495.426   -18044375.104 6 -13878543.78026
 94  1 30  2 32 59.9960000  0  7 19 27  2 13 15  7 26
  23127318.168    11088148.217 3   8642338.32921
  20678310.605     -345456.105 6   -229216.50626
  19940019.340   -11033811.773 7  -8486244.90829
  21484019.754   -13383234.121 6  -9425367.59425
  22797945.637    -7845454.529 5    -78939.22725
  19258384.996   -27755348.448 7 -21426686.46528
  21313572.598   -18064976.245 6 -13894596.60226
 94  1 30  2 33 29.9960000  0  8 19 27  2 13 15  7  4 26
  23141426.356    11162274.606 3   8700099.11222
  20689375.121     -287320.812 6   -183916.28826
  19938564.098   -11041458.453 7  -8492203.35429
  21460262.020   -13508076.447 6  -9522647.28725
  22798552.301    -7842279.016 5    -76464.77325
  19253202.754   -27782600.398 7 -21447921.73028
  23502989.277          -0.10713
  21309748.738   -18085058.328 6 -13910244.97626
 94  1 30  2 33 59.9960000  0  8 19 27  2 13 15  7  4 26
  23155560.871    11236566.803 3   8757989.14222
  20700510.676     -228802.912 6   -138317.93526
  19937140.379   -11048956.663 7  -8498046.10229
  21436569.191   -13632583.250 6  -9619665.52825
  22799253.395    -7838548.527 5    -73557.85925
  19248101.426   -27809384.660 7 -21468792.57128
  23479734.481     -122183.109 3
  21306030.543   -18104622.264 6 -13925489.59226
 94  1 30  2 34 29.9960000  0  8 19 27  2 13 15  7  4 26
  23169732.949    11311038.832 3   8816019.27222
  20711719.543     -169896.929 6    -92417.18826
  19935744.863   -11056282.177 7  -8503754.28729
  21412937.379   -13756748.152 6  -9716417.37125
  22800074.152    -7834260.001 5    -70216.12224
  19243098.199   -27835695.485 7 -21489294.50328
  23456471.574     -244435.835 3        -0.05933
  21302406.559   -18123661.882 6 -13940325.65627
 94  1 30  2 34 59.9960000  0  8 19 27  2 13 15  7  4 26
  23183932.699    11385685.522 3   8874185.48722
  20723003.457     -110604.954 6    -46215.66226
  19934382.840   -11063429.723 7  -8509323.78929
  21389378.231   -13880571.316 6  -9812902.91525
  22800990.551    -7829416.986 5    -66442.32125
  19238185.863   -27861516.679 7 -21509414.89628
  23433195.035     -366766.508 3    -95322.56222
  21298882.340   -18142170.174 6 -13954747.68326
 94  1 30  2 35 29.9960000  0  8 19 27  2 13 15  7  4 26
  23198174.730    11460512.780 3   8932492.44922
  20734357.410      -50936.426 6       279.28626
  19933059.691   -11070385.500 7  -8514743.86429
  21365883.160   -14004047.106 6  -9909117.77825
  22802014.270    -7824016.805 5    -62234.34925
  19233367.629   -27886841.002 7 -21529148.11628
  23409898.145     -489179.337 3   -190709.05921
  21295463.207   -18160138.811 6 -13968749.21926
 94  1 30  2 35 59.9960000  0  8 19 27  2 13 15  7  4 26
  23212453.910    11535528.835 3   8990946.51622
  20745781.059        9089.767 6     47052.93326
  19931777.441   -11077128.067 7  -8519997.80429
  21342453.363   -14127173.872 6 -10005060.67125
  22803155.606    -7818061.093 5    -57593.49425
  19228641.012   -27911658.015 7 -21548486.03128
  23386588.262     -611667.223 3   -286154.04321
  21292150.816   -18177555.159 6 -13982320.38926
 94  1 30  2 36 29.9960000  0  8 19 27  2 13 15  7  4 26
  23226763.809    11610726.996 3   9049542.46023
  20757268.668       69464.012 6     94097.79626
  19930531.129   -11083664.788 7  -8525091.34929
  21319086.660   -14249948.388 6
  22804387.402    -7811550.249 5    -52520.07724
  19224017.910   -27935957.902 7 -21567420.98228
  23363267.043     -734221.240 3
  21288942.332   -18194423.087 6 -13995464.21826
 94  1 30  2 36 59.9960000  0  8 19 27  2 13 15  7  4 26
  23241107.363    11686090.559 3   9108267.30523
  20768823.035      130176.542 6    141406.25226
  19929327.340   -11090012.916 7  -8530037.93329
  21295791.441   -14372368.409 6 -10196121.28125
  22805738.926    -7804485.185 5    -47014.81725
  19219487.215   -27959753.940 7 -21585963.33528
  23339932.059     -856849.138 3   -477204.68921
  21285832.605   -18210750.189 6 -14008186.62627
 94  1 30  2 37 29.9960000  0  8 19 27  2 13 15  7  4 26
  23255473.207    11761607.650 3   9167111.81822
  20780437.324      191218.419 6    188971.35026
  19928153.660   -11096182.139 7  -8534845.10929
  21272564.012   -14494437.918 6 -10291240.33925
  22807189.043    -7796872.757 5    -41083.03125
  19215051.199   -27983064.002 7 -21604127.00228
  23316583.965     -979540.096 3   -572807.94721
  21282824.504   -18226552.058 6 -14020499.76926
 94  1 30  2 37 59.9960000  0  8 19 27  2 13 15  7  4 26
  23269865.121    11837274.277 3   9226072.80122
  20792117.254      252593.854 6    236796.35826
  19927012.277   -11102184.605 7  -8539522.34729
  21249402.230   -14616154.098 6 -10386084.07825
  22808729.832    -7788713.560 5    -34725.18025
  19210710.270   -28005885.966 7 -21621910.33428
  23293232.770    -1102274.576 3   -668445.11422
  21279914.988   -18241838.882 6 -14032411.57926
 94  1 30  2 38 29.9960000  0  8 19 27  2 13 15  7  4 26
  23284296.137    11913085.438 3   9285146.43622
  20803859.746      314300.838 6    284879.71726
  19925892.754   -11108052.237 7  -8544094.52729
  21226306.809   -14737514.359 6 -10480650.48425
  22810399.582    -7780008.461 5    -27941.95125
  19206459.270   -28028233.856 7 -21639324.25728
  23269866.520    -1225056.965 3   -764119.63723
  21277101.582   -18256616.689 6 -14043926.74026
 94  1 30  2 38 59.9960000  0  8 19 27  2 13 15  7  4 26
  23298757.090    11989056.975 3   9344345.03922
  20815668.574      376360.832 6    333238.14526
  19924802.215   -11113785.947 7  -8548562.34829
  21203283.309   -14858507.609 6 -10574930.91325
  22812157.691    -7770749.776 5    -20727.37625
  19202299.512   -28050089.866 7 -21656354.89128
  23246493.645    -1347891.623 3   -859834.87823
  21274393.426   -18270858.615 6 -14055024.33326
 94  1 30  2 39 29.9960000  0  8 19 27  2 13 15  7  4 26
  23313250.668    12065201.756 3   9403678.64021
  20827545.793      438775.670 6    381873.07426
  19923735.098   -11119381.117 7  -8552922.21129
  21180328.902   -14979136.590 6 -10668927.49025
  22814023.035    -7760943.628 5    -13086.18825
  19198237.020   -28071452.307 7 -21673000.93928
  23223108.559    -1470779.418 4   -955591.52523
  21271785.168   -18284560.373 6 -14065701.02726
 94  1 30  2 39 59.9960000  0  8 19 27  2 13 15  7  4 26
  23327770.285    12141536.022 3   9463159.86522
  20839489.457      501545.498 6    430784.62626
  19922696.566   -11124841.152 7  -8557176.77629
  21157443.231   -15099395.462 6 -10762635.67825
  22815995.535    -7750587.684 5     -5016.59225
  19194267.660   -28092315.189 7 -21689257.71528
  23199713.754    -1593719.056 4  -1051388.60123
  21269281.551   -18297720.301 6 -14075955.50026
 94  1 30  2 40 29.9960000  0  8 19 27  2 13 15  7  4 26
  23342329.215    12218050.618 3   9522781.61022
  20851505.770      564679.663 6    479980.07726
  19921686.223   -11130159.183 7  -8561320.68729
  21134633.051   -15219284.012 6 -10856055.30025
  22818066.379    -7739685.025 5      3479.00425
  19190388.051   -28112687.177 7 -21705131.97628
  23176307.887    -1716717.908 4  -1147231.78422
  21266883.145   -18310332.547 6 -14085783.21726
 94  1 30  2 40 59.9960000  0  8 19 27  2 13 15  7  4 26
  23356928.730    12294730.948 3   9582532.53021
  20863590.363      628190.823 6    529469.28026
  19920707.574   -11135306.036 7  -8565331.21129
  21111886.793   -15338798.479 6 -10949183.42825
  22820247.168    -7728235.355 5     12400.85225
  19186603.395   -28132571.201 7 -21720626.00828
  23152893.441    -1839757.798 4  -1243106.95221
  21264580.223   -18322406.885 6 -14095191.79026
 94  1 30  2 41 29.9960000  0  8 19 27  2 13 15  7  4 26
  23371547.129    12371570.672 3   9642407.63821
  20875745.105      692059.686 6    579237.22626
  19919763.910   -11140265.063 7  -8569195.37929
  21089217.074   -15457933.796 6 -11042016.12125
  22822527.809    -7716236.761 5     21750.42925
  19182909.051   -28151987.112 7 -21735755.26928
  23129475.035    -1962815.993 4  -1338996.40624
  21262382.988   -18333975.125 6 -14104205.99126
 94  1 30  2 41 59.9960000  0  8 19 27  2 13 15  7  4 26
  23386195.246    12448548.054 3   9702389.99422
  20887968.059      756288.509 6    629285.64926
  19918851.512   -11145039.173 7  -8572915.45529
  21066616.691   -15576689.380 6 -11134552.90426
  22824917.723    -7703692.102 5     31525.50625
  19179301.777   -28170946.450 7 -21750528.76628
  23106057.434    -2085885.052 4  -1434894.33224
  21260279.137   -18345040.371 6 -14112828.25326
 94  1 30  2 42 29.9960000  0  8 19 27  2 13 15  7  4 26
  23400861.785    12525646.473 3   9762466.68722
  20900257.801      820876.386 6    679613.86026
  19917981.840   -11149624.396 7  -8576488.35029
  21044092.559   -15695063.862 6 -11226792.73525
  22827403.246    -7690603.393 5     41724.52825
  19175779.012   -28189460.859 7 -21764955.55728
  23082632.082    -2208967.437 4  -1530802.60624
  21258270.965   -18355592.624 6 -14121050.78226
 94  1 30  2 42 59.9960000  0  8 19 27  2 13 15  7  4 26
  23415566.527    12602878.237 3   9822647.29922
  20912614.113      885805.223 6    730207.75426
  19917144.527   -11154030.208 7  -8579921.43529
  21021639.684   -15813051.332 6 -11318730.99825
  22829999.941    -7676968.074 5     52349.48725
  19172341.106   -28207527.321 7 -21779033.30928
  23059212.605    -2332051.523 4  -1626712.22824
  21256358.387   -18365635.262 6 -14128876.21526
 94  1 30  2 43 29.9960000  0  8 19 27  2 13 15  7  4 26
  23430290.184    12680264.670 3   9882948.38721
  20925031.020      951060.571 6    781056.06326
  19916337.332   -11158277.788 7  -8583231.22729
  20999260.207   -15930653.127 6 -11410368.73626
  22832696.223    -7662791.045 5     63396.54825
  19168986.527   -28225145.650 7 -21792761.86228
  23035785.676    -2455145.230 4  -1722629.35823
  21254547.020   -18375155.056 6 -14136294.23226
 94  1 30  2 43 59.9960000  0  8  9 27  2 13 15  7  4 26
  23407312.371          -0.44613
  20937511.512     1016653.695 6    832167.58526
  19915552.770   -11162372.286 7  -8586421.73729
  20976956.723   -16047863.726 6 -11501701.63826
  22835498.121    -7648070.008 5     74867.51025
  19165724.074   -28242300.602 7 -21806129.34528
  23012359.035    -2578247.374 4  -1818553.04124
  21252841.410   -18384131.920 6 -14143289.18426
 94  1 30  2 44 29.9960000  0  8  9 27  2 13 15  7  4 26
  23384103.496     -121974.976 3        -0.05731
  20950055.113     1082564.728 6    883526.83426
  19914807.512   -11166306.015 7  -8589486.96729
  20954727.457   -16164678.229 6 -11592725.89926
  22838407.051    -7632804.140 5     86763.03425
  19162548.473   -28258975.310 7 -21819122.60928
  22988935.191    -2701356.047 4  -1914481.82123
  21251235.746   -18392579.937 6 -14149872.04526
 94  1 30  2 44 59.9960000  0  8  9 27  2 13 15  7  4 26
  23360903.504     -243926.302 3    -95027.01721
  20962652.777     1148780.300 6    935123.37526
  19914088.949   -11170082.007 7  -8592429.28929
  20932571.840   -16281101.608 6 -11683445.37826
  22841419.277    -7617001.670 5     99076.67225
  19159469.355   -28275161.495 7 -21831735.19728
  22965509.426    -2824481.033 5  -2010423.30924
  21249719.277   -18400509.043 6 -14156050.56626
 94  1 30  2 45 29.9960000  0  8  9 27  2 13 15  7  4 26
  23337690.879     -365875.582 3   -190052.40121
  20975314.645     1215308.066 6    986963.18226
  19913400.676   -11173681.301 7  -8595233.92329
  20910492.020   -16397131.726 6 -11773858.42026
  22844518.684    -7600663.866 5    111807.45625
  19156486.145   -28290843.622 7 -21843955.02128
  22942070.832    -2947630.889 4  -2106384.18524
  21248315.434   -18407918.574 6 -14161824.21626
 94  1 30  2 45 59.9960000  0  8  9 27  2 13 15  7  4 26
  23314486.871     -487822.076 3   -285075.58122
  20988035.152     1282153.960 6   1039050.88326
  19912757.926   -11177088.965 7  -8597889.23529
  20888490.113   -16512761.235 6 -11863959.29126
  22847737.816    -7583786.771 5    124958.46625
  19153599.699   -28306009.614 7 -21855772.66428
  22918629.152    -3070814.359 4  -2202371.24624
  21246999.645   -18414819.471 6 -14167201.53326
 94  1 30  2 46 29.9960000  0  8  9 27  2 13 15  7  4 26
  23291278.262     -609760.657 3   -380092.62221
  21000819.606     1349330.880 6   1091396.52626
  19912143.793   -11180302.512 7  -8600393.28529
  20866562.512   -16627987.818 6 -11953746.19626
  22851048.145    -7566371.676 5    138528.69825
  19150812.590   -28320659.469 7 -21867188.11928
  22895183.543    -3194037.383 4  -2298389.13224
  21245778.887   -18421211.342 6 -14172182.20726
 94  1 30  2 46 59.9960000  0  8  9 27  2 13 15  7  4 26
  23268076.426     -731694.922 3   -475106.29521
  21013670.184     1416861.792 6   1144018.01126
  19911566.027   -11183331.917 7  -8602753.84929
  20844711.840   -16742808.278 6 -12043216.64026
  22854465.895    -7548419.001 5    152517.81525
  19148115.137   -28334812.439 7 -21878216.39129
  22871727.590    -3317295.007 4  -2394434.00124
  21244665.801   -18427085.376 6 -14176759.36826
 94  1 30  2 47 29.9960000  0  8  9 27  2 13 15  7  4 26
  23244872.895     -853604.794 3   -570100.98121
  21026589.918     1484752.922 6   1196920.18726
  19911026.824   -11186187.033 7  -8604978.60429
  20822938.551   -16857227.094 6 -12132374.13226
  22857980.324    -7529936.527 5    166919.75625
  19145512.262   -28348498.381 7 -21888880.75329
  22848269.473    -3440580.194 4  -2490500.34123
  21243643.316   -18432459.952 6 -14180947.33626
 94  1 30  2 48 29.9950000  0  8  9 27  2 13 15  7  4 26
  23198514.499    -1097246.749 5   -759951.77022
  21052639.905     1621651.760 6   1303594.59826
  19910026.905   -11191416.108 7  -8609053.18529
  20779628.515   -17084828.875 6 -12309726.09126
  22865319.562    -7491370.107 5    196971.56925
  19140563.132   -28374527.121 7 -21909162.85329
  22801345.343    -3687141.535 4  -2682625.98624
  21241887.944   -18441673.689 6 -14188126.85726
 94  1 30  2 48 59.9950000  0  8  9 27  2 13 15  7  4 26
  23175355.538    -1218959.489 5   -854792.81524
  21065767.530     1690641.589 6   1357352.90526
  19909578.960   -11193783.973 7  -8610898.26629
  20758090.601   -17198005.206 6 -12397915.40426
  22869153.523    -7471282.413 5    212624.32325
  19138205.265   -28386889.654 7 -21918795.97429
  22777901.398    -3810381.906 5  -2778657.41825
  21241161.046   -18445493.202 6 -14191103.10226
 94  1 30  2 49 29.9950000  0  8  9 27  2 13 15  7  4 26
  23152206.890    -1340594.841 5   -949573.56122
  21078958.538     1759951.289 6   1411360.46126
  19909160.210   -11195982.363 7  -8612611.28229
  20736634.327   -17310763.598 6 -12485779.04926
  22873060.351    -7450662.611 5    228691.73725
  19135940.413   -28398809.940 7 -21928084.49129
  22754449.288    -3933597.727 4  -2874669.71424
  21240534.515   -18448800.666 6 -14193680.33526
 94  1 30  2 49 59.9950000  0  8  9 27  2 13 15  7  4 26
  23129070.374    -1462168.263 5  -1044306.07723
  21092203.147     1829556.517 6   1465598.28826
  19908773.679   -11198010.560 7  -8614191.68429
  20715256.968   -17423101.865 6 -12573315.31926
  22877090.569    -7429512.374 5    245172.46225
  19133759.663   -28410269.569 7 -21937014.05829
  22731004.843    -4056792.845 4  -2970665.90025
  21240002.210   -18451596.790 6 -14195859.12726
 94  1 30  2 50 29.9950000  0  8  9 27  2 13 15  7  4 26
  23105953.124    -1583686.055 5  -1138995.20724
  21105502.937     1899446.944 6   1520058.36026
  19908422.913   -11199850.571 7  -8615625.45129
  20693958.124   -17535015.698 6 -12660520.86326
  22881217.741    -7407831.120 5    262066.95624
  19131668.468   -28421270.737 7 -21945586.38329
  22707562.796    -4179964.801 4  -3066644.00323
  21239564.819   -18453893.545 6 -14197648.80026
 94  1 30  2 50 59.9950000  0  8  9 27  2 13 15  7  4 26
  23082831.218    -1705165.343 4  -1233654.32923
  21118855.296     1969620.965 6   1574739.41226
  19908109.718   -11201508.646 7
  20672742.788   -17646505.126 6 -12747395.70526
  22885447.077    -7385622.576 5    279372.33623
  19129659.718   -28431802.382 7 -21953792.83729
  22684126.562    -4303127.218 5  -3162614.68524
  21239220.679   -18455709.900 6
 94  1 30  2 51 29.9950000  0  8  9 27  2 13 15  7  4 26
  23059723.796    -1826607.933 5  -1328284.87222
  21132265.015     2040091.450 6   1629651.47926
  19907823.663   -11202988.284 7  -8618070.40429
  20651608.874   -17757572.015 6 -12833941.29026
  22889768.632    -7362891.799 5    297084.64625
  19127747.648   -28441857.452 7 -21961627.93929
  22660698.343    -4426272.510 5  -3258572.01224
  21238966.155   -18457057.901 6 -14200114.53326
 94  1 30  2 51 59.9950000  0  8  9 27  2 13 15  7  4 26
  23036624.265    -1948000.266 5  -1422876.26422
  21145738.241     2110889.425 6   1684818.73126
  19907583.476   -11204284.936 7  -8619080.76929
  20630556.874   -17868205.798 6 -12920149.39626
  22894197.960    -7339631.930 5    315209.23925
  19125924.663   -28451433.517 7 -21969089.79629
  22637269.976    -4549393.885 5  -3354510.71424
  21238797.468   -18457913.933 6 -14200781.56526
 94  1 30  2 52 29.9950000  0  8  9 27  2 13 15  7  4 26
  23013535.413    -2069341.971 5  -1517428.20424
  21159273.390     2182017.483 6   1740243.19326
  19907370.335   -11205397.536 7  -8619947.71529
  20609583.898   -17978408.441 6 -13006021.54726
  22898714.835    -7315848.564 5    333741.75924
  19124191.062   -28460551.649 7 -21976194.82129
  22613835.538    -4672499.570 4  -3450437.19025
  21238728.132   -18458281.264 6
 94  1 30  2 52 59.9950000  0  8  9 27  2 13 15  7  4 26
  22990451.585    -2190623.163 5  -1611932.97724
  21172869.265     2253465.216 6   1795916.74726
  19907193.124   -11206333.937 7  -8620677.37329
  20588697.929   -18088178.714 7 -13091556.79326
  22903349.585    -7291543.946 5    352680.44625
  19122543.718   -28469206.285 7 -21982938.68529
  22590413.273    -4795593.375 5  -3546354.40724
  21238755.062   -18458138.563 6
 94  1 30  2 53 29.9950000  0  8  9 27  2 13 15  7  4 26
  22967391.038    -2311818.359 5  -1706370.75725
  21186525.991     2325225.712 6   1851834.00526
  19907048.538   -11207092.658 7  -8621268.56829
  20567891.280   -18197512.090 7 -13176751.59426
  22908073.952    -7266717.234 5    372025.96224
  19120979.601   -28477419.510 7 -21989338.59129
  22566994.898    -4918669.452 5  -3642257.81025
  21238878.718   -18457477.698 6 -14200441.64326
 94  1 30  2 53 59.9950000  0  8  9 27  2 13 15  7  4 26
  22944342.288    -2432932.243 5  -1800745.17723
  21200236.015     2397278.438 6   1907978.98526
  19906936.726   -11207677.657 7  -8621724.40329
  20547168.647   -18306413.747 7 -13261610.00326
  22912889.991    -7241377.266 5    391771.42424
  19119497.898   -28485210.663 7 -21995409.61029
  22543575.413    -5041740.088 5  -3738156.96124
  21239104.952   -18456298.147 6 -14199522.50826
 94  1 30  2 54 29.9950000  0  8  9 27  2 13 15  7  4 26
  22921311.718    -2553954.009 5  -1895047.82122
  21214003.523     2469625.439 6   1964353.27726
  19906857.929   -11208080.175 7  -8622038.04229
  20526530.452   -18414871.157 7 -13346122.23626
  22917810.726    -7215515.337 5    411923.60225
  19118098.007   -28492572.656 7 -22001146.22129
  22520165.085    -5164776.617 5  -3834029.54124
  21239429.991   -18454595.549 6 -14198195.81126
 94  1 30  2 54 59.9950000  0  8  9 27  2 13 15  7  4 26
  22898305.093    -2674883.036 5  -1989278.22023
  21227827.991     2542267.858 6   2020957.76026
  19906811.851   -11208320.031 7
  20505973.023   -18522888.672 6 -13430291.68426
  22922829.741    -7189139.106 5    432476.53424
  19116781.257   -28499503.229 7 -22006546.65229
  22496759.921    -5287768.094 5  -3929867.02625
  21239850.085   -18452378.963 6 -14196468.59826
 94  1 30  2 55 29.9950000  0  8  9 27  2 13 15  7  4 26
  22875304.913    -2795722.142 5  -2083438.52325
  21241707.757     2615224.627 6   2077807.18726
  19906799.616   -11208389.085 7
  20485504.179   -18630458.024 6 -13514111.93526
  22927946.515    -7162244.473 5    453433.41124
  19115543.163   -28505991.302 7 -22011602.28129
  22473366.632    -5410701.640 5  -4025659.37425
  21240367.632   -18449661.108 6 -14194350.78726
 94  1 30  2 55 59.9950000  0  8  9 27  2 13 15  7  4 26
  22852323.780    -2916493.360 5  -2177545.92123
  21255656.819     2688501.580 6   2134906.11126
  19906821.546   -11208284.467 7
  20465118.890   -18737581.418 6 -13597584.68426
  22933170.140    -7134836.599 5    474790.20524
  19114394.022   -28512028.547 7 -22016306.61329
  22449987.460    -5533576.443 5  -4121405.94124
  21240978.905   -18446453.121 6 -14191851.05726
 94  1 30  2 56 29.9950000  0  8  9 27  2 13 15  7  4 26
  22829355.069    -3037204.058 5  -2271606.16925
  21269659.093     2762099.801 6   2192255.37426
  19906869.374   -11208007.692 7
  20444819.921   -18844254.723 6 -13680706.70826
  22938478.343    -7106915.390 5    496547.01923
  19113334.952   -28517612.514 7 -22020657.73929
  22426614.773    -5656376.065 5  -4217093.93625
  21241677.944   -18442774.620 6 -14188984.68626
 94  1 30  2 56 59.9950000  0  8  9 27  2 13 15  7  4 26
  22806393.163    -3157863.204 5  -2365626.24725
  21283725.054     2836014.278 6   2249851.06726
  19906955.124   -11207562.657 7  -8621634.73429
  20424605.624   -18950480.007 7 -13763479.62526
  22943887.319    -7078486.338 4    518699.55622
  19112357.327   -28522745.904 7 -22024657.77129
  22403252.093    -5779110.034 5  -4312730.75724
  21242464.554   -18438646.334 6 -14185767.84126
 94  1 30  2 57 29.9950000  0  8  9 27  2 13 15  7  4 26
  22783446.437    -3278462.333 5  -2459599.54623
  21297849.288     2910244.065 5   2307692.45826
  19907077.616   -11206933.641 7  -8621144.57929
  20404480.257   -19056245.145 7 -13845893.98826
  22949408.038    -7049541.345 5    541254.10422
  19111467.968   -28527421.350 7 -22028300.95929
  22379910.655    -5901777.135 5  -4408315.48724
  21243333.968   -18434063.036 6 -14182196.43526
 94  1 30  2 57 59.9950000  0  8  9 27  2 13 15  7  4 26
  22760506.804    -3399001.240 5  -2553525.93825
  21312035.499     2984777.971 6   2365770.82726
  19907229.108   -11206141.093 7  -8620526.99929
  20384439.155   -19161553.136 7 -13927952.13126
  22955003.374    -7020087.027 4    564205.56124
  19110659.194   -28531648.326 7 -22031594.68429
  22356585.226    -6024376.746 5  -4503847.63525
  21244293.812   -18429024.230 6 -14178270.09026
 94  1 30  2 58 29.9950000  0  8  9 27  2 13 15  7  4 26
  22737581.007    -3519463.842 5  -2647392.86325
  21326273.757     3059608.296 6   2424080.17026
  19907410.546   -11205195.999 7  -8619790.54429
  20364488.710   -19266396.818 7 -14009648.46826
  22960712.968    -6990119.623 5    587556.78424
  19109944.280   -28535410.493 7 -22034526.23729
  22333279.101    -6146903.349 5  -4599322.88424
  21245344.851   -18423508.659 6 -14173972.24626
 94  1 30  2 58 59.9950000  0  8  9 27  2 13 15  7  4 26
  22714675.288    -3639837.533 5  -2741190.51424
  21340571.351     3134728.641 6   2482615.49526
  19907617.827   -11204099.011 7  -8618935.74629
  20344625.569   -19370777.127 7 -14090983.74926
  22966505.499    -6959643.916 5    611304.12224
  19109316.718   -28538711.354 7 -22037098.32029
  22309965.694    -6269372.108 5  -4694753.03224
  21246486.163   -18417497.768 6 -14169288.44426
 94  1 30  2 59 29.9950000  0  8  9 27  2 13 15  7  4 26
  22691788.022    -3760114.684 5  -2834912.92925
  21354918.562     3210121.731 5   2541363.35425
  19907851.562   -11202848.649 7  -8617961.42829
  20324849.976   -19474698.301 7 -14171961.25526
  22972403.718    -6928667.523 5    635441.58723
  19108776.983   -28541565.438 7 -22039322.26929
  22286670.218    -6391785.415 5  -4790140.00625
  21247732.046   -18410972.063 6 -14164203.48126
 94  1 30  2 59 59.9950000  0  8  9 27  2 13 15  7  4 26
  22668919.187    -3880290.017 5  -2928556.00925
  21369310.655     3285779.990 5   2600317.83626
  19908122.937   -11201438.545 7  -8616862.63729
  20305162.132   -19578155.311 7 -14252577.07126
  22978394.015    -6897189.220 5    659970.15524
  19108311.538   -28543973.065 7 -22041198.33129
  22263390.116    -6514140.351 5  -4885481.48525
  21249069.343   -18403928.901 6 -14158715.31326
 94  1 30  3  0 29.9950000  0  8  9 27  2 13 15  7  4 26
  22646073.788    -4000346.492 5  -3022106.48525
  21383758.960     3361694.136 5   2659471.70725
  19908425.687   -11199842.126 7  -8615618.66829
  20285565.812   -19681142.923 7 -14332827.11726
  22984469.515    -6865207.489 5    684891.02024
  19107939.452   -28545947.591 7 -22042736.91429
  22240114.577    -6636432.446 5  -4980773.99625
  21250507.937   -18396380.361 6 -14152833.32226
 94  1 30  3  0 59.9950000  0  8  9 27  2 13 15  7  4 26
  22623250.179    -4120282.984 5  -3115563.45925
  21398253.843     3437858.358 5   2718820.44825
  19908767.757   -11198043.745 7  -8614217.32629
  20266056.687   -19783664.473 7 -14412714.00926
  22990654.382    -6832729.358 5    710198.67324
  19107643.523   -28547519.878 7 -22043962.05829
  22216851.046    -6758666.922 5  -5076021.59925
  21252036.007   -18388352.397 6 -14146577.76926
 94  1 30  3  1 29.9950000  0  8  9 27  2 13 15  7  4 26
  22600450.929    -4240114.759 5  -3208938.83725
  21412790.976     3514265.228 5   2778358.26625
  19909144.226   -11196043.525 7  -8612658.70829
  20246635.733   -19885718.411 7 -14492236.52926
  22996927.054    -6799756.772 5    735891.60624
  19107421.827   -28548687.330 7 -22044871.74629
  22193604.577    -6880834.531 5  -5171217.10525
  21253650.327   -18379863.582 6 -14139963.10526
 94  1 30  3  1 59.9950000  0  8  9 27  2 13 15  7  4 26
  22577665.530    -4359845.736 5  -3302235.66225
  21427380.679     3590919.966 5   2838089.22525
  19909568.007   -11193837.648 7  -8610939.83529
  20227304.437   -19987302.277 7 -14571392.75126
  23003292.241    -6766290.975 4    761968.86823
  19107278.390   -28549434.968 7 -22045454.30629
  22170374.796    -7002926.380 5  -5266353.56525
  21255352.319   -18370939.986 6 -14133009.65326
 94  1 30  3  2 29.9950000  0  8  9 27  2 13 15  7  4 26
  22554900.046    -4479475.804 5  -3395453.86325
  21442016.483     3667844.213 5   2898030.18826
  19910029.101   -11191420.262 7  -8609056.15229
  20208064.476   -20088411.154 7 -14650178.86126
  23009758.593    -6732330.694 4    788431.43222
  19107214.155   -28549764.497 7
  22147155.171    -7124921.436 5  -5361414.60225
  21257131.937   -18361569.424 6 -14125707.90826
 94  1 30  3  2 59.9950000  0  8  9 27  2 13 15  7  4 26
  22532151.171    -4599031.158 5  -3488613.83625
  21456708.429     3745050.222 5   2958190.71425
  19910529.023   -11188795.121 7  -8607010.57929
  20188914.413   -20189042.010 7 -14728592.48126
  23016316.382    -6697876.976 4    815278.52223
  19107234.132   -28549662.609 7
  22123961.421    -7246814.211 5  -5456395.94425
  21259002.132   -18351736.141 6 -14118045.61126
 94  1 30  3  3 29.9950000  0  8  9 27  2 13 15  7  4 26
  22509409.218    -4718519.471 5  -3581721.56825
  21471455.905     3822543.963 5   3018575.43725
  19911063.351   -11185975.566 7  -8604813.51929
  20169855.569   -20289195.444 7 -14806634.08726
  23022967.257    -6662933.767 4    842507.00624
  19107339.632   -28549118.576 7 -22045207.73329
  22100787.327    -7368592.194 5  -5551287.83725
  21260963.351   -18341440.463 6 -14110022.99526
 94  1 30  3  3 59.9950000  0  8  9 27  2 13 15  7  4 26
  22486686.819    -4837924.525 5  -3674764.44725
  21486260.733     3900349.704 5   3079203.29325
  19911635.007   -11182965.656 7  -8602468.12629
  20150888.858   -20388869.672 7 -14884302.29226
  23029704.687    -6627502.818 4    870115.55722
  19107525.374   -28548142.618 7 -22044447.23029
  22077633.116    -7490261.863 5  -5646095.33425
  21263015.468   -18330670.801 6 -14101631.05826
 94  1 30  3  4 29.9950000  0  8  9 27  2 13 15  7  4 26
  22463980.655    -4957243.440 5  -3767740.21725
  21501125.772     3978472.622 5   3140078.27525
  19912246.648   -11179774.195 7  -8599981.27129
  20132013.171   -20488058.427 7 -14961592.20426
  23036540.616    -6591581.911 4    898105.88325
  19107786.913   -28546757.788 7 -22043368.13029
  22054505.202    -7611826.334 5  -5740820.85525
  21265152.187   -18319417.677 6 -14092862.37826
 94  1 30  3  4 59.9950000  0  8  9 27  2 13 15  7  4 26
  22441294.108    -5076463.279 5  -3860638.74825
  21516054.148     4056896.668 5   3201187.91326
  19912881.757   -11176416.457 7  -8597364.84829
  20113231.171   -20586762.316 7 -15038504.29726
  23043471.468    -6555175.178 4    926474.80223
  19108123.913   -28544956.826 7 -22041964.76729
  22031384.015    -7733294.806 5  -5835471.56425
  21267384.468   -18307707.845 6 -14083737.83126
 94  1 30  3  5 29.9950000  0  8  9 27  2 13 15  7  4 26
  22418633.812    -5195555.470 5  -3953437.83325
  21531034.608     4135619.671 5   3262530.49725
  19913551.780   -11172904.514 7  -8594628.26629
  20094541.843   -20684982.545 7 -15115039.51126
  23050490.054    -6518287.493 4    955218.45524
  19108551.890   -28542748.184 7 -22040243.73729
  22008291.913    -7854672.242 5  -5930051.35425
  21269693.663   -18295553.238 6 -14074266.70026
 94  1 30  3  5 59.9950000  0  8  9 27  2 13 15  7  4 26
  22395993.523    -5314518.529 5  -4046136.28325
  21546067.179     4214622.558 5   3324091.18325
  19914247.476   -11169238.905 7  -8591771.94429
  20075940.210   -20782722.798 7 -15191200.72527
  23057600.312    -6480926.053 4    984331.30122
  19109044.749   -28540146.684 7 -22038216.57629
  21985208.843    -7975966.879 5  -6024566.60825
  21272093.366   -18282961.727 6 -14064455.14026
 94  1 30  3  6 29.9950000  0  8  9 27  2 13 15  7  4 26
  22373380.265    -5433346.119 5  -4138729.19725
  21561148.640     4293873.203 5   3385844.92025
  19914979.718   -11165408.687 7  -8588787.34929
  20057434.616   -20879976.953 7 -15266983.15626
  23064799.593    -6443088.651 5   1013814.99324
  19109615.913   -28537143.909 7 -22035876.74429
  21962150.171    -8097158.547 5  -6119001.64125
  21274569.015   -18269941.225 6 -14054309.29126
 94  1 30  3  6 59.9950000  0  8  9 27  2 13 15  7  4 26
  22350795.491    -5552034.496 5  -4231213.61625
  21576276.296     4373372.087 5   3447792.08525
  19915739.124   -11161403.066 7  -8585666.07129
  20039021.608   -20976739.505 7 -15342382.52027
  23072097.624    -6404773.172 5   1043671.23123
  19110268.694   -28533718.143 7 -22033207.30329
  21939107.718    -8218240.678 5  -6213351.31925
  21277129.968   -18256488.267 6 -14043826.45026
 94  1 30  3  7 29.9950000  0  8  9 27  2 13 15  7  4 26
  22328238.054    -5670601.096 5  -4323603.16424
  21591448.741     4453112.699 5   3509927.62225
  19916537.132   -11157205.632 7  -8582395.34329
  20020700.585   -21073010.280 7 -15417398.68027
  23079474.108    -6365983.105 5   1073897.27024
  19111000.546   -28529883.995 7 -22030219.64529
  21916083.780    -8339219.771 5  -6307620.69725
  21279771.983   -18242587.612 6 -14032994.77826
 94  1 30  3  7 59.9950000  0  8  9 27  2 13 15  7  4 26
  22305694.968    -5789058.719 5  -4415907.76524
  21606666.468     4533081.593 5   3572241.03425
  19917374.327   -11152810.066 7
  20002473.819   -21168789.769 7 -15492032.02627
  23086945.241    -6326722.522 5   1104489.93823
  19111804.991   -28525640.753 7
  21893079.390    -8460095.259 5  -6401809.36325
  21282506.562   -18228249.308 6 -14021822.07126
 94  1 30  3  8 29.9950000  0  8  9 27  2 13 15  7  4 26
  22283175.022    -5907408.028 5  -4508128.00325
  21621933.351     4613292.611 5   3634743.11725
  19918245.819   -11148228.883 7
  19984342.155   -21264075.746 7 -15566280.81227
  23094502.624    -6286993.143 4   1135447.93123
  19112691.507   -28520994.792 7
  21870096.968    -8580867.727 5  -6495917.73826
  21285310.562   -18213475.164 6 -14010309.74326
 94  1 30  3  8 59.9950000  0  8  9 27  2 13 15  7  4 26
  22260674.194    -6025650.948 5  -4600265.31525
  21637244.296     4693768.945 5   3697451.93325
  19919153.905   -11143461.305 7  -8571685.44729
  19966303.257   -21358867.350 7 -15640144.37827
  23102154.671    -6246797.545 4   1166769.20123
  19113648.452   -28515957.699 7 -22019367.94529
  21847137.194    -8701530.833 5  -6589940.90525
  21288209.046   -18198263.623 6 -13998456.58726
 94  1 30  3  9 29.9950000  0  8  9 27  2 13 15  7  4 26
  22238195.343    -6143759.433 5  -4692297.87325
  21652608.773     4774514.049 5   3760370.19525
  19920101.202   -11138496.990 7  -8567817.13429
  19948363.343   -21453153.954 7 -15713614.43727
  23109893.062    -6206128.937 4   1198459.03223
  19114678.413   -28510525.585 7 -22015135.11529
  21824205.608    -8822052.439 5  -6683853.80626
  21291187.288   -18182603.145 6 -13986253.61826
 94  1 30  3  9 59.9950000  0  7  9 27  2 13  7  4 26
  22215753.835    -6261708.122 5  -4784205.90124
  21668025.960     4855526.908 5   3823497.08825
  19921077.538   -11133356.755 7  -8563811.74629
  19930515.155   -21546934.278 7 -15786689.98427
  19115792.898   -28504688.690 7 -22010586.87729
  21801296.710    -8942417.166 5  -6777644.47126
  21294250.523   -18166495.398 6 -13973702.12726
 94  1 30  3 10 29.9950000  0  7  9 27  2 13  7  4 26
  22193336.991    -6379498.656 5  -4875990.70325
  21683492.327     4936800.581 5   3886827.21625
  19922088.585   -11128045.645 7  -8559673.21729
  19912765.538   -21640210.290 7 -15859372.55927
  19116975.491   -28498456.984 7 -22005730.98629
  21778421.999    -9062624.641 5  -6871312.60625
  21297408.476   -18149926.947 6 -13960791.64026
 94  1 30  3 10 59.9950000  0  7  9 27  2 13  7  4 26
  22170950.898    -6497127.415 5  -4967649.43725
  21699004.124     5018319.989 5   3950348.82125
  19923134.319   -11122543.075 7  -8555385.48928
  19895112.577   -21732977.530 7 -15931658.69827
  19118244.077   -28491804.420 7 -22000547.15929
  21755575.366    -9182676.745 5  -6964859.65625
  21300647.937   -18132891.623 6 -13947517.36226
 94  1 30  3 11 29.9950000  0  7  9 27  2 13  7  4 26
  22148597.312    -6614593.428 5  -5059181.36125
  21714561.476     5100071.398 5   4014051.20125
  19924214.218   -11116862.832 7  -8550959.31429
  19877557.757   -21825234.916 7 -16003547.54627
  19119592.804   -28484727.096 7 -21995032.35229
  21732762.937    -9302596.285 5  -7058303.42625
  21303977.562   -18115395.083 6 -13933883.70326
 94  1 30  3 11 59.9950000  0  7  9 27  2 13  7  4 26
  22126270.726    -6731919.070 5  -5150603.92025
  21730159.483     5182046.012 5   4077927.52125
  19925328.343   -11111004.393 7  -8546394.28929
  19860096.648   -21916983.987 7 -16075040.30327
  19121017.319   -28477237.076 7 -21989195.96929
  21709960.280    -9422409.423 5  -7151664.29025
  21307392.155   -18097452.781 6 -13919902.67826
 94  1 30  3 12 29.9950000  0  7  9 27  2 13  7  4 26
  22103971.351    -6849122.195 5  -5241931.00825
  21745802.218     5264249.241 5   4141981.97325
  19926483.398   -11104948.836 7  -8541675.65728
  19842734.546   -22008226.418 7 -16146138.27427
  19122514.241   -28469351.069 7 -21983051.00929
  21687179.046    -9542116.136 5  -7244942.21125
  21310887.218   -18079091.599 6 -13905595.25226
 94  1 30  3 12 59.9950000  0  7  9 27  2 13  7  4 26
  22081693.647    -6966195.315 5  -5333156.77925
  21761487.343     5346676.389 5   4206210.90225
  19927673.304   -11098695.438 7  -8536802.86928
  19825468.233   -22098961.229 7 -16216840.69927
  19124088.366   -28461075.716 7 -21976602.67329
  21664427.351    -9661706.762 5  -7338129.67325
  21314460.437   -18060332.526 6 -13890977.79926
 94  1 30  3 13 29.9950000  0  8  9 27  2 13 12  7  4 26
  22059436.413    -7083128.943 5  -5424273.86025
  21777218.179     5429330.421 5   4270616.63925
  19928899.710   -11092242.466 7  -8531774.56628
  19808299.280   -22189185.731 7 -16287145.48426
  23117379.702          -0.19213
  19125738.523   -28452422.599 7 -21969859.97329
  21641693.265    -9781159.055 5  -7431209.34925
  21318103.280   -18041175.875 6 -13876050.53526
 94  1 30  3 13 59.9950000  0  8  9 27  2 13 12  7  4 26
  22037215.812    -7199913.412 5  -5515274.71325
  21792987.796     5512219.710 5   4335205.67425
  19930171.522   -11085573.811 7  -8526578.20728
  19791228.382   -22278894.279 7 -16357048.22426
  23095829.515     -113273.943 4
  19127453.452   -28443387.432 7 -21962819.57329
  21618995.788    -9900441.365 5  -7524156.57025
  21321822.179   -18021617.709 6 -13860810.41826
 94  1 30  3 14 29.9950000  0  8  9 27  2 13 12  7  4 26
  22015024.023    -7316534.770 5  -5606148.47125
  21808811.608     5595350.486 5   4399982.89525
  19931476.718   -11078704.214 7  -8521225.26728
  19774256.046   -22368087.496 7 -16426549.41027
  23074264.413     -226572.706 4        -0.27232
  19129249.835   -28433965.330 7 -21955477.66129
  21596332.905   -10019541.515 5  -7616961.84825
  21325621.773   -18001656.108 6 -13845255.93026
 94  1 30  3 14 59.9950000  0  8  9 27  2 13 12  7  4 26
  21992867.632    -7432977.867 5  -5696883.32125
  21824674.585     5678714.494 5   4464941.84725
  19932818.046   -11071650.069 7  -8515728.52228
  19757381.843   -22456756.514 7 -16495642.12027
  23052705.077     -339887.374 4    -88297.38422
  19131123.116   -28424132.106 7 -21947815.39529
  21573699.796   -10138448.557 5  -7709616.64325
  21329500.616   -17981264.508 6 -13829366.35826
 94  1 30  3 15 29.9950000  0  8  9 27  2 13 12  7  4 26
  21970737.898    -7549260.451 5  -5787493.08625
  21840580.780     5762314.126 5   4530084.39725
  19934193.898   -11064425.013 7  -8510098.60028
  19740606.804   -22544906.498 7 -16564330.39226
  23031142.272     -453223.290 4   -176611.03821
  19133072.405   -28413888.729 7 -21939833.53029
  21551112.929   -10257166.208 5  -7802123.87325
  21333462.991   -17960445.295 6 -13813143.59526
 94  1 30  3 15 59.9950000  0  8  9 27  2 13 12  7  4 26
  21948639.835    -7665391.446 5  -5877984.74626
  21856535.632     5846143.154 5   4595405.70725
  19935599.062   -11057045.132 7  -8504348.03228
  19723932.429   -22632536.379 7 -16632613.39827
  23009562.796     -566579.485 5   -264940.50421
  19135096.187   -28403251.344 7 -21931544.64829
  21528554.655   -10375692.584 5  -7894482.05225
  21337505.124   -17939209.226 6 -13796596.00726
 94  1 30  3 16 29.9950000  0  8  9 27  2 13 12  7  4 26
  21926565.304    -7781379.458 5  -5968364.96925
  21872528.929     5930189.713 5   4660896.51325
  19937032.608   -11049517.201 7  -8498482.10428
  19707356.554   -22719645.401 7 -16700490.54127
  22987995.827     -679954.916 5   -353284.93522
  19137190.858   -28392220.044 7 -21922948.82629
  21506034.804   -10494029.529 5  -7986692.62225
  21341625.710   -17917551.015 6 -13779719.47726
 94  1 30  3 16 59.9950000  0  8  9 27  2 13 12  7  4 26
  21904520.499    -7897232.758 5  -6058640.22926
  21888559.452     6014445.301 5   4726550.20225
  19938493.069   -11041829.593 7  -8492491.75628
  19690878.343   -22806233.716 7 -16767961.92727
  22966415.507     -793349.797 5   -441644.51421
  19139364.327   -28380810.363 7 -21914058.15229
  21483555.976   -10612170.090 5  -8078750.16525
  21345831.382   -17895472.324 6 -13762515.29426
 94  1 30  3 17 29.9950000  0  8  9 27  2 13 12  7  4 26
  21882500.507    -8012950.159 5  -6148809.59925
  21904635.999     6098914.666 5   4792370.47625
  19939993.882   -11033963.907 7  -8486362.64828
  19674500.335   -22892299.402 7 -16835026.07227
  22944830.999     -906762.219 5   -530017.77822
  19141601.343   -28369048.987 7 -21904893.43029
  21461106.616   -10730125.109 5  -8170663.12525
  21350104.530   -17872991.097 6 -13744997.46626
 94  1 30  3 17 59.9950000  0  8  9 27  2 13 12  7  4 26
  21860509.507    -8128517.902 5  -6238862.34026
  21920747.648     6183586.126 5   4858348.22025
  19941524.132   -11025907.169 7  -8480084.66328
  19658222.687   -22977842.598 7 -16901683.09027
  22923246.218    -1020192.206 5   -618404.75122
  19143908.116   -28356943.080 7 -21895460.24229
  21438695.952   -10847909.383 6  -8262443.03926
  21354462.312   -17850111.465 6 -13727169.18926
 94  1 30  3 18 29.9950000  0  8  9 27  2 13 12  7  4 26
  21838549.851    -8243917.436 5  -6328784.01726
  21936904.593     6268480.089 5   4924499.33825
  19943098.593   -11017630.445 7  -8473635.26828
  19642045.280   -23062856.679 7 -16967927.80127
  22901658.046    -1133632.939 5   -706800.06822
  19146277.249   -28344471.475 7 -21885742.10229
  21416316.108   -10965527.590 6  -8354093.55826
  21358891.155   -17826832.536 6 -13709029.76426
 94  1 30  3 18 59.9950000  0  8  9 27  2 13 12  7  4 26
  21816626.007    -8359135.923 5  -6418564.61625
  21953102.335     6353603.565 5   4990829.30825
  19944720.515   -11009117.212 7  -8467001.57328
  19625968.601   -23147334.966 7 -17033755.01527
  22880071.640    -1247077.401 4   -795198.29321
  19148717.905   -28331636.564 7 -21875740.85529
  21393963.983   -11082982.616 6  -8445616.92126
  21363393.444   -17803167.996 6 -13690589.84926
 94  1 30  3 19 29.9950000  0  8  9 27  2 13 12  7  4 26
  21794730.226    -8474176.623 5  -6508206.70125
  21969340.179     6438948.524 5   5057331.87525
  19946384.913   -11000373.202 7  -8460188.04928
  19609993.062   -23231285.466 7 -17099170.96927
  22858482.679    -1360533.733 5   -883605.79023
  19151232.944   -28318428.074 7 -21865448.51229
  21371645.679   -11200290.210 6  -8537025.39626
  21367968.015   -17779126.477 6 -13671856.19625
 94  1 30  3 19 59.9950000  0  8  9 27  2 13 12  7  4 26
  21772874.655    -8589037.627 5  -6597708.74725
  21985622.382     6524513.784 5   5124006.09725
  19948093.671   -10991392.695 7  -8453190.25228
  19594119.140   -23314706.034 7 -17164173.97827
  22836892.593    -1473999.255 5   -972020.44622
  19153822.210   -28304824.481 7 -21854848.29429
  21349349.319   -11317430.426 6  -8628303.46026
  21372617.585   -17754693.019 6 -13652817.14626
 94  1 30  3 20 29.9950000  0  8  9 27  2 13 12  7  4 26
  21751053.554    -8703710.856 5  -6687064.48426
  22001950.296     6610305.704 5   5190856.92223
  19949845.905   -10982180.710 7  -8446012.07628
  19578345.663   -23397590.126 7 -17228758.95627
  22815300.538    -1587467.176 5  -1060436.95422
  19156485.679   -28290825.906 7 -21843940.29829
  21327093.616   -11434383.626 6  -8719435.79026
  21377342.288   -17729866.685 6 -13633471.94626
 94  1 30  3 20 59.9950000  0  8  9 27  2 13 12  7  4 26
  21729268.280    -8818199.843 5  -6776276.65326
  22018311.069     6696298.489 5   5257864.29324
  19951637.577   -10972759.757 7  -8438671.06928
  19562676.007   -23479942.168 7 -17292929.35427
  22793700.983    -1700941.591 5  -1148858.56823
  19159221.812   -28276451.802 7 -21832739.68729
  21304876.335   -11551144.168 6  -8810417.99626
  21382141.523   -17704642.336 5 -13613816.60926
 94  1 30  3 21 29.9950000  0  8  9 27  2 13 12  7  4 26
  21707515.108    -8932490.630 5  -6865334.38126
  22034718.835     6782497.788 5   5325032.57025
  19953468.077   -10963140.610 7  -8431175.63028
  19547106.843   -23561756.604 7 -17356680.83927
  22772107.937    -1814416.580 5  -1237280.58722
  19162031.593   -28261698.112 7 -21821243.29629
  21282696.554   -11667702.044 6  -8901242.28426
  21387017.280   -17679007.657 6 -13593841.53726
 94  1 30  3 21 59.9950000  0  8  9 27  2 13 12  7  4 26
  21685807.577    -9046578.855 5  -6954234.28626
  22051153.444     6868890.215 5   5392351.32425
  19955334.273   -10953350.955 7  -8423547.32428
  19531637.929   -23643039.907 7 -17420018.45227
  22750515.882    -1927898.160 5  -1325707.75121
  19164903.210   -28246588.425 7 -21809469.50729
  21260550.515   -11784060.455 6  -8991911.14926
  21391974.085   -17652983.104 6 -13573562.66226
 94  1 30  3 22 29.9950000  0  8  9 27  2 13 12  7  4 26
  21664140.593    -9160442.666 5  -7042959.30826
  22067636.569     6955480.768 5   5459824.47525
  19957221.687   -10943410.997 7  -8415801.89028
  19516273.351   -23723784.320 7 -17482936.14727
  22728924.608    -2041378.345 5  -1414133.85822
  19167850.921   -28231130.432 7 -21797424.30429
  21238451.952   -11900212.009 6  -9082418.82426
  21396997.671   -17626568.588 6 -13552979.91926
 94  1 30  3 23 29.9940000  0  8  9 27  2 13 12  7  4 26
  21620924.885    -9387530.787 5
  22100701.518     7129259.838 5   5595236.71225
  19961088.572   -10923100.450 7  -8399975.48628
  19485853.299   -23883645.355 7 -17607503.12827
  22685734.072    -2268319.923 5
  19173932.799   -28199146.538 7 -21772501.77429
  21194363.525   -12131885.080 6  -9262943.23526
  21407276.463   -17572556.184 6 -13510892.33626
 94  1 30  3 23 59.9940000  0  8  9 27  2 13 12  7  4 26
  21599375.471    -9500770.501 5  -7308149.76425
  22117293.033     7216441.711 5   5663170.62225
  19963064.111   -10912719.574 7  -8391886.48328
  19470796.861   -23962767.022 7 -17669156.35527
  22664144.900    -2381786.476 5  -1679386.87823
  19177076.041   -28182628.891 7 -21759630.86729
  21172382.408   -12247398.623 6  -9352953.76026
  21412528.104   -17544973.677 6 -13489399.46826
 94  1 30  3 24 29.9940000  0  8  9 27  2 13 12  7  4 26
  21577864.143    -9613825.014 6  -7396244.16726
  22133919.049     7303809.360 4   5731249.28825
  19965071.940   -10902159.459 7  -8383657.81128
  19455843.900   -24041345.903 7 -17730386.62627
  22642552.479    -2495245.621 5  -1767796.59223
  19180285.986   -28165767.547 7 -21746492.14229
  21150443.080   -12362682.363 6  -9442785.21626
  21417848.650   -17517012.030 6 -13467611.17026
 94  1 30  3 24 59.9940000  0  8  9 27  2 13 12  7  4 26
  21556381.025    -9726708.505 6  -7484205.30426
  22150580.924     7391365.652 4   5799474.95625
  19967120.080   -10891386.006 7  -8375262.90928
  19440994.900   -24119379.900 7 -17791192.31427
  22620957.338    -2608694.471 5  -1856198.27423
  19183561.986   -28148562.486 7 -21733085.59729
  21128550.377   -12477743.008 6  -9532442.83226
  21423234.971   -17488683.608 6 -13445537.07325
 94  1 30  3 25 29.9940000  0  8  9 27  2 13 12  7  4 26
  21534939.479    -9839392.785 6  -7572011.21326
  22167278.260     7479113.395 4   5867849.80525
  19969217.400   -10880375.884 7  -8366683.59228
  19426250.455   -24196865.222 7 -17851570.45927
  22599382.440    -2722128.823 5  -1944588.62723
  19186899.588   -28131019.525 7 -21719415.75429
  21106699.049   -12592572.504 6  -9621920.33326
  21428694.096   -17460001.410 6 -13423187.30326
 94  1 30  3 25 59.9940000  0  8  9 27  2 13 12  7  4 26
  21513533.596    -9951884.799 6  -7659667.29726
  22184010.447     7567044.687 4   5936367.67525
  19971359.846   -10869127.682 7  -8357918.75328
  19411608.627   -24273808.228 7 -17911526.02127
  22577796.057    -2835554.182 5  -2032971.99825
  19190296.697   -28113151.279 7 -21705492.43629
  21084890.330   -12707167.356 6  -9711214.99526
  21434216.986   -17430985.591 6 -13400577.58226
 94  1 30  3 26 29.9940000  0  8  9 27  2 13 12  7  4 26
  21492165.174   -10064180.325 6  -7747170.27226
  22200780.190     7655170.970 4   6005037.50925
  19973542.963   -10857635.165 7  -8348963.53728
  19397069.729   -24350210.243 7 -17971060.03827
  22556212.260    -2948971.251 5  -2121348.89424
  19193760.088   -28094958.066 7 -21691315.90529
  21063127.080   -12821554.667 6  -9800347.92826
  21439803.729   -17401636.023 6 -13377707.78426
 94  1 30  3 26 59.9940000  0  8  9 27  2 13 12  7  4 26
  21470835.807   -10176254.332 6  -7834500.63626
  22217588.244     7743502.318 4   6073867.12024
  19975778.080   -10845898.486 7  -8339818.07128
  19382635.111   -24426059.979 7 -18030163.70227
  22534632.275    -3062368.100 5  -2209710.04124
  19197286.705   -28076424.635 7 -21676874.25929
  21041399.705   -12935715.328 6  -9889304.26126
  21445457.416   -17371927.393 5 -13354558.20526
 94  1 30  3 27 29.9940000  0  8  9 27  2 13 12  7  4 26
  21449554.729   -10288097.697 6  -7921651.28526
  22234432.018     7832019.966 4   6142841.89224
  19978055.104   -10833939.384 7  -8330499.28928
  19368305.393   -24501357.804 7 -18088837.30127
  22513058.150    -3175744.379 5  -2298055.14925
  19200879.080   -28057546.863 7 -21662164.29229
  21019720.963   -13049632.728 6  -9978071.03526
  21451172.682   -17341849.143 5 -13331120.60626
 94  1 30  3 27 59.9940000  0  8  9 27  2 13 12  7  4 26
  21428312.533   -10399726.520 6  -8008634.74026
  22251308.947     7920702.120 4   6211944.85624
  19980370.143   -10821774.000 7  -8321019.76328
  19354082.361   -24576105.930 7 -18147082.57427
  22491487.182    -3289101.302 5  -2386385.15924
  19204535.307   -28038329.358 7 -21647189.60729
  20998088.690   -13163306.412 6 -10066647.89526
  21456970.979   -17311396.921 5 -13307391.60826
 94  1 30  3 28 29.9940000  0  8  9 27  2 13 12  7  4 26
  21407107.354   -10511150.297 6  -8095458.42326
  22268215.346     8009529.611 4   6281161.07925
  19982717.713   -10809427.149 7  -8311398.83928
  19339961.885   -24650310.853 7 -18204904.57027
  22469911.322    -3402444.564 5
  19208259.166   -28018773.161 7 -21631951.00929
  20976507.002   -13276739.511 6
  21462840.361   -17280564.759 5 -13283366.55125
 94  1 30  3 28 59.9940000  0  8  9 27  2 13 12  7  4 26
  21385945.955   -10622366.773 6  -8182120.58026
  22285141.322     8098484.487 4   6350476.54224
  19985098.619   -10796919.059 7  -8301652.27528
  19325946.479   -24723970.217 7 -18262301.45327
  22448355.307    -3515771.063 5  -2563010.85224
  19212042.979   -27998877.107 7 -21616447.58129
  20954969.393   -13389905.300 6 -10243218.39126
  21468774.666   -17249363.158 5 -13259053.61226
 94  1 30  3 29 29.9940000  0  8  9 27  2 13 12  7  4 26
  21364820.854   -10733367.013 6  -8268614.23426
  22302092.455     8187572.388 4   6419895.67725
  19987510.885   -10784246.996 7  -8291777.94228
  19312033.721   -24797081.608 7 -18319271.34627
  22426790.760    -3629077.386 5  -2651301.46225
  19215892.104   -27978644.849 7 -21600682.16629
  20933486.729   -13502807.062 6 -10331193.75326
  21474784.127   -17217812.886 5 -13234468.99425
 94  1 30  3 29 59.9940000  0  8  9 27  2 13 12  7  4 26
  21343740.182   -10844147.465 6  -8354936.62426
  22319076.143     8276817.064 4   6489436.97525
  19989955.979   -10771391.219 7  -8281760.44728
  19298225.713   -24869638.234 7 -18375808.96427
  22405242.018    -3742355.756 5  -2739570.27524
  19219807.986   -27958073.099 7 -21584652.23829
  20912049.408   -13615453.292 6 -10418969.99826
  21480851.049   -17185920.487 6 -13209617.78325
 94  1 30  3 30 29.9940000  0  8  9 27  2 13 12  7  4 26
  21322704.596   -10954699.190 6  -8441080.79226
  22336092.096     8366242.047 4   6559118.76523
  19992439.330   -10758345.267 7  -8271594.76828
  19284524.760   -24941638.109 7 -18431912.73327
  22383686.275    -3855603.364 5  -2827815.10225
  19223791.221   -27937152.210 7 -21568350.23929
  20890661.275   -13727843.490 6 -10506546.74826
  21486982.713   -17153693.502 6 -13184505.85325
 94  1 30  3 30 59.9940000  0  8  9 27  2 13 12  7  4 26
  21301709.057   -11065014.393 6  -8527040.65426
  22353144.127     8455855.977 4   6628947.78724
  19994959.604   -10745094.680 7  -8261269.63028
  19270928.838   -25013080.533 7 -18487582.13327
  22362141.900    -3968818.485 5  -2916034.63924
  19227837.650   -27915884.734 7 -21551778.17329
  20869324.494   -13839977.206 6 -10593923.64526
  21493177.182   -17121151.225 5 -13159148.23625
 94  1 30  3 31 29.9940000  0  8  9 27  2 13 12  7  4 26
  21280763.604   -11175091.994 6  -8612815.36826
  22370240.713     8545666.488 4   6698929.99424
  19997524.565   -10731623.627 7  -8250772.70328
  19257441.025   -25083965.581 7 -18542817.22027
  22340601.408    -4082000.015 5  -3004228.00924
  19231948.111   -27894269.558 7 -21534935.17629
  20848033.791   -13951864.537 6 -10681108.55126
  21499432.182   -17088285.619 5 -13133538.68525
 94  1 30  3 31 59.9940000  0  8  9 27  2 13 12  7  4 26
  21259859.596   -11284938.722 6  -8698410.18326
  22387362.330     8635657.116 4   6769052.55324
  20000126.893   -10717943.375 7  -8240112.76028
  19244056.846   -25154299.138 7 -18597622.57027
  22319072.033    -4195152.852 5  -3092399.02725
  19236127.854   -27872312.718 7 -21517825.94929
  20826787.682   -14063508.477 6 -10768103.79626
  21505744.869   -17055090.712 5 -13107672.51925
 94  1 30  3 32 29.9940000  0  8  9 27  2 13 12  7  4 26
  21239003.190   -11394537.822 6  -8783812.05326
  22404518.721     8725819.546 4   6839308.99025
  20002768.838   -10704054.395 7  -8229290.17428
  19230778.096   -25224074.554 7 -18651993.00127
  22297544.322    -4308269.231 5  -3180541.61825
  19240369.924   -27850027.718 7 -21500461.01129
  20805592.400   -14174889.097 6 -10854893.85726
  21512128.080   -17021562.214 5 -13081546.42625
 94  1 30  3 32 59.9940000  0  8  9 27  2 13 12  7  4 26
  21218196.135   -11503886.657 6  -8869018.90026
  22421704.135     8816133.433 3   6909683.43524
  20005453.682   -10689958.012 7  -8218305.97828
  19217607.393   -25293292.787 7 -18705929.26227
  22276029.721    -4421348.940 5  -3268655.64925
  19244666.104   -27827432.574 7 -21482854.39729
  20784449.283   -14286003.918 6 -10941476.80626
  21518575.541   -16987687.399 5 -13055150.46425
 94  1 30  3 33 29.9940000  0  8  9 27  2 13 12  7  4 26
  21197438.580   -11612975.728 6  -8954023.34526
  22438916.439     8906587.531 3   6980167.13223
  20008172.393   -10675658.472 7  -8207163.48028
  19204539.752   -25361958.358 7 -18759434.88027
  22254516.963    -4534395.257 5  -3356743.67823
  19249024.400   -27804547.417 7 -21465021.79329
  20763348.549   -14396858.466 6 -11027856.93826
  21525085.518   -16953464.932 5 -13028483.60325
 94  1 30  3 33 59.9940000  0  8  9 27  2 13 12  7  4 26
  21176729.322   -11721796.355 6  -9038818.61126
  22456157.033     8997188.024 3   7050764.90324
  20010933.932   -10661146.252 7  -8195855.24928
  19191579.690   -25430062.445 7 -18812502.98427
  22233013.268    -4647398.210 5  -3444797.90325
  19253432.900   -27781376.255 7 -21446966.33429
  20742310.822   -14507438.418 6 -11114023.11526
  21531664.830   -16918903.876 5 -13001552.91125
 94  1 30  3 34 29.9940000  0  8  9 27  2 13 12  7  4 26
  21156072.565   -11830355.213 6  -9123409.90426
  22473425.018     9087932.209 3   7121474.63423
  20013739.604   -10646420.529 7  -8184380.65528
  19178727.049   -25497607.698 7 -18865135.62827
  22211517.619    -4760359.233 5  -3532819.45724
  19257891.854   -27757930.429 7 -21428696.84729
  20721320.580   -14617738.870 6 -11199971.49626
  21538302.533   -16884019.644 5 -12974370.41225
 94  1 30  3 34 59.9940000  0  8  9 27  2 13 12  7  4 26
  21135460.963   -11938656.355 6  -9207800.38026
  22490722.775     9178819.373 3   7192295.79524
  20016580.150   -10631479.466 7  -8172738.27028
  19165979.361   -25564595.991 7 -18917334.27927
  22190033.330    -4873278.702 5  -3620808.63425
  19262409.557   -27734199.000 7 -21410204.82029
  20700387.760   -14727755.349 6 -11285698.58926
  21544999.924   -16848816.183 5 -12946939.14125
 94  1 30  3 35 29.9940000  0  8  9 27  2 13 12  7  4 26
  21114898.783   -12046700.181 6  -9291990.34826
  22508044.994     9269859.755 3   7263236.33623
  20019465.486   -10616317.777 7  -8160923.95928
  19153337.393   -25631024.078 7 -18969096.40027
  22168549.119    -4986152.333 5  -3708762.07625
  19266983.994   -27710172.694 7 -21391483.01529
  20679504.275   -14837489.448 6 -11371205.65226
  21551755.643   -16813312.329 5 -12919273.80725
 94  1 30  3 35 59.9940000  0  8  9 27  2 13 12  7  4 26
  21094386.080   -12154507.375 6  -9375995.93426
  22525402.338     9361048.058 3   7334292.15523
  20022391.572   -10600939.212 7  -8148940.65728
  19140804.080   -25696893.554 7 -19020423.24027
  22147076.455    -5098980.059 5  -3796679.78925
  19271614.471   -27685833.745 7 -21372517.59429
  20658678.924   -14946932.578 6 -11456485.98426
  21558566.291   -16777516.578 5 -12891381.01825
 94  1 30  3 36 29.9940000  0  8  9 27  2 13 12  7  4 26
  21073919.158   -12262070.066 6  -9459811.00126
  22542778.299     9452381.078 3   7405460.73424
  20025360.799   -10585345.777 7  -8136789.92528
  19128374.557   -25762204.094 7 -19071314.55027
  22125617.025    -5211760.257 5  -3884560.44125
  19276308.494   -27661165.897 7 -21353295.88829
  20637908.221   -15056083.188 6 -11541538.37826
  21565437.736   -16741419.583 5 -12863253.50025
 94  1 30  3 36 59.9940000  0  8  9 27  2 13 12  7  4 26
  21053498.135   -12369380.874 6  -9543429.78326
  22560183.455     9543857.451 3   7476741.00722
  20028369.182   -10569540.504 7  -8124474.12328
  19116053.838   -25826954.905 7 -19121769.70327
  22104164.861    -5324491.116 5  -3972402.63425
  19281065.166   -27636159.952 7 -21333810.73529
  20617191.236   -15164944.944 6 -11626365.68926
  21572361.588   -16705020.486 5 -12834890.57825
 94  1 30  3 37 29.9940000  0  8  9 27  2 13 12  7  4 26
  21033124.572   -12476449.376 6  -9626859.77126
  22577619.729     9635470.225 3   7548127.57222
  20031413.502   -10553528.499 7  -8111997.23428
  19103840.424   -25891144.349 7 -19171787.43327
  22082722.635    -5437169.026 5  -4060203.58225
  19285887.815   -27610817.616 7 -21314063.45129
  20596529.010   -15273518.776 6 -11710968.64626
  21579348.690   -16668323.121 5 -12806295.23825
 94  1 30  3 37 59.9940000  0  8  9 27  2 13 12  7  4 26
  21012797.666   -12583273.588 6  -9710099.39326
  22595078.369     9727209.363 3   7619612.61722
  20034498.877   -10537315.969 7  -8099364.08728
  19091732.010   -25954771.437 7 -19221366.96727
  22061293.635    -5549791.557 5  -4147961.38825
  19290775.439   -27585144.512 7 -21294058.43029
  20575928.596   -15381793.097 6 -11795338.22226
  21586391.940   -16631314.590 5 -12777457.44025
 94  1 30  3 38 29.9940000  0  8  9 27  2 13 12  7  4 26
  20992515.611   -12689840.133 6  -9793138.24626
  22612560.541     9819075.265 3   7691196.44622
  20037621.447   -10520908.808 7  -8086579.28128
  19079729.564   -26017833.134 7 -19270505.93027
  22039869.057    -5662354.351 5  -4235672.61324
  19295720.143   -27559162.172 7 -21273812.44229
  20555377.596   -15489776.757 6 -11879481.30926
  21593493.830   -16593988.679 5 -12748372.31825
 94  1 30  3 38 59.9940000  0  8  9 27  2 13 12  7  4 26
  20972283.815   -12796161.318 6  -9875985.90226
  22630064.643     9911061.637 3   7762874.10923
  20040780.830   -10504313.726 7  -8073648.04528
  19067836.486   -26080332.099 7 -19319206.40227
  22018460.322    -5774858.462 5  -4323338.12723
  19300717.236   -27532886.833 7 -21253338.14829
  20534888.033   -15597460.291 6 -11963390.52626
  21600654.666   -16556363.965 5 -12719054.36925
 94  1 30  3 39 29.9940000  0  8  9 27  2 13 12  7  4 26
  20952101.213   -12902232.488 6  -9958638.74626
  22647590.322    10003164.977 3   7834642.93922
  20043976.346   -10487515.330 7  -8060558.38328
  19056053.393   -26142266.291 7 -19367466.78727
  21997066.588    -5887300.091 5  -4410954.96625
  19305774.096   -27506318.254 7 -21232635.35429
  20514452.322   -15704831.250 6 -12047056.18826
  21607868.190   -16518440.359 5 -12689503.51625
 94  1 30  3 39 59.9940000  0  8  9 27  2 13 12  7  4 26
  20931967.447   -13008026.994 6 -10041076.00226
  22665141.525    10095394.744 3   7906510.27222
  20047210.940   -10470509.936 7  -8047307.42628
  19044372.190   -26203637.572 7 -19415288.55127
  21975680.010    -5999679.705 5  -4498523.46225
  19310886.979   -27479458.332 7 -21211705.53629
  20494079.541   -15811890.632 6 -12130479.05326
  21615141.736   -16480221.139 5 -12659722.31425
 94  1 30  3 40 29.9940000  0  8  9 27  2 13 12  7  4 26
  20911891.744   -13113533.454 6 -10123288.81526
  22682715.549    10187750.083 3   7978475.44422
  20050490.971   -10453293.184 7  -8033891.77728
  19032799.510   -26264447.474 7 -19462672.87527
  21954308.479    -6111997.038 5  -4586043.43725
  19316050.947   -27452309.157 7 -21190550.32729
  20473771.354   -15918626.507 6 -12213649.85326
  21622469.299   -16441735.009 5 -12629733.12525
 94  1 30  3 40 59.9940000  0  8  9 27  2 13 12  7  4 26
  20891871.830   -13218735.645 6 -10205264.53526
  22700313.213    10280229.009 3   8050536.95522
  20053805.322   -10435858.023 7  -8020305.93428
  19021337.111   -26324694.757 7 -19509618.78627
  21932949.455    -6224249.084 5  -4673512.51025
  19321277.822   -27424855.447 7 -21169157.81829
  20453524.088   -16025015.617 6 -12296550.42126
  21629837.877   -16402978.300 5 -12599533.09925
 94  1 30  3 41 29.9940000  0  8  9 24  2 13 12  7  4 26
  20871914.416   -13323617.936 6 -10286990.98526
  22548444.940          -0.93214
  20057165.494   -10418204.865 7  -8006550.22428
  19009980.502   -26384376.430 7 -19556123.96427
  21911598.705    -6336431.061 5  -4760927.02125
  19326556.322   -27397101.150 7 -21147531.08929
  20433343.791   -16131067.241 6 -12379188.02127
  21637269.291   -16363927.599 5 -12569103.99425
 94  1 30  3 41 59.9940000  0  8  9 24  2 13 12  7  4 26
  20852015.510   -13428187.972 6 -10368474.11727
  22523799.924     -129503.579 4
  20060563.260   -10400350.833 7  -7992637.98328
  18998728.518   -26443498.001 7 -19602192.70327
  21890263.096    -6448547.001 5  -4848290.06025
  19331891.440   -27369071.128 7 -21125689.51029
  20413220.822   -16236797.634 6 -12461575.31427
  21644755.604   -16324590.710 5 -12538451.87025
 94  1 30  3 42 29.9940000  0  8  9 24  2 13 12  7  4 26
  20832174.213   -13532456.104 6 -10449721.99927
  22499167.393     -258961.959 4
  20063999.760   -10382288.994 7  -7978563.83128
  18987585.979   -26502054.548 7 -19647821.16427
  21868942.471    -6560589.806 5  -4935596.09125
  19337277.252   -27340773.606 7 -21103639.48729
  20393166.385   -16342199.378 6 -12543706.52327
  21652297.486   -16284951.207 5 -12507563.94925
 94  1 30  3 42 59.9940000  0  8  9 24  2 13 12  7  4 26
  20812386.096   -13636428.606 6 -10530739.52427
  22474544.986     -388360.145 4        -0.33534
  20067479.455   -10364014.736 7  -7964324.14628
  18976550.885   -26560046.041 7 -19693009.32727
  21847635.213    -6672557.929 5  -5022843.94925
  19342709.783   -27312209.557 7 -21081381.78229
  20373167.018   -16447291.693 6 -12625596.60927
  21659906.322   -16244988.730 5 -12476424.36825
 94  1 30  3 43 29.9940000  0  8  9 24  2 13 12  7  4 26
  20792656.861   -13740115.159 6 -10611534.22727
  22449927.729     -517705.525 4   -100788.89824
  20070998.525   -10345519.186 7  -7949912.03028
  18965623.307   -26617471.101 7 -19737756.11027
  21826342.799    -6784447.766 5  -5110030.79425
  19348196.143   -27283386.001 7 -21058921.86629
  20353230.729   -16552080.929 6 -12707250.52927
  21667570.236   -16204722.856 5 -12445048.37325
 94  1 30  3 43 59.9940000  0  8  9 24  2 13 12  7  4 26
  20772981.932   -13843508.761 6 -10692100.65727
  22425327.166     -647000.030 5   -201537.82323
  20074561.268   -10326785.732 7  -7935314.52628
  18954803.885   -26674327.558 7 -19782059.82027
  21805068.127    -6896255.534 5  -5197153.69925
  19353733.463   -27254292.460 7 -21036251.56729
  20333348.033   -16656548.150 6 -12788653.53327
  21675281.346   -16164185.050 5 -12413460.48625
 94  1 30  3 44 29.9940000  0  8  9 24  2 13 12  7  4 26
  20753360.354   -13946613.583 6 -10772442.05827
  22400724.471     -776263.809 5   -302262.80323
  20078171.072   -10307820.660 7  -7920536.55128
  18944091.361   -26730621.821 7 -19825925.46527
  21783809.369    -7007985.501 5  -5284215.98025
  19359323.674   -27224910.685 7 -21013356.67529
  20313532.502   -16760683.384 6 -12869797.84427
  21683045.947   -16123399.231 5 -12381679.34525
 94  1 30  3 44 59.9940000  0  8  9 24  2 13 12  7  4 26
  20733797.971   -14049422.020 6 -10852552.51627
  22376129.760     -905507.397 5   -402972.05524
  20081824.299   -10288632.956 7  -7905585.09927
  18933487.158   -26786348.956 7 -19869349.18527
  21762560.494    -7119630.953 5  -5371212.39725
  19364972.432   -27195227.054 7 -20990226.57129
  20293782.111   -16864471.196 6 -12950671.44227
  21690846.690   -16082392.982 5 -12349726.43125
 94  1 30  3 45 29.9940000  0  8  9 24  2 13 12  7  4 26
  20714289.033   -14151936.546 6 -10932433.95227
  22351547.283    -1034724.105 5   -503660.36723
  20085517.174   -10269221.997 7  -7890459.67627
  18922989.885   -26841507.828 7 -19912330.10627
  21741331.963    -7231188.537 5  -5458140.36425
  19370677.158   -27165247.273 7 -20966865.70029
  20274101.174   -16967892.691 6 -13031259.59227
  21698683.338   -16041180.369 5 -12317612.72025
 94  1 30  3 45 59.9940000  0  8  9 24  2 13 12  7  4 26
  20694837.604   -14254157.593 6 -11012086.70327
  22326963.111    -1163893.117 5   -604311.51123
  20089252.455   -10249594.325 7  -7875165.37827
  18912602.611   -26896095.799 7 -19954866.17027
  21720121.455    -7342653.629 5  -5544996.25125
  19376435.916   -27134982.225 7 -20943282.54529
  20254493.197   -17070944.132 6 -13111559.39427
  21706573.244   -15999741.313 5 -12285322.56025
 94  1 30  3 46 29.9940000  0  8  9 24  2 13 12  7  4 26
  20675440.525   -14356087.973 6 -11091512.96227
  22302393.557    -1293017.786 5   -704928.09924
  20093025.572   -10229758.014 7  -7859708.51427
  18902322.307   -26950116.441 7 -19996960.16327
  21698926.315    -7454027.666 6  -5631781.18425
  19382248.158   -27104451.107 7 -20919492.05529
  20234949.744   -17173632.132 6 -13191575.99627
  21714507.869   -15958051.554 5 -12252837.04125
 94  1 30  3 46 59.9940000  0  8  9 24  2 13 12  7  4 26
  20656098.533   -14457729.094 6 -11170713.82627
  22277831.721    -1422087.747 5   -805502.04824
  20096840.549   -10209705.663 6  -7844083.30728
  18892150.369   -27003573.063 7 -20038614.65827
  21677751.299    -7565311.930 6  -5718496.17425
  19388101.010   -27073686.773 7 -20895519.84329
  20215476.252   -17275964.767 6 -13271315.68927
  21722490.541   -15916094.499 5 -12220143.24625
 94  1 30  3 47 29.9940000  0  8  9 24  2 13 12  7  4 26
  20636813.994   -14559075.031 6 -11249684.67027
  22253279.315    -1551109.462 5   -906038.40525
  20100700.510   -10189420.228 6  -7828276.48427
  18882085.182   -27056466.318 7 -20079830.16227
  21656588.650    -7676505.008 5  -5805140.10225
  19393999.643   -27042693.380 7 -20871369.13729
  20196069.791   -17377953.818 6 -13350787.65727
  21730530.283   -15873846.778 5 -12187222.94125
 94  1 30  3 47 59.9940000  0  8  9 24  2 13 12  7  4 26
  20617588.025   -14660110.782 6 -11328413.81327
  22228734.658    -1680102.927 5  -1006552.76223
  20104605.283   -10168908.201 6  -7812293.08527
  18872126.619   -27108797.372 7 -20120607.59827
  21635450.604    -7787605.691 6  -5891712.04525
  19399943.408   -27011458.263 7 -20847030.08429
  20176724.502   -17479607.273 6 -13429998.11527
  21738621.705   -15831313.003 5 -12154079.76725
 94  1 30  3 48 29.9940000  0  8  9 24  2 13 12  7  4 26
  20598424.815   -14760805.661 6 -11406877.33326
  22204188.627    -1809063.295 5  -1107041.30523
  20108555.315   -10148152.280 6  -7796119.64127
  18862278.510   -27160551.078 7 -20160935.14527
  21614328.494    -7898596.826 6  -5978198.61025
  19405940.072   -26979943.164 7 -20822472.86829
  20157449.143   -17580904.521 6 -13508931.01327
  21746769.127   -15788505.370 5 -12120723.16125
 94  1 30  3 48 59.9940000  0  8  9 24  2 13 12  7  4 26
  20579325.955   -14861180.400 6 -11485091.40027
  22179655.900    -1937997.978 5  -1207509.84524
  20112545.729   -10127170.443 6  -7779770.16027
  18852536.861   -27211744.872 7 -20200826.39627
  21593224.315    -8009493.492 6  -6064611.58525
  19411987.807   -26948160.691 7 -20797707.29729
  20138235.658   -17681864.150 6 -13587600.83427
  21754957.955   -15745468.028 5 -12087187.59225
 94  1 30  3 49 29.9940000  0  8  9 24  2 13 12  7  4 26
  20560285.252   -14961225.947 6 -11563048.95326
  22155129.604    -2066897.823 5  -1307951.24024
  20116581.666   -10105971.813 6  -7763251.74727
  18842901.494   -27262377.551 7 -20240280.42127
  21572142.635    -8120291.980 6  -6150948.04625
  19418090.432   -26916098.952 7 -20772724.11929
  20119090.221   -17782472.484 6 -13665996.92027
  21763193.385   -15702213.895 5 -12053483.07625
 94  1 30  3 49 59.9940000  0  8  9 24  2 13 12  7  4 26
  20541310.690   -15060936.880 6 -11640745.78226
  22130606.463    -2195734.380 5  -1408343.34224
  20120657.846   -10084558.781 6  -7746566.27227
  18833373.924   -27312445.306 7 -20279294.23727
  21551076.111    -8230986.485 6  -6237203.48925
  19424241.002   -26883764.361 7 -20747528.32929
  20100016.166   -17882713.430 6 -13744106.72527
  21771461.721   -15658751.157 5 -12019616.02125
 94  1 30  3 50 29.9940000  0  8  9 24  2 13 12  7  4 26
  20522402.830   -15160305.833 6 -11718176.12327
  22106113.463    -2324479.229 5  -1508663.94324
  20124773.330   -10062929.346 6  -7729712.17027
  18823953.565   -27361943.978 7 -20317864.61927
  21530033.627    -8341570.291 6  -6323372.68725
  19430441.939   -26851180.828 7 -20722138.55829
  20081013.893   -17982569.854 6 -13821916.91327
  21779776.182   -15615061.309 5 -11985571.98325
 94  1 30  3 50 59.9940000  0  8  9 24  2 13 12  7  4 26
  20503557.674   -15259332.068 6 -11795339.40727
  22081628.783    -2453123.344 5  -1608906.06824
  20128931.807   -10041080.836 6  -7712687.35627
  18814642.354   -27410875.560 7 -20355993.11127
  21509010.346    -8452043.122 6  -6409455.39126
  19436685.049   -26818370.402 7 -20696571.99329
  20062084.744   -18082041.816 6 -13899427.50727
  21788131.244   -15571127.660 5 -11951337.98725
 94  1 30  3 51 29.9940000  0  8  9 24  2 13 12  7  4 26
  20484777.229   -15358010.758 6 -11872231.88027
  22057168.135    -2581687.296 5  -1709085.73524
  20133128.080   -10019019.733 6  -7695496.88727
  18805438.197   -27459245.290 7 -20393683.80327
  21488012.174    -8562407.620 6  -6495453.68825
  19442972.979   -26785328.705 7 -20670825.21329
  20043228.650   -18181128.669 6 -13976638.02027
  21796543.682   -15526950.311 5 -11916914.08325
 94  1 30  3 51 59.9940000  0  8  9 24  2 13 12  7  4 26
  20466069.197   -15456334.746 6 -11948847.95827
  22032710.510    -2710189.418 5  -1809217.21425
  20137366.869    -9996737.549 6  -7678134.14627
  18796340.572   -27507055.893 7 -20430938.80727
  21467029.525    -8672664.311 6  -6581367.97725
  19449306.268   -26752050.576 7 -20644894.19529
  20024445.166   -18279840.088 6 -14053555.99527
  21804993.760   -15482539.113 5 -11882307.95725
 94  1 30  3 52 29.9940000  0  8  9 24  2 13 12  7  4 26
  20447429.447   -15554291.062 6 -12025177.54827
  22008276.088    -2838630.899 5  -1909301.44424
  20141651.033    -9974226.147 6  -7660592.79427
  18787349.986   -27554299.477 7 -20467751.97427
  21446068.650    -8782802.660 6  -6667190.05325
  19455688.682   -26718524.821 7 -20618770.22529
  20005734.572   -18378166.523 6 -14130173.97627
  21813482.955   -15437900.709 5 -11847524.79625
 94  1 30  3 52 59.9940000  0  8  9 24  2 13 12  7  4 26
  20428857.174   -15651894.832 6 -12101232.40827
  21983841.510    -2967028.267 5  -2009351.29925
  20145979.229    -9951476.015 6  -7642865.41627
  18778466.900   -27600978.778 7 -20504125.44527
  21425134.596    -8892822.949 6  -6752920.13125
  19462119.658   -26684727.484 7 -20592434.63729
  19987094.111   -18476116.793 6 -14206498.84327
  21822021.408   -15393059.379 5 -11812583.50625
 94  1 30  3 53 29.9940000  0  8  9 24  2 13 12  7  4 26
  20410346.775   -15749157.312 6 -12177021.34127
  21959413.588    -3095380.862 5  -2109366.28425
  20150357.400    -9928491.249 6  -7624955.21727
  18769693.385   -27647088.826 7 -20540055.33827
  21404222.947    -9002717.494 6  -6838552.24026
  19468603.775   -26650643.888 7 -20565875.99129
  19968530.299   -18573677.821 6 -14282520.40527
  21830597.338   -15348019.093 5 -11777487.18625
 94  1 30  3 53 59.9940000  0  8  9 24  2 13 12  7  4 26
  20391899.377   -15846093.521 6 -12252556.02827
  21935002.150    -3223668.613 5  -2209330.70925
  20154773.166    -9905286.007 6  -7606873.22127
  18761024.846   -27692636.748 7 -20575547.21527
  21383332.268    -9112491.040 6  -6924090.05425
  19475137.643   -26616300.759 7 -20539115.10829
  19950037.877   -18670854.828 6 -14358242.72827
  21839200.713   -15302787.960 5 -11742242.16525
 94  1 30  3 54 29.9940000  0  8  9 24  2 13 12  7  4 26
  20373513.986   -15942717.391 6
  21910607.104    -3351868.333 5  -2309226.54925
  20159227.416    -9881867.989 6  -7588625.41627
  18752465.908   -27737618.837 7 -20610598.18127
  21362467.244    -9222137.189 6  -7009528.59026
  19481724.408   -26581698.213 7 -20512152.07529
  19931620.705   -18767629.033 6
  21847841.697   -15257353.074 4 -11706838.36925
 94  1 30  3 54 59.9940000  0  8  9 24  2 13 12  7  4 26
  20355181.580   -16039042.263 6
  21886229.760    -3479964.391 5  -2409041.61125
  20163724.604    -9858238.803 6  -7570213.06227
  18744013.111   -27782036.434 7 -20645209.28127
  21341628.752    -9331654.620 6  -7094866.83025
  19488359.096   -26546836.921 7 -20484987.42929
  19913285.549   -18864001.685 6
  21856534.885   -15211697.982 5 -11671262.98725
 94  1 30  3 55 29.9940000  0  8  9 24  2 13 12  7  4 26
  20336913.565   -16135049.396 6
  21861879.861    -3607934.212 5  -2508758.30025
  20168260.557    -9834406.348 6  -7551642.32427
  18735668.197   -27825891.604 7 -20679382.12727
  21320812.088    -9441042.684 6  -7180104.25926
  19495034.736   -26511738.191 7 -20457637.76529
  19895022.111   -18959969.585 6
  21865259.510   -15165817.563 4 -11635512.02125
 94  1 30  3 55 59.9940000  0  8  9 24  2 13 12  7  4 26
  20318709.393   -16230718.903 6
  21837546.150    -3735772.033 5  -2608372.14125
  20172835.104    -9810358.468 6  -7532903.71427
  18727428.721   -27869187.443 7 -20713119.13427
  21300019.369    -9550301.721 6  -7265241.15026
  19501758.471   -26476409.671 7 -20430109.04729
  19876836.799   -19055533.153 6
  21874038.924   -15119720.224 5 -11599592.02925
 94  1 30  3 56 29.9940000  0  8  9 24  2 13 12  7  4 26
  20300571.189   -16326030.723 6
  21813248.400    -3863482.187 5  -2707886.51725
  20177455.455    -9786069.485 6  -7513977.24427
  18719297.932   -27911918.836 7 -20746416.31027
  21279255.080    -9659424.005 6  -7350271.47525
  19508526.674   -26440845.352 7 -20402396.59029
  19858730.018   -19150683.825 6
  21882851.744   -15073408.681 5 -11563505.11625
 94  1 30  3 56 59.9940000  0  8  9 24  2 13 12  7  4 26
  20282506.518   -16420964.006 6
  21788967.986    -3991078.814 5  -2807312.40625
  20182126.908    -9761540.109 6  -7494863.45527
  18711272.916   -27954090.433 7 -20779277.28327
  21258517.815    -9768411.431 6  -7435196.72326
  19515335.588   -26405061.976 7 -20374513.43129
  19840698.252   -19245436.868 6
  21891694.775   -15026901.634 5 -11527265.87025
 94  1 30  3 57 29.9940000  0  8  9 24  2 13 12  7  4 26
  20264517.635   -16515500.867 6 -12774172.05727
  21764704.127    -4118577.315 5  -2906661.83625
  20186837.760    -9736767.884 6  -7475560.43227
  18703354.549   -27995702.418 7 -20811702.18827
  21237801.072    -9877261.295 6  -7520014.78025
  19522187.322   -26369057.708 7 -20346458.15729
  19822744.557   -19339785.245 6 -14879487.07328
  21900586.307   -14980221.207 5 -11490891.51124
 94  1 30  3 57 59.9940000  0  8  9 24  2 13 12  7  4 26
  20246601.502   -16609650.548 6 -12847535.43227
  21740458.057    -4245994.210 5  -3005947.69425
  20191598.643    -9711752.753 6  -7456068.11727
  18695541.572   -28036758.199 7 -20843693.69427
  21217115.986    -9985973.950 6  -7604725.92426
  19529080.307   -26332841.617 7 -20318237.82229
  19804865.338   -19433730.892 6 -14952691.46028
  21909500.174   -14933377.388 5 -11454389.84925
 94  1 30  3 58 29.9940000  0  8  9 24  2 13 12  7  4 26
  20228761.682   -16703408.898 6 -12920593.88727
  21716224.565    -4373325.054 5  -3105166.49425
  20196402.854    -9686510.343 6  -7436398.71027
  18687836.002   -28077251.568 7 -20875246.95527
  21196455.846   -10094540.665 6  -7689323.33925
  19536010.752   -26296412.720 7 -20289851.67029
  19787065.400   -19527271.297 6 -15025580.06628
  21918443.377   -14886358.127 5 -11417751.46825
 94  1 30  3 59 29.9930000  0  8  9 24  2 13 12  7  4 26
  20193292.935   -16889783.048 6 -13065820.48527
  21667818.286    -4627732.270 5  -3303405.80725
  20206126.622    -9635410.195 6  -7396580.42527
  18672744.177   -28156562.473 7 -20937047.63127
  21155219.278   -10311233.159 6  -7858174.60026
  19550000.825   -26222900.088 7 -20232569.09629
  19751698.575   -19713130.822 6 -15170405.63328
  21936446.458   -14791754.346 5 -11344034.25224
 94  1 30  3 59 59.9930000  0  8  9 24  2 13 12  7  4 26
  20175668.146   -16982398.630 6 -13137988.46727
  21643633.200    -4754795.759 5  -3402416.28425
  20211047.731    -9609549.508 6  -7376429.25127
  18665356.700   -28195383.701 7 -20967297.92727
  21134645.341   -10419359.179 6  -7942428.61526
  19557054.677   -26185830.839 7 -20203683.97229
  19734135.255   -19805436.730 6 -15242332.29928
  21945506.622   -14744154.138 5 -11306943.20125
 94  1 30  4  0 29.9930000  0  8  9 24  2 13 12  7  4 26
  20158118.130   -17074628.921 6 -13209856.22627
  21619478.552    -4881757.784 5  -3501347.69325
  20216008.442    -9583483.792 6  -7356118.31227
  18658074.216   -28233650.441 7 -20997116.15327
  21114095.622   -10527335.014 6  -8026565.61926
  19564150.396   -26148543.162 7 -20174628.63429
  19716649.372   -19897316.161 6 -15313926.63728
  21954599.919   -14696355.552 5 -11269697.56425
 94  1 30  4  0 59.9930000  0  8  9 24  2 13 12  7  4 26
  20140642.888   -17166475.532 6 -13281425.00927
  21595340.364    -5008596.319 5  -3600182.88925
  20221015.021    -9557176.465 6  -7335619.10127
  18650898.021   -28271358.356 7 -21026498.94127
  21093577.896   -10635153.799 6  -8110580.24526
  19571288.802   -26111029.883 7 -20145397.50229
  19699247.028   -19988752.460 6 -15385175.68628
  21963727.310   -14648376.003 5 -11232310.91625
 94  1 30  4  1 29.9930000  0  8  9 24  2 13 12  7  4 26
  20123235.599   -17257936.269 6 -13352693.11827
  21571224.950    -5135297.847 5  -3698911.33525
  20226067.419    -9530615.851 6  -7314922.52427
  18643828.489   -28308512.926 7 -21055450.53727
  21073092.880   -10742817.489 6  -8194474.01226
  19578468.716   -26073303.023 7 -20115999.95129
  19681935.231   -20079744.497 6 -15456078.55328
  21972885.896   -14600244.297 4 -11194805.70525
 94  1 30  4  1 59.9930000  0  8  9 24  2 13 12  7  4 26
  20105903.731   -17349020.850 6 -13423668.11527
  21547143.950    -5261862.392 5  -3797533.03125
  20231170.935    -9503795.282 6  -7294023.38427
  18636863.005   -28345110.575 7 -21083968.16927
  21052634.880   -10850319.800 6  -8278242.03426
  19585692.114   -26035346.272 7 -20086423.26229
  19664703.333   -20170297.514 6 -15526639.32628
  21982074.841   -14551961.872 4 -11157183.05925
 94  1 30  4  2 29.9930000  0  8  9 24  2 13 12  7  4 26
  20088640.552   -17439750.742 6 -13494366.73028
  21523083.622    -5388278.268 5  -3896038.86825
  20236324.200    -9476716.552 6  -7272923.08627
  18630004.622   -28381153.692 7 -21112053.70327
  21032209.028   -10957659.827 6  -8361883.59326
  19592957.638   -25997155.132 7 -20056663.93229
  19647553.427   -20260416.896 6 -15596862.20127
  21991288.372   -14503538.145 5 -11119450.28425
 94  1 30  4  2 59.9930000  0  8  9 24  2 13 12  7  4 26
  20071440.614   -17530123.093 6 -13564786.73828
  21499059.403    -5514545.589 5  -3994428.97125
  20241530.349    -9449376.300 6  -7251618.99227
  18623251.677   -28416644.623 7 -21139708.95827
  21011812.239   -11064836.551 6  -8445397.90926
  19600266.903   -25958744.409 7 -20026733.49929
  19630487.575   -20350109.740 6 -15666752.71227
  22000531.903   -14454976.616 4 -11081610.15624
 94  1 30  4  3 29.9930000  0  8  9 24  2 13 12  7  4 26
  20054315.958   -17620122.398 6 -13634916.05828
  21475059.692    -5640681.306 5  -4092716.52625
  20246777.255    -9421798.042 6  -7230129.45227
  18616603.044   -28451580.321 7 -21166931.56927
  20991450.614   -11171843.981 6  -8528780.29626
  19607616.208   -25920126.258 7 -19996641.43529
  19613495.888   -20439376.545 6 -15736311.24027
  22009809.817   -14406250.855 4 -11043642.02925
 94  1 30  4  3 59.9930000  0  8  9 24  2 13 12  7  4 26
  20037259.599   -17709747.674 6 -13704753.93728
  21451075.255    -5766699.720 5  -4190912.65925
  20252065.591    -9393998.270 6  -7208467.30027
  18610059.896   -28485963.676 7 -21193723.78627
  20971120.177   -11278681.635 6  -8612030.40326
  19615002.685   -25881310.135 7 -19966395.11129
  19596595.544   -20528209.089 6 -15805531.39827
  22019107.200   -14357350.178 5 -11005537.61223
 94  1 30  4  4 29.9930000  0  8  9 24  2 13 12  7  4 26
  20020281.372   -17798971.614 6 -13774279.08328
  21427119.958    -5892591.414 5  -4289010.07225
  20257393.622    -9365981.982 6  -7186636.43827
  18603622.755   -28519797.851 7 -21220088.07327
  20950823.763   -11385349.836 6  -8695148.46126
  19622426.052   -25842308.102 7 -19936003.91229
  19579773.685   -20616598.244 6 -15874406.04927
  22028451.130   -14308275.091 5 -10967297.29424
 94  1 30  4  4 59.9930000  0  8  9 24  2 13 12  7  4 26
  20003383.294   -17887769.119 6 -13843471.94428
  21403184.661    -6018356.361 5  -4387008.70925
  20262766.536    -9337753.065 6  -7164639.87826
  18597287.231   -28553082.047 7 -21246023.80727
  20930558.458   -11491844.036 6  -8778130.95026
  19629881.091   -25803129.546 7 -19905475.15729
  19563041.771   -20704535.773 6 -15942928.77528
  22037823.942   -14259011.790 5 -10928910.31525
 94  1 30  4  5 29.9930000  0  8  9 24  2 13 12  7  4 26
  19986567.419   -17976134.710 6 -13912328.24128
  21379281.997    -6143985.790 5  -4484901.74925
  20268183.356    -9309304.536 6  -7142472.20927
  18591059.755   -28585813.145 7 -21271528.54327
  20910327.286   -11598158.198 6  -8860973.14326
  19637371.450   -25763763.474 7 -19874800.30229
  19546393.646   -20792008.517 6 -16011089.34228
  22047236.294   -14209564.141 5 -10890379.69124
 94  1 30  4  5 59.9930000  0  8  9 24  2 13 12  7  4 26
  19969833.661   -18064075.733 6 -13980853.71128
  21355407.849    -6269461.685 5  -4582675.16325
  20273640.380    -9280623.370 6  -7120123.26127
  18584934.247   -28617998.772 7 -21296608.24327
  20890128.380   -11704296.610 6  -8943678.38726
  19644900.114   -25724195.563 7 -19843968.15928
  19529838.239   -20879019.435 6 -16078890.04228
  22056673.841   -14159963.358 5 -10851729.73523
 94  1 30  4  6 29.9930000  0  8  9 24  2 13 12  7  4 26
  19953177.825   -18151599.062 6 -14049053.71128
  21331563.239    -6394764.897 5  -4680314.01525
  20279144.200    -9251698.728 6  -7097584.59627
  18578914.255   -28649637.751 7 -21321261.97827
  20869965.825   -11810254.484 6  -9026242.95126
  19652469.005   -25684419.727 7 -19812974.00328
  19513367.810   -20965572.718 6 -16146334.14628
  22066136.294   -14110218.382 5 -10812967.43424
 94  1 30  4  6 59.9930000  0  8  9 24  2 13 12  7  4 26
  19936599.349   -18238727.504 6 -14116945.99928
  21307749.364    -6519902.071 5  -4777823.48225
  20284695.380    -9222529.735 6  -7074855.51127
  18572997.724   -28680729.947 7 -21345489.64626
  20849838.513   -11916028.456 6  -9108664.21326
  19660079.021   -25644430.029 7 -19781813.19628
  19496983.630   -21051658.419 6 -16213413.89628
  22075629.153   -14060351.993 5 -10774110.52523
 94  1 30  4  7 29.9930000  0  8  9 24  2 13 12  7  4 26
  19920090.794   -18325476.017 6 -14184542.24128
  21283968.044    -6644871.442 5  -4875202.20125
  20290295.021    -9193109.406 6  -7051930.58727
  18567184.739   -28711278.345 7 -21369293.57826
  20829744.224   -12021618.146 6  -9190941.88126
  19667730.591   -25604220.047 7 -19750480.74028
  19480691.817   -21137278.033 6 -16280130.46128
  22085135.005   -14010391.310 4 -10735180.12724
 94  1 30  4  7 59.9930000  0  8  9 24  2 13 12  7  4 26
  19903656.950   -18411834.411 6 -14251834.49728
  21260215.466    -6769669.643 5  -4972447.53126
  20295938.896    -9163447.929 6  -7028817.76326
  18561475.974   -28741283.250 7 -21392674.01326
  20809687.591   -12127020.225 6  -9273073.35726
  19675423.231   -25563798.629 7 -19718983.54028
  19464488.575   -21222434.893 6 -16346486.43828
  22094660.583   -13960337.216 5 -10696176.95224
 94  1 30  4  8 29.9930000  0  8  9 24  2 13 12  7  4 26
  19887297.716   -18497798.024 6 -14318819.13028
  21236501.427    -6894306.493 5  -5069567.12625
  20301628.536    -9133549.946 6  -7005520.64326
  18555868.161   -28770742.913 7 -21415629.57826
  20789667.333   -12232229.619 6  -9355054.69626
  19683153.849   -25523178.589 7 -19687331.55828
  19448373.044   -21307121.265 6 -16412475.80428
  22104203.981   -13910189.513 4 -10657100.82225
 94  1 30  4  8 59.9930000  0  8  9 24  2 13 12  7  4 26
  19871019.224   -18583347.888 6 -14385481.36528
  21212810.685    -7018789.398 5  -5166566.77325
  20307361.747    -9103412.465 6  -6982036.90726
  18550366.497   -28799657.410 7 -21438160.34226
  20769682.575   -12337242.869 6  -9436883.19426
  19690921.575   -25482361.387 7 -19655525.94828
  19432347.856   -21391336.366 6 -16478097.95328
  22113759.380   -13859957.748 4 -10617959.21423
 94  1 30  4  9 29.9930000  0  8  9 24  2 13 12  7  4 26
  19854822.380   -18668463.748 6 -14451805.41028
  21189155.614    -7143115.597 5  -5263444.30825
  20313144.130    -9073038.901 6  -6958369.20326
  18544967.106   -28828029.603 7 -21460268.53526
  20749733.888   -12442059.359 6  -9518558.36526
  19698722.599   -25441359.251 7 -19623576.23328
  19416407.716   -21475098.558 6 -16543367.17728
  22123339.653   -13809629.565 4 -10578742.47024
 94  1 30  4  9 59.9930000  0  8  9 24  2 13 12  7  4 26
  19838709.325   -18753144.005 6 -14517790.03328
  21165524.169    -7267286.509 5  -5360200.83225
  20318963.989    -9042436.970 6  -6934523.55526
  18539670.255   -28855860.333 7 -21481954.81026
  20729827.169   -12546676.284 6  -9600078.03426
  19706560.708   -25400179.236 7 -19591487.90928
  19400555.099   -21558400.725 6 -16608277.93628
  22132936.169   -13759200.810 4 -10539447.35224
 94  1 30  4 10 29.9930000  0  8  9 24  2 13 12  7  4 26
  19822677.146   -18837393.358 6 -14583438.87328
  21141928.349    -7391298.710 5  -5456833.69026
  20324833.560    -9011602.787 6  -6910496.93826
  18534478.263   -28883151.965 7 -21503221.00626
  20709957.856   -12651092.671 6  -9681441.44526
  19714427.060   -25358825.812 7 -19559264.46328
  19384790.317   -21641241.142 6 -16672828.89828
  22142557.263   -13708656.433 5 -10500062.13723
 94  1 30  4 10 59.9930000  0  8  9 24  2 13 12  7  4 26
  19806728.450   -18921205.892 6 -14648747.34528
  21118360.419    -7515140.084 5  -5553333.42325
  20330747.942    -8980524.209 6  -6886279.88426
  18529387.528   -28909902.133 7 -21524065.27826
  20690126.161   -12755302.212 6  -9762643.67226
  19722330.247   -25317301.111 7 -19526907.54928
  19369113.247   -21723625.605 6 -16737024.56828
  22152192.942   -13657979.034 3 -10460573.25824
 94  1 30  4 11 29.9930000  0  8  9 24  2 13 12  7  4 26
  19790857.341   -19004602.045 6 -14713731.37028
  21094822.513    -7638814.926 5  -5649703.40225
  20336704.606    -8949208.597 6  -6861878.11726
  18524397.013   -28936123.142 7 -21544497.22826
  20670336.739   -12859313.929 6  -9843691.75326
  19730261.356   -25275619.128 7 -19494428.08828
  19353523.231   -21805553.380 6 -16800864.37828
  22161865.489   -13607166.760 3 -10420979.28824
 94  1 30  4 11 59.9930000  0  8  9 24  2 13 12  7  4 26
  19775067.271   -19087578.747 6 -14778388.54228
  21071325.044    -7762302.430 5  -5745927.39626
  20342712.216    -8917642.518 6  -6837281.19226
  18519509.552   -28961809.967 7 -21564512.93026
  20650581.114   -12963118.930 6  -9924578.75926
  19738227.216   -25233765.705 7 -19461815.03028
  19338026.349   -21886992.743 6 -16864323.60628
  22171563.185   -13556210.122 3 -10381272.82923
 94  1 30  4 12 29.9930000  0  8  9 24  2 13 12  7  4 26
  19759362.185   -19170115.948 6 -14842703.24928
  21047869.294    -7885586.750 5  -5841993.07526
  20348769.630    -8885816.134 6  -6812481.43526
  18514724.349   -28986959.246 7 -21584109.76126
  20630870.060   -13066710.180 6 -10005299.20026
  19746224.521   -25191737.080 7 -19429065.45028
  19322619.903   -21967946.048 6 -16927404.08728
  22181292.411   -13505102.674 3 -10341448.87023
 94  1 30  4 12 59.9930000  0  8  9 24  2 13 12  7  4 26
  19743736.661   -19252226.308 6 -14906685.35128
  21024444.099    -8008674.428 5  -5937905.51126
  20354874.263    -8853740.321 6  -6787487.30126
  18510038.278   -29011578.417 7 -21603293.52026
  20611198.700   -13170091.633 6 -10085856.16426
  19754255.185   -25149533.728 7 -19396179.72128
  19307308.325   -22048410.769 6 -16990103.85728
  22191036.708   -13453874.341 3 -10301530.70023
 94  1 30  4 13 29.9930000  0  8  9 24  2 13 12  7  4 26
  19728192.833   -19333907.284 6 -14970332.85928
  21001062.513    -8131559.691 5  -6033660.23126
  20361021.130    -8821432.774 6  -6762312.60526
  18505454.294   -29035668.822 7 -21622065.25926
  20591566.716   -13273260.743 6 -10166247.67626
  19762320.927   -25107151.678 7 -19363154.75028
  19292090.325   -22128377.020 6 -17052415.20428
  22200808.442   -13402532.986 3 -10261524.47624
 94  1 30  4 13 59.9930000  0  8  9 24  2 13 12  7  4 26
  19712731.231   -19415150.642 6 -15033639.37028
  20977713.192    -8254242.754 5  -6129257.40126
  20367213.380    -8788901.578 6  -6736963.62926
  18500970.106   -29059231.295 7 -21640425.61626
  20571972.872   -13376214.688 6 -10246471.51626
  19770419.028   -25064593.475 7 -19329992.51628
  19276965.630   -22207865.816 6 -17114354.50728
  22210597.216   -13351081.495 3 -10221432.41324
 94  1 30  4 14 29.9930000  0  8  9 24  2 13 12  7  4  5
  19697353.185   -19495960.939 6 -15096608.43628
  20954402.849    -8376739.040 5  -6224709.03326
  20373446.044    -8756141.321 6  -6711436.17226
  18496587.833   -29082264.837 7 -21658373.81626
  20552420.731   -13478948.622 6 -10326523.90226
  19778548.153   -25021870.909 7 -19296702.20128
  19261927.560   -22286900.813 6 -17175940.20528
  22201869.974          -0.13114
 94  1 30  4 14 59.9930000  0  8  9 24  2 13 12  7  4  5
  19682054.778   -19576352.442 6 -15159251.16528
  20931127.794    -8499061.629 5  -6320025.32026
  20379724.505    -8723151.007 6  -6685729.44926
  18492304.060   -29104777.212 7 -21675915.91826
  20532913.872   -13581466.413 6 -10406407.88326
  19786709.544   -24978989.096 7 -19263287.80928
  19246975.716   -22365471.789 6 -17237164.32928
  22182516.028     -101718.003 3
 94  1 30  4 15 29.9930000  0  8  9 24  2 13 12  7  4  5
  19666844.317   -19656299.539 6 -15221547.60928
  20907881.505    -8621205.996 5  -6415202.72826
  20386049.685    -8689921.293 6  -6659836.18426
  18488120.239   -29126763.039 7 -21693047.72626
  20513449.044   -13683758.898 6 -10486116.28826
  19794898.349   -24935942.079 7 -19229744.68928
  19232112.138   -22443574.513 6 -17298023.58828
  22163158.099     -203447.336 3        -0.47835
 94  1 30  4 15 59.9930000  0  8  9 24  2 13 12  7  4  5
  19651716.450   -19735801.811 6 -15283497.43828
  20884676.856    -8743170.463 5  -6510239.95126
  20392417.505    -8656439.978 6  -6633746.87326
  18484036.849   -29148221.303 7 -21709768.44326
  20494028.505   -13785821.394 6 -10565645.49926
  19803125.278   -24892720.318 7 -19196065.39528
  19217339.911   -22521195.819 6 -17358507.70528
  22143798.474     -305162.209 4    -79258.81425
 94  1 30  4 16 29.9930000  0  8  9 24  2 13 12  7  4  5
  19636671.544   -19814852.558 6 -15345095.42328
  20861498.755    -8864945.912 5  -6605129.89326
  20398836.591    -8622709.709 6  -6607463.56526
  18480053.286   -29169156.453 7 -21726081.54426
  20474650.263   -13887654.128 6
  19811384.192   -24849325.083 7 -19162250.93028
  19202668.106   -22598301.058 6 -17418589.69128
  22124447.192     -406855.828 4
 94  1 30  4 16 59.9930000  0  8  9 24  2 13 12  7  4  5
  19621717.317   -19893433.248 6 -15406327.12928
  20838366.153    -8986506.191 5  -6699852.17226
  20405299.169    -8588749.269 6  -6581000.90926
  18476168.169   -29189569.025 7 -21741987.43826
  20455317.505   -13989253.955 6
  19819675.989   -24805752.351 7 -19128298.15628
  19188100.419   -22674858.040 6 -17478244.47028
  22105097.653     -508530.753 4
 94  1 30  4 17 29.9930000  0  8  9 24  2 13 12  7  4  5
  19606858.544   -19971532.747 6 -15467183.88828
  20815282.599    -9107839.197 5  -6794397.35526
  20411808.856    -8554556.613 6  -6554357.29526
  18472383.661   -29209456.066 7 -21757483.82626
  20436025.638   -14090614.138 6 -10803146.28927
  19828001.489   -24762000.278 7 -19094205.63028
  19173634.505   -22750877.869 6 -17537480.68828
  22085753.239     -610194.168 4   -316946.00124
 94  1 30  4 17 59.9930000  0  8  9 24  2 13 12  7  4  5
  19592082.583   -20049162.189 6 -15527674.36428
  20792240.161    -9228934.619 6  -6888757.40026
  20418355.028    -8520140.234 6  -6527539.36026
  18468697.841   -29228823.367 7 -21772575.22227
  20416784.935   -14191736.442 6 -10881942.88826
  19836356.427   -24718090.933 6 -19059990.56028
  19159270.919   -22826362.682 6 -17596300.00428
  22066409.599     -711853.482 4   -396161.05124
 94  1 30  4 18 29.9930000  0  8  9 24  2 13 12  7  4  5
  19577402.278   -20126322.885 6 -15587799.58228
  20769240.419    -9349785.662 6  -6982927.03026
  20424948.521    -8485497.516 6  -6500545.04726
  18465111.419   -29247669.808 7 -21787260.75727
  20397587.341   -14292615.610 6 -10960550.02627
  19844739.708   -24674039.814 6 -19025665.01728
  19145005.536   -22901318.182 6 -17654706.87528
  22047059.122     -813530.240 5   -475389.68225
 94  1 30  4 18 59.9930000  0  8  9 24  2 13 12  7  4  5
  19562802.731   -20203031.462 6 -15647572.49828
  20746285.013    -9470403.887 6  -7076915.24426
  20431584.263    -8450626.297 6  -6473372.69426
  18461623.716   -29265999.017 7 -21801543.25326
  20378438.747   -14393251.446 6 -11038967.54927
  19853149.286   -24629848.851 6 -18991230.49928
  19130835.325   -22975777.837 6 -17712727.36928
  22027706.747     -915239.964 4   -554643.98725
 94  1 30  4 19 29.9930000  0  8  9 24  2 13 12  7  4  5
  19548291.497   -20279295.523 6 -15706999.04128
  20723375.700    -9590799.702 6  -7170730.13926
  20438265.052    -8415513.678 6  -6446012.23326
  18458235.708   -29283808.956 7 -21815421.10927
  20359334.630   -14493637.905 6 -11117190.75327
  19861586.333   -24585506.312 6 -18956677.88128
  19116759.466   -23049757.120 6 -17770373.55128
  22008344.060    -1016979.247 5   -633921.33924
 94  1 30  4 19 59.9930000  0  8  9 24  2 13 12  7  4  5
  19533863.614   -20355120.795 6 -15766083.66828
  20700507.731    -9710972.317 6  -7264371.11626
  20444990.794    -8380165.003 6  -6418467.82926
  18454944.278   -29301104.494 7 -21828898.14227
  20340277.021   -14593775.783 6 -11195220.25827
  19870051.864   -24541018.697 6 -18922012.21128
  19102775.935   -23123240.569 6 -17827633.36628
  21988979.200    -1118743.993 4   -713218.54724
 94  1 30  4 20 29.9930000  0  8  9 24  2 13 12  7  4  5
  19519519.575   -20430497.663 6 -15824818.89028
  20677682.208    -9830923.604 6  -7357839.62926
  20451765.888    -8344562.555 6  -6390725.67726
  18451750.638   -29317886.834 7 -21841975.28427
  20321270.200   -14693662.221 6 -11273053.83927
  19878547.560   -24496369.310 6 -18887220.49328
  19088886.130   -23196226.100 6 -17884505.19728
  21969609.036    -1220533.843 4   -792535.28925
 94  1 30  4 20 59.9930000  0  8  9 24  2 13 12  7  4  5
  19505265.474   -20505402.146 6 -15883186.02028
  20654893.356    -9950650.085 6  -7451132.98326
  20458592.333    -8308698.957 6  -6362780.02926
  18448654.169   -29334154.657 7 -21854651.50227
  20302308.903   -14793291.833 6 -11350687.30027
  19887077.458   -24451549.443 6 -18852295.91528
  19075096.489   -23268703.542 6 -17940981.11628
  21950240.903    -1322325.308 5   -871853.32825
 94  1 30  4 21 29.9930000  0  8  9 24  2 13 12  7  4  5
  19491104.591   -20579820.529 6 -15941174.37029
  20632156.989   -10070147.194 6  -7544247.59126
  20465465.263    -8272574.825 6  -6334631.37526
  18445655.731   -29349910.679 7 -21866928.91426
  20283401.138   -14892663.303 6 -11428119.62027
  19895637.708   -24406571.190 6 -18817247.93228
  19061403.310   -23340649.633 6 -17997042.98928
  21930872.138    -1424113.570 5   -951168.82725
 94  1 30  4 21 59.9930000  0  8  9 24  2 13 12  7  4  5
  19477032.474   -20653751.683 7 -15998783.05928
  20609461.747   -10189413.036 6  -7637181.99626
  20472388.575    -8236191.923 6  -6306281.06326
  18442754.036   -29365162.317 7 -21878813.28927
  20264541.622   -14991779.843 7 -11505353.29527
  19904222.302   -24361454.268 6 -18782091.89028
  19047815.849   -23412067.704 6 -18052693.42328
  21911498.403    -1525906.483 5  -1030487.96225
 94  1 30  4 22 29.9930000  0  8  9 24  2 13 12  7  4  5
  19463061.771   -20727184.891 6 -16056003.74329
  20586810.481   -10308448.266 6  -7729936.69826
  20479367.013    -8199541.724 6  -6277722.48226
  18439948.013   -29379907.530 7 -21890303.07227
  20245727.677   -15090635.324 6 -11582383.53827
  19912833.286   -24316197.357 6 -18746826.76528
  19034324.372   -23482958.017 6 -18107932.61628
  21892123.278    -1627707.067 5  -1109813.09824
 94  1 30  4 22 59.9930000  0  8  9 24  2 13 12  7  4  5
  19449182.075   -20800124.601 7 -16112839.88829
  20564202.685   -10427248.000 6  -7822507.90126
  20486387.614    -8162635.194 6  -6248964.16126
  18437238.692   -29394145.699 7 -21901397.74527
  20226968.833   -15189224.864 6 -11659206.55027
  19921473.700   -24270804.964 6 -18711456.07227
  19020935.114   -23553316.141 6 -18162757.11728
  21872752.153    -1729512.584 5  -1189142.07523
 94  1 30  4 23 29.9930000  0  8  9 24  2 13 12  7  4  5
  19435389.911   -20872584.391 6 -16169302.06329
  20541640.856   -10545808.167 6  -7914892.42826
  20493457.396    -8125475.468 5  -6220008.55626
  18434625.325   -29407878.867 7 -21912098.91127
  20208259.278   -15287546.488 6 -11735820.79227
  19930135.864   -24225274.416 6 -18675977.72427
  19007650.974   -23623141.825 6 -18217166.73028
  21853375.614    -1831330.642 5  -1268480.81923
 94  1 30  4 23 59.9930000  0  8  9 24  2 13 12  7  4  5
  19421690.856   -20944575.417 6 -16225398.96529
  20519126.763   -10664118.984 6  -8007082.65426
  20500578.474    -8088056.379 5  -6190850.84326
  18432107.255   -29421113.923 7 -21922411.93927
  20189599.333   -15385602.894 6 -11812228.36827
  19938826.513   -24179606.826 6 -18640392.59927
  18994459.255   -23692453.190 6 -18271175.57528
  21834000.466    -1933164.298 5  -1347831.72224
 94  1 30  4 24 29.9930000  0  8  9 24  2 13 12  7  4  5
  19408085.239   -21016083.513 6 -16281119.55229
  20496664.372   -10782169.096 6  -8099069.73326
  20507748.778    -8050380.888 6  -6161493.34126
  18429683.896   -29433845.352 7 -21932332.52027
  20170994.294   -15483384.271 6 -11888421.63427
  19947546.747   -24133787.128 6 -18604688.93827
  18981368.880   -23761237.370 7 -18324773.62328
  21814621.544    -2035003.674 5  -1427187.07525
 94  1 30  4 24 59.9930000  0  8  9 24  2 13 12  7  4  5
  19394570.192   -21087107.194 6 -16336462.67629
  20474247.739   -10899958.367 6  -8190853.56826
  20514965.231    -8012464.009 6  -6131947.73026
  18427356.989   -29446073.644 7 -21941861.06327
  20152439.169   -15580886.892 6 -11964397.70027
  19956292.372   -24087815.687 6 -18568867.04627
  18968378.294   -23829497.543 6 -18377963.34229
  21795238.638    -2136844.623 5  -1506543.62925
 94  1 30  4 25 29.9930000  0  8  9 24  2 13 12  7  4  5
  19381148.622   -21157640.097 6 -16391423.38129
  20451881.935   -11017491.120 6  -8282437.50826
  20522227.646    -7974299.368 5  -6102209.07126
  18425125.122   -29457801.025 7 -21950999.28027
  20133935.817   -15678108.547 6 -12040154.83327
  19965070.528   -24041698.782 6 -18532931.80027
  18955488.935   -23897238.837 7 -18430748.76628
  21775858.364    -2238700.695 5  -1585911.99125
 94  1 30  4 25 59.9930000  0  8  9 24  2 13 12  7  4  5
  19367819.364   -21227670.395 6 -16445992.44429
  20429567.286   -11134776.021 6  -8373828.32526
  20529533.661    -7935899.946 5  -6072287.46926
  18422988.481   -29469029.523 7 -21959748.75427
  20115491.302   -15775047.387 6 -12115691.58027
  19973869.450   -23995450.432 6 -18496894.12927
  18942699.591   -23964453.808 6 -18483124.05829
  21756467.396    -2340566.663 5  -1665288.04525
 94  1 30  4 26 29.9930000  0  8  9 24  2 13 12  7  4  5
  19354588.606   -21297207.085 6 -16500176.87629
  20407289.567   -11251831.285 6  -8465040.20526
  20536881.661    -7897291.214 6  -6042202.77326
  18420946.302   -29479764.680 7 -21968113.80827
  20097096.997   -15871704.354 6 -12191008.70427
  19982693.685   -23949082.517 6 -18460763.29127
  18930012.552   -24031127.412 6 -18535077.50228
  21737089.825    -2442441.341 5  -1744670.89424
 94  1 30  4 26 59.9930000  0  8  9 24  2 13 12  7  4  5
  19341449.231   -21366251.959 6 -16553978.07729
  20385059.692   -11368656.649 6  -8556072.93126
  20544269.677    -7858460.629 5  -6011945.18626
  18418994.356   -29490008.505 7 -21976096.00626
  20078757.036   -15968077.342 6 -12266104.53927
  19991538.724   -23902600.589 6 -18424543.60727
  18917428.114   -24097253.848 7 -18586604.58528
  21717701.505    -2544319.212 5  -1824056.25224
 94  1 30  4 27 29.9930000  0  8  9 24  2 13 12  7  4  5
  19328403.333   -21434807.687 6 -16607398.12929
  20362872.177   -11485237.739 6  -8646915.33326
  20551702.731    -7819400.826 5  -5981509.00225
  18417139.388   -29499764.992 7 -21983698.45427
  20060472.810   -16064165.862 6 -12340978.71927
  20000406.888   -23856004.102 6 -18388234.66627
  18904949.255   -24162826.788 7 -18637700.36729
  21698316.310    -2646187.761 5  -1903434.34025
 94  1 30  4 27 59.9930000  0  8  9 24  2 13 12  7  4  5
  19315450.380   -21502878.900 6 -16660440.62629
  20340737.755   -11601557.036 6  -8737553.72426
  20559180.677    -7780112.656 5  -5950894.87926
  18415376.286   -29509032.906 7 -21990920.20627
  20042242.911   -16159964.420 6 -12415626.94227
  20009294.278   -23809281.128 6 -18351827.15827
  18892579.028   -24227834.955 7 -18688356.07129
  21678942.146    -2748016.351 5  -1982781.28625
 94  1 30  4 28 29.9930000  0  8  9 24  2 13 12  7  4  5
  19302587.864   -21570466.572 6 -16713106.33129
  20318661.575   -11717592.968 6  -8827971.32926
  20566702.458    -7740574.998 5  -5920086.32226
  18413706.192   -29517812.272 7 -21997761.25627
  20024065.997   -16255468.634 6 -12490045.78927
  20018217.888   -23762408.978 6 -18315303.40227
  18880313.427   -24292289.763 6 -18738580.58329
  21659567.567    -2849809.930 5  -2062100.95125
 94  1 30  4 28 59.9930000  0  8  9 24  2 13 12  7  4  5
  19289824.661   -21637542.701 6 -16765373.45229
  20296638.052   -11833323.260 6  -8918150.76326
  20574278.317    -7700762.581 5  -5889063.68326
  18412128.513   -29526099.712 7 -22004218.99827
  20005951.091   -16350670.974 6 -12564229.42327
  20027167.403   -23715367.122 6 -18278647.41727
  18868152.950   -24356203.449 6 -18788383.44829
  21640200.974    -2951575.038 5  -2141398.41725
 94  1 30  4 29 29.9930000  0  8  9 24  2 13 12  7  4  5
  19277151.896   -21704126.445 6 -16817256.88529
  20274672.567   -11948745.344 6  -9008090.04326
  20581905.536    -7660688.403 5  -5857837.06726
  18410643.950   -29533906.931 7 -22010302.53927
  19987892.966   -16445578.508 6 -12638183.34027
  20036149.708   -23668172.738 6 -18241872.58027
  18856088.786   -24419592.909 6 -18837777.81529
  21620840.364    -3053336.204 5  -2220692.83625
 94  1 30  4 29 59.9930000  0  8  9 24  2 13 12  7  4  5
  19264578.247   -21770215.360 6 -16868754.74129
  20252767.341   -12063862.868 6  -9097792.00326
  20589580.677    -7620354.038 5  -5826407.70926
  18409247.724   -29541240.114 7 -22016016.70227
  19969885.349   -16540193.080 6 -12711908.96227
  20045156.481   -23620844.238 6 -18204993.24727
  18844125.692   -24482461.342 6 -18886766.19529
  21601470.747    -3155125.602 5  -2300009.23925
 94  1 30  4 30 29.9930000  0  8  9 24  2 13 12  7  4  5
  19252100.021   -21835780.873 6 -16919844.75329
  20230919.341   -12178671.330 6  -9187253.12326
  20597305.669    -7579748.578 5  -5794767.10525
  18407944.192   -29548088.210 7 -22021352.88027
  19951940.919   -16634499.383 6 -12785394.38327
  20054186.278   -23573383.313 6 -18168010.70327
  18832264.419   -24544798.746 7 -18935340.78829
  21582090.552    -3256963.483 5  -2379363.44225
 94  1 30  4 30 59.9930000  0  8  9 24  2 13 12  7  4  5
  19239722.481   -21900830.870 6 -16970533.05629
  20209129.106   -12293182.219 6  -9276482.37626
  20605082.685    -7538881.780 5  -5762922.87425
  18406732.075   -29554452.792 7 -22026312.28127
  19934056.138   -16728494.503 6 -12858637.32827
  20063239.474   -23525819.951 6 -18130948.34627
  18820503.755   -24606588.411 6 -18983488.56129
  21562701.450    -3358852.166 5  -2458757.19625
 94  1 30  4 31 29.9930000  0  8  9 24  2 13 12  7  4  5
  19227438.755   -21965391.412 6 -17020839.96929
  20187391.185   -12407416.110 6  -9365495.78927
  20612903.208    -7497777.250 5  -5730893.39025
  18405610.739   -29560346.014 7 -22030904.40127
  19916224.685   -16822185.925 6 -12931643.63327
  20072303.138   -23478185.200 6 -18093830.36527
  18808851.317   -24667823.768 7 -19031204.41129
  21543304.333    -3460788.407 5  -2538188.01825
 94  1 30  4 31 59.9930000  0  8  9 24  2 13 12  7  4  5
  19215248.849   -22029441.250 6 -17070748.92728
  20165704.052   -12521384.182 6  -9454302.06627
  20620772.528    -7456431.605 5  -5698676.01625
  18404580.458   -29565766.204 7 -22035127.92427
  19898456.825   -16915567.548 6 -13004408.52227
  20081383.521   -23430468.182 6 -18056648.28027
  18797305.646   -24728493.713 7 -19078479.68229
  21523897.903    -3562746.123 5  -2617635.57025
 94  1 30  4 32 29.9930000  0  8  9 24  2 13 12  7  4  5
  19203155.692   -22092987.541 6 -17120265.52328
  20144066.614   -12635082.635 6  -9542898.24326
  20628690.013    -7414843.107 5  -5666269.41825
  18403639.060   -29570712.500 7 -22038982.17727
  19880747.341   -17008634.415 6 -13076928.14927
  20090480.872   -23382655.411 6 -18019391.57427
  18785869.427   -24788599.014 7 -19125314.96629
  21504496.177    -3664694.833 5  -2697076.13925
 94  1 30  4 32 59.9930000  0  8  9 24  2 13 12  7  4  5
  19191156.950   -22156037.521 6 -17169395.37528
  20122488.091   -12748496.881 6  -9631272.96327
  20636644.942    -7373013.956 5  -5633675.28626
  18402787.685   -29575190.313 7 -22042471.37527
  19863093.950   -17101387.052 6 -13149202.92727
  20099599.364   -23334738.612 6 -17982053.82627
  18774539.317   -24848140.781 6 -19171711.13129
  21485103.013    -3766612.579 5  -2776492.53925
 94  1 30  4 33 29.9930000  0  8  9 24  2 13 12  7  4  5
  19179263.810   -22218566.594 6 -17218119.33028
  20100959.927   -12861607.959 6  -9719411.45127
  20644653.177    -7330934.187 5  -5600885.87425
  18402025.411   -29579200.064 7 -22045595.84727
  19845501.677   -17193821.692 6 -13221229.91727
  20108742.560   -23286692.690 6 -17944615.44427
  18763312.849   -24907129.771 6 -19217676.56729
  21465724.474    -3868486.223 5  -2855874.58525
 94  1 30  4 33 59.9930000  0  8  9 24  2 13 12  7  4  5
  19167462.013   -22280568.754 6 -17266432.70128
  20079497.005   -12974406.995 6  -9807306.79627
  20652707.599    -7288601.614 5  -5567899.47225
  18401349.513   -29582746.150 7 -22048359.02627
  19827975.278   -17285938.022 6 -13293008.86827
  20117910.653   -23238511.956 6 -17907072.01827
  18752190.661   -24965573.063 6 -19263216.78229
  21446343.106    -3970324.619 5  -2935229.16725
 94  1 30  4 34 29.9930000  0  8  9 24  2 13 12  7  4  5
  19155760.646   -22342044.675 6 -17314336.01629
  20058091.583   -13086882.412 6  -9894949.96227
  20660814.614    -7246010.219 5  -5534711.40225
  18400762.763   -29585825.661 7 -22050758.63727
  19810511.239   -17377728.559 7 -13364533.95527
  20127105.341   -23190196.010 6 -17869423.23327
  18741175.708   -25023466.644 7 -19308328.65429
  21426968.505    -4072137.492 5  -3014563.86925
 94  1 30  4 35 29.9920000  0  8  9 24  2 13 12  7  4  5
  19132670.531   -22463394.841 6 -17408894.59529
  20015463.805   -13310901.418 6 -10069510.19927
  20677165.547    -7160074.130 5  -5467748.25425
  18399855.930   -29590590.623 7 -22054471.59027
  19775764.344   -17560317.098 7 -13506810.73227
  20145559.586   -23093203.078 6 -17793844.33227
  18719457.523   -25137589.021 7 -19397255.16229
  21388234.375    -4275693.076 5  -3173178.57825
 94  1 30  4 35 59.9920000  0  8  9 24  2 13 12  7  4  5
  19121268.774   -22523305.949 6 -17455578.56829
  19994232.375   -13422469.054 6 -10156445.99927
  20685414.188    -7116748.752 5  -5433988.24425
  18399535.281   -29592278.416 7 -22055786.74127
  19758486.070   -17651111.436 7 -13577559.57127
  20154819.195   -23044557.944 6 -17755939.03727
  18708761.258   -25193806.907 7 -19441061.29629
  21368867.406    -4377447.495 5  -3252467.74325
 94  1 30  4 36 29.9920000  0  8  9 24  2 13 12  7  4  5
  19109964.953   -22582719.713 6 -17501875.01329
  19973056.297   -13533744.656 6 -10243154.24527
  20693700.891    -7073205.542 5  -5400058.49525
  18399299.758   -29593509.608 7 -22056746.11027
  19741273.141   -17741571.698 7 -13648048.09027
  20164093.047   -22995816.641 6 -17717958.80727
  18698168.555   -25249459.011 7 -19484426.56329
  21349507.672    -4479187.775 5  -3331745.87225
 94  1 30  4 36 59.9920000  0  8  9 24  2 13 12  7  4  5
  19098751.344   -22641629.273 6 -17547778.57329
  19951941.758   -13644715.331 6 -10329624.88927
  20702026.852    -7029449.238 5  -5365962.69925
  18399152.492   -29594284.679 7 -22057350.05827
  19724120.359   -17831693.926 7 -13718273.20427
  20173386.859   -22946985.108 6 -17679908.26427
  18687688.836   -25304547.448 7 -19527352.60829
  21330151.914    -4580921.851 5  -3411019.18325
 94  1 30  4 37 29.9920000  0  8  9 24  2 13 12  7  4  5
  19087641.953   -22700025.706 6 -17593282.29528
  19930881.531   -13755369.681 6 -10415849.03727
  20710393.305    -6985478.073 5  -5331699.47925
  18399092.563   -29594611.511 7
  19707036.445   -17921481.453 7 -13788237.50927
  20182695.281   -22898067.960 6 -17641791.00927
  18677310.570   -25359074.502 7 -19569841.20629
  21310788.766    -4682666.388 5  -3490300.63325
 94  1 30  4 37 59.9920000  0  8  9 24  2 13 12  7  4  5
  19076631.492   -22757872.373 6 -17638357.62629
  19909891.125   -13865690.453 6 -10501813.26327
  20718804.922    -6941274.629 5  -5297255.26426
  18399113.641   -29594488.724 7
  19690015.008   -18010928.301 7 -13857936.34127
  20192024.766   -22849042.130 6 -17603589.07227
  18667044.930   -25413037.897 7 -19611890.59729
  21291426.883    -4784418.425 5  -3569587.92725
 94  1 30  4 38 29.9920000  0  8  9 24  2 13 12  7  4  5
  19065736.148   -22815143.990 6 -17682984.86129
  19888960.430   -13975677.602 6 -10587517.52127
  20727264.688    -6896815.985 5  -5262612.18725
  18399222.781   -29593914.317 7 -22057061.45827
  19673062.305   -18100027.656 7 -13927364.41127
  20201377.336   -22799895.085 6 -17565292.67427
  18656880.141   -25466433.737 7 -19653497.73329
  21272059.898    -4886178.498 5  -3648881.50925
 94  1 30  4 38 59.9920000  0  8  9 24  2 13 12  7  4  5
  19054946.820   -22871834.138 6 -17727158.99829
  19868094.656   -14085329.541 6 -10672960.57327
  20735775.547    -6852084.849 5  -5227756.77525
  18399417.141   -29592890.230 7 -22056263.46527
  19656172.891   -18188777.122 7 -13996519.83627
  20210752.078   -22750634.170 6 -17526907.54927
  18646828.594   -25519264.809 7 -19694664.79129
  21252695.266    -4987948.559 5  -3728182.84525
 94  1 30  4 39 29.9920000  0  8  9 24  2 13 12  7  4  5
  19044269.992   -22927951.947 6 -17770887.16629
  19847290.844   -14194651.277 6 -10758146.33127
  20744339.039    -6807080.874 5  -5192688.76325
  18399698.203   -29591418.213 7 -22055116.44227
  19639351.117   -18277173.661 7 -14065400.26028
  20220147.984   -22701252.789 6 -17488428.55527
  18636882.297   -25571522.798 7 -19735385.29129
  21233334.250    -5089697.736 5  -3807467.89625
 94  1 30  4 39 59.9920000  0  8  9 24  2 13 12  7  4  5
  19033692.844   -22983518.288 6 -17814185.62729
  19826548.320   -14303654.910 6 -10843084.21127
  20752954.117    -6761807.947 5  -5157411.18225
  18400063.719   -29589500.499 7 -22053622.11327
  19622599.430   -18365215.055 7 -14134003.94728
  20229565.750   -22651753.694 6 -17449857.84327
  18627050.234   -25623203.881 7 -19775656.25929
  21213975.633    -5191428.544 5  -3886738.65325
 94  1 30  4 40 29.9920000  0  8  9 24  2 13 12  7  4  5
  19023220.828   -23038558.278 6 -17857073.93329
  19805866.844   -14412338.099 6 -10927772.39827
  20761621.055    -6716278.803 5  -5121933.94425
  18400514.273   -29587137.739 7 -22051781.00127
  19605911.102   -18452897.041 7 -14202327.57428
  20239004.625   -22602153.126 6 -17411208.05627
  18617323.430   -25674298.846 7 -19815470.50429
  21194617.563    -5293143.675 5  -3965997.20525
 94  1 30  4 40 59.9920000  0  8  9 24  2 13 12  7  4  5
  19012844.555   -23093087.236 7 -17899564.03529
  19785243.859   -14520700.592 6 -11012210.68927
  20770326.133    -6670505.433 5  -5086266.42125
  18401048.258   -29584333.000 7 -22049595.47727
  19589296.016   -18540218.162 7 -14270370.01828
  20248461.633   -22552474.932 6 -17372497.77627
  18607713.359   -25724808.857 7 -19854828.95429
  21175267.180    -5394828.161 5  -4045231.85925
 94  1 30  4 41 29.9920000  0  8  9 24  2 13 12  7  4  5
  19002562.672   -23147111.789 6 -17941661.09229
  19764684.188   -14628751.220 6 -11096405.97227
  20779084.672    -6624503.465 5  -5050420.76925
  18401664.750   -29581090.910 7 -22047069.17027
  19572746.172   -18627178.318 7 -14338131.18028
  20257925.797   -22502720.972 6 -17333728.45427
  18598215.172   -25774731.375 7 -19893729.60329
  21155926.258    -5496479.506 5  -4124440.67625
 94  1 30  4 41 59.9920000  0  8  9 24  2 13 12  7  4  5
  18992380.602   -23200618.780 6 -17983354.84829
  19744183.078   -14736484.914 6 -11180354.29427
  20787883.773    -6578260.089 5  -5014386.99725
  18402364.977   -29577411.181 7 -22044201.84027
  19556269.906   -18713772.632 7 -14405607.26728
  20267410.086   -22452889.256 6 -17294898.56127
  18588824.477   -25824065.942 7 -19932172.11829
  21136584.086    -5598109.850 5  -4203633.14625
 94  1 30  4 42 29.9920000  0  8  9 24  2 13 12  7  4  5
  18982300.875   -23253605.149 6 -18024642.92929
  19723743.094   -14843892.648 6 -11264048.61527
  20796728.633    -6531778.815 5  -4978167.84925
  18403145.352   -29573301.663 7 -22040999.61527
  19539860.734   -18800004.287 7 -14472800.75728
  20276907.656   -22402985.597 6 -17256012.60127
  18579546.180   -25872824.904 7 -19970166.10229
  21117252.195    -5699712.557 5  -4282804.08325
 94  1 30  4 42 59.9920000  0  8  9 24  2 13 12  7  4  5
  18972317.149   -23306055.716 6 -18065513.50329
  19703364.367   -14950969.427 6 -11347485.05827
  20805622.742    -6485057.434 5  -4941761.59225
  18404009.938   -29568767.434 7 -22037466.44727
  19523518.211   -18885873.552 7 -14539711.87528
  20286420.547   -22353000.202 6 -17217062.94027
  18570377.602   -25921015.911 7 -20007717.53429
  21097925.250    -5801279.558 5  -4361947.19425
 94  1 30  4 43 29.9920000  0  8  9 24  2 13 12  7  4  5
  18962438.852   -23357956.369 6 -18105955.57529
  19683059.539   -15057689.006 6 -11430643.16527
  20814559.891    -6438076.338 5  -4905152.98725
  18404954.539   -29563805.081 7 -22033599.67627
  19507248.523   -18971372.555 7 -14606334.47628
  20295949.195   -22302913.897 6 -17178034.65527
  18561317.320   -25968631.506 7 -20044820.58729
  21078603.609    -5902813.321 5  -4441064.39825
 94  1 30  4 43 59.9920000  0  8  9 24  2 13 12  7  4  5
  18952667.781   -23409306.619 6 -18145968.76229
  19662827.000   -15164026.566 6 -11513503.59027
  20823550.953    -6390828.502 5  -4868336.51625
  18405978.523   -29558417.930 7 -22029401.89127
  19491049.602   -19056499.815 7 -14672667.41128
  20305498.648   -22252735.777 6 -17138934.83127
  18552362.133   -26015678.654 7 -20081480.69129
  21059289.117    -6004318.641 5  -4520159.44125
 94  1 30  4 44 29.9920000  0  8  9 24  2 13 12  7  4  5
  18943003.742   -23460101.363 6 -18185549.08529
  19642663.969   -15269969.024 6 -11596056.14527
  20832589.555    -6343317.508 5  -4831314.98825
  18407085.039   -29552607.383 7 -22024874.18827
  19474923.274   -19141252.002 7 -14738708.07728
  20315063.266   -22202467.955 6 -17099765.09827
  18543516.703   -26062158.372 7 -20117698.64429
  21039975.984    -6105793.579 5  -4599230.81025
 94  1 30  4 44 59.9920000  0  8  9 24  2 13 12  7  4  5
  18933447.680   -23510331.854 6 -18224689.72929
  19622579.320   -15375517.177 6 -11678301.45327
  20841685.281    -6295542.311 5  -4794087.57925
  18408271.328   -29546375.787 7 -22020018.40027
  19458866.484   -19225626.865 7 -14804454.71728
  20324644.203   -22152120.657 6 -17060533.44427
  18534778.828   -26108075.630 7 -20153478.32229
  21020671.719    -6207239.380 5  -4678279.46425
 94  1 30  4 45 29.9920000  0  8  9 24  2 13 12  7  4  5
  18923994.148   -23559997.574 6 -18263390.28529
  19602567.367   -15480671.315 6 -11760239.73927
  20850824.469    -6247502.113 5  -4756653.67825
  18409537.125   -29539723.965 7 -22014835.15727
  19442882.398   -19309620.365 7 -14869904.19528
  20334238.641   -22101706.919 6 -17021250.01827
  18526151.016   -26153424.823 7 -20188815.34429
  21001371.773    -6308666.642 5  -4757313.69425
 94  1 30  4 45 59.9920000  0  8  9 24  2 13 12  7  4  5
  18914649.188   -23609093.766 6 -18301647.05829
  19582630.141   -15585445.955 6 -11841882.30027
  20860013.188    -6199207.626 5  -4719021.63525
  18410881.695   -29532652.261 7 -22009324.73227
  19426973.391   -19393228.343 7 -14935053.26928
  20343844.891   -22051220.870 6 -16981910.24026
  18517632.891   -26198198.611 7 -20223703.99829
  20982073.508    -6410072.853 5  -4836331.52326
 94  1 30  4 46 29.9920000  0  8  9 24  2 13 12  7  4  5
  18905414.758   -23657632.377 6 -18339469.35629
  19562759.820   -15689870.099 6 -11923251.76127
  20869248.344    -6150675.608 5  -4681204.50125
  18412304.906   -29525172.800 7 -22003496.57027
  19411133.133   -19476458.107 7 -14999907.62728
  20353462.164   -22000672.951 6 -16942522.25326
  18509219.820   -26242397.938 7 -20258145.02829
  20962777.477    -6511472.906 5  -4915344.52926
 94  1 30  4 46 59.9920000  0  8  9 24  2 13 12  7  4  5
  18896284.711   -23705613.884 6 -18376857.54929
  19542953.188   -15793945.093 6 -12004349.14327
  20878531.867    -6101901.509 5  -4643198.71825
  18413806.906   -29517279.962 7 -21997346.30427
  19395371.570   -19559299.326 7 -15064459.21628
  20363096.680   -21950053.351 6 -16903078.40426
  18500920.180   -26286007.048 7 -20292126.14329
  20943483.656    -6612862.186 5  -4994349.14326
 94  1 30  4 47 29.9920000  0  8  9 24  2 13 12  7  4  5
  18887255.945   -23753057.284 6 -18413826.42929
  19523215.055   -15897677.733 6 -12085179.76127
  20887858.789    -6052885.385 5  -4605004.37625
  18415386.844   -29508978.216 7 -21990877.41327
  19379681.305   -19641751.665 7 -15128707.79328
  20372743.180   -21899356.662 6 -16863574.49226
  18492736.906   -26329016.179 7 -20325639.74129
  20924190.484    -6714245.444 5  -5073349.08726
 94  1 30  4 47 59.9920000  0  8  9 24  2 13 12  7  4  5
  18878331.766   -23799965.725 6 -18450378.46829
  19503540.289   -16001071.468 6 -12165746.29927
  20897230.141    -6003626.432 5  -4566620.80225
  18417044.383   -29500266.649 7 -21984089.17927
  19364064.672   -19723809.594 7 -15192649.04128
  20382408.227   -21848573.178 6 -16824002.94826
  18484664.422   -26371427.803 7 -20358687.75429
  20904904.258    -6815596.811 5  -5152324.16826
 94  1 30  4 48 29.9920000  0  8  9 24  2 13 12  7  4  5
  18869506.688   -23846341.384 6 -18486515.35029
  19483932.078   -16104114.035 6 -12246039.20227
  20906649.367    -5954121.363 5  -4528045.44125
  18418779.188   -29491147.844 7 -21976983.62627
  19348524.664   -19805471.014 7 -15256281.31328
  20392085.477   -21797721.960 6 -16784378.62826
  18476707.297   -26413242.577 7 -20391270.68229
  20885626.867    -6916908.689 5  -5231268.48326
 94  1 30  4 48 59.9920000  0  8  9 24  2 13 12  7  4  5
  18860784.203   -23892176.555 6 -18522231.07029
  19464392.742   -16206795.341 6 -12326050.60927
  20916120.898    -5904371.260 5  -4489279.15225
  18420592.602   -29481626.473 7 -21969564.37527
  19333060.023   -19886735.702 7 -15319604.45028
  20401773.070   -21746806.463 6 -16744704.21326
  18468860.797   -26454477.141 7 -20423401.50429
  20866356.164    -7018177.776 5  -5310179.44626
 94  1 30  4 49 29.9920000  0  8  9 24  2 13 12  7  4  5
  18852164.578   -23937473.416 6 -18557527.33029
  19444924.227   -16309111.980 6 -12405777.84727
  20925632.891    -5854393.432 5  -4450335.43125
  18422478.094   -29471708.214 7 -21961835.86427
  19317672.102   -19967604.811 7 -15382619.35328
  20411475.289   -21695833.300 6 -16704984.86526
  18461124.148   -26495139.711 7 -20455086.60829
  20847090.227    -7119401.964 5  -5389055.42626
 94  1 30  4 49 59.9920000  0  8  9 24  2 13 12  7  4  5
  18843649.742   -23982215.231 7 -18592391.08729
  19425524.766   -16411043.200 6 -12485204.76528
  20935184.656    -5804184.993 5  -4411212.00525
  18424442.500   -29461386.360 7 -21953792.85926
  19302360.484   -20048066.824 7 -15445317.02428
  20421185.727   -21644787.529 6 -16665208.94526
  18453495.148   -26535228.758 7 -20486324.81629
  20827837.891    -7220590.303 5  -5467903.46326
 94  1 30  4 50 29.9920000  0  8  9 24  2 13 12  7  4  5
  18835242.570   -24026398.494 6 -18626819.61129
  19406205.039   -16512577.426 6
  20944789.992    -5753753.242 5  -4371914.55525
  18426483.000   -29450667.522 7 -21945440.51327
  19287127.594   -20128123.597 7 -15507698.92328
  20430915.086   -21593668.919 6 -16625376.26526
  18445974.133   -26574745.098 7 -20517116.76329
  20808583.477    -7321769.105 5
 94  1 30  4 50 59.9920000  0  8  9 24  2 13 12  7  4  5
  18826942.336   -24070016.105 6 -18660807.36029
  19386958.945   -16613721.010 6 -12643135.50628
  20954421.102    -5703101.424 5  -4332445.65725
  18428596.195   -29439551.431 7 -21936778.61426
  19271969.563   -20207770.213 7 -15569761.22528
  20440661.836   -21542452.624 6 -16585467.46026
  18438562.273   -26613690.492 7 -20547463.81229
  20789332.789    -7422935.023 5  -5625574.11026
 94  1 30  4 51 29.9920000  0  8  9 24  2 13 12  7  4  5
  18818748.633   -24113074.574 6 -18694359.41729
  19367782.664   -16714477.618 6 -12721647.13728
  20964100.867    -5652223.735 5  -4292800.72125
  18430788.180   -29428043.409 7 -21927811.32527
  19256892.828   -20287007.208 7 -15631504.33328
  20450424.969   -21491133.075 6 -16545478.20226
  18431263.211   -26652053.659 7 -20577357.18129
  20770085.570    -7524076.431 5  -5704385.62926
 94  1 30  4 51 59.9920000  0  8  9 24  2 13 12  7  4  5
  18810663.781   -24155554.635 6 -18727460.76629
  19348685.656   -16814842.758 6 -12799853.73628
  20973833.891    -5601086.315 5  -4252953.40325
  18433051.695   -29416141.193 7 -21918536.87427
  19241892.414   -20365827.479 7 -15692922.71728
  20460212.047   -21439703.580 6 -16505403.28026
  18424078.047   -26689821.050 7 -20606786.30629
  20750847.828    -7625173.590 5  -5783162.62826
 94  1 30  4 52 29.9920000  0  8  9 24  2 13 12  7  4  5
  18802694.102   -24197438.675 6 -18760097.67929
  19329659.969   -16914822.387 6 -12877759.92328
  20983615.961    -5549696.945 5
  18435392.273   -29403847.070 7 -21908957.04026
  19226972.469   -20444228.765 7 -15754014.62728
  20470018.633   -21388174.968 6
  18417004.836   -26726986.383 7 -20635746.30129
  20731625.883    -7726186.913 5  -5861874.29126
 94  1 30  4 52 59.9920000  0  8  9 24  2 13 12  7  4  5
  18794832.719   -24238741.445 6 -18792281.66129
  19310705.852   -17014431.018 6 -12955377.03328
  20993437.047    -5498052.952 5
  18437805.352   -29391166.150 7 -21899075.79627
  19212133.172   -20522211.457 7 -15814780.36228
  20479842.547   -21336555.885 6
  18410045.891   -26763554.482 7 -20664240.91029
  20712421.953    -7827109.654 5  -5940515.37426
 94  1 30  4 53 29.9920000  0  8  9 24  2 13 12  7  4  5
  18787079.125   -24279478.886 6 -18824025.12329
  19291821.656   -17113661.322 6 -13032699.34128
  21003314.398    -5446149.906 5  -4132223.81525
  18440291.102   -29378104.227 7 -21888897.66927
  19197373.641   -20599776.790 7 -15875220.88228
  20489679.086   -21284868.059 6 -16384752.23126
  18403201.594   -26799525.172 7 -20692270.01029
  20693231.492    -7927947.806 6  -6019090.55726
 94  1 30  4 53 59.9920000  0  8  9 24  2 13 12  7  4  5
  18779434.852   -24319645.393 6 -18855323.70729
  19273013.086   -17212509.217 6 -13109723.66527
  21013241.695    -5393999.934 5  -4091587.49725
  18442850.828   -29364656.204 7 -21878418.69027
  19182694.094   -20676914.737 7 -15935328.38228
  20499523.375   -21233121.426 6 -16344430.18226
  18396472.953   -26834895.258 7 -20719831.11129
  20674058.070    -8028711.550 6  -6097607.73826
 94  1 30  4 54 29.9920000  0  8  9 24  2 13 12  7  4  5
  18771897.156   -24359261.906 6 -18886193.72329
  19254275.219   -17310971.760 6 -13186447.70728
  21023209.555    -5341632.708 5  -4050781.91525
  18445479.813   -29350833.936 7 -21867648.08627
  19168095.164   -20753632.271 7 -15995108.28628
  20509377.000   -21181337.919 6 -16304079.39526
  18389854.461   -26869680.446 7 -20746936.44529
  20654890.844    -8129431.843 6  -6176091.06626
 94  1 30  4 54 59.9920000  0  8  9 24  2 13 12  7  4  5
  18764464.242   -24398339.355 7 -18916643.68729
  19235614.273   -17409030.524 6 -13262857.12628
  21033217.109    -5289029.241 5  -4009792.22125
  18448181.734   -29336637.567 7 -21856585.97927
  19153578.742   -20829924.979 7 -16054557.15628
  20519235.031   -21129526.408 6 -16263706.79026
  18383342.250   -26903886.070 7 -20773590.17029
  20635725.008    -8230128.840 6  -6254556.24926
 94  1 30  4 55 29.9920000  0  8  9 24  2 13 12  7  4  5
  18757135.867   -24436847.760 7 -18946650.24129
  19217035.367   -17506660.738 6 -13338932.61027
  21043272.453    -5236183.364 5  -3968613.63125
  18450955.969   -29322061.930 7 -21845228.34327
  19139144.039   -20905783.115 7 -16113667.39528
  20529102.984   -21077691.682 6 -16223316.09726
  18376946.789   -26937493.303 7 -20799777.61429
  20616571.938    -8330796.032 6  -6332998.20426
 94  1 30  4 55 59.9920000  0  8  9 24  2 13 12  7  4  5
  18749919.672   -24474767.117 7 -18976197.79229
  19198539.789   -17603853.900 6 -13414667.53427
  21053376.453    -5183104.976 5  -3927253.87625
  18453800.094   -29307111.709 7 -21833578.82227
  19124792.750   -20981206.423 7 -16172438.80128
  20538970.258   -21025831.791 6 -16182905.79926
  18370662.578   -26970503.738 7 -20825500.01929
  20597421.719    -8431436.245 6  -6411419.13926
 94  1 30  4 56 29.9920000  0  8  9 24  2 13 12  7  4  5
  18742815.820   -24512093.587 6 -19005283.35629
  19180128.578   -17700601.591 6 -13490055.33128
  21063526.508    -5129776.209 5  -3885699.02025
  18456715.961   -29291790.798 7 -21821640.45127
  19110520.172   -21056194.426 7 -16230871.01628
  20548846.789   -20973931.944 6 -16142464.35526
  18364496.563   -27002921.746 7 -20850760.79729
  20578275.461    -8532040.773 6  -6489812.26726
 94  1 30  4 56 59.9920000  0  8  9 24  2 13 12  7  4  5
  18735824.516   -24548827.238 7 -19033906.98429
  19161801.297   -17796919.370 6 -13565108.14727
  21073716.211    -5076196.414 5  -3843948.55625
  18459701.789   -29276102.541 7 -21809415.84727
  19096333.774   -21130745.397 7 -16288962.68828
  20558729.195   -20921983.778 6 -16101985.26226
  18358443.000   -27034743.677 7 -20875557.09929
  20559142.375    -8632602.781 6  -6568172.26326
 94  1 30  4 57 29.9920000  0  8  9 24  2 13 12  7  4  5
  18728947.961   -24584969.792 6 -19062070.01729
  19143553.922   -17892816.654 6 -13639833.29828
  21083957.773    -5022363.886 5  -3802001.14925
  18462756.563   -29260045.527 7 -21796903.88927
  19082231.516   -21204853.392 7 -16346709.18328
  20568629.648   -20869967.684 6 -16061453.24226
  18352499.422   -27065964.236 7 -20899884.79429
  20540015.258    -8733115.537 6  -6646493.87526
 94  1 30  4 57 59.9920000  0  8  9 24  2 13 12  7  4  5
  18722180.078   -24620537.083 7 -19089784.78229
  19125385.836   -17988301.990 6 -13714237.44428
  21094254.375    -4968278.942 5  -3759857.07125
  18465883.461   -29243623.083 7 -21784107.17827
  19068211.539   -21278517.112 7 -16404109.48228
  20578544.203   -20817869.475 6 -16020857.24126
  18346668.578   -27096601.109 7 -20923757.67629
  20520894.969    -8833583.028 6  -6724780.23026
 94  1 30  4 58 29.9920000  0  8  9 24  2 13 12  7  4  5
  18715519.281   -24655543.075 6 -19117062.17429
  19107287.391   -18083390.860 6 -13788332.65528
  21104597.375    -4913938.700 5  -3717514.04725
  18469075.336   -29226837.162 7 -21771027.24227
  19054283.328   -21351733.798 7 -16461161.44428
  20588473.461   -20765700.319 6 -15980205.95426
  18340949.094   -27126654.749 7 -20947176.08829
  20501786.625    -8934000.572 6  -6803027.64926
 94  1 30  4 58 59.9920000  0  8  9 24  2 13 12  7  4  5
  18708961.430   -24689992.708 6 -19143906.04929
  19089268.961   -18178080.781 6 -13862117.00128
  21114979.477    -4859352.919 5  -3674979.70124
  18472340.203   -29209690.703 7 -21757666.35527
  19040435.008   -21424501.826 7 -16517863.79228
  20598412.164   -20713471.271 6 -15939507.99026
  18335342.789   -27156127.221 7 -20970141.64529
  20482685.820    -9034368.484 6  -6881236.38826
 94  1 30  4 59 29.9920000  0  8  9 24  2 13 12  7  4  5
  18702513.109   -24723882.252 6 -19170313.49129
  19071331.680   -18272350.720 6 -13935574.09028
  21125415.102    -4804515.844 4  -3632249.55124
  18475670.172   -29192185.129 7 -21744025.64027
  19026671.789   -21496817.782 7 -16574213.90229
  20608360.750   -20661179.231 6 -15898760.94826
  18329845.195   -27185024.924 7 -20992659.32329
  20463597.758    -9134687.386 6  -6959406.95926
 94  1 30  4 59 59.9920000  0  8  9 24  2 13 12  7  4  5
  18696172.461   -24757204.342 6 -19196278.75529
  19053472.219   -18366200.890 6 -14008704.08628
  21135895.344    -4749449.639 4  -3589340.85324
  18479068.688   -29174327.501 7 -21730110.61027
  19012996.016   -21568683.929 7 -16630213.49729
  20618318.070   -20608836.642 6 -15857974.51626
  18324452.602   -27213351.775 7 -21014732.18629
  20444512.625    -9234954.160 6  -7037536.89926
 94  1 30  5  0 29.9920000  0  8  9 24  2 13 12  7  4  5
  18689943.539   -24789946.699 6 -19221792.28729
  19035691.461   -18459620.611 6 -14081498.66828
  21146419.578    -4694154.379 4  -3546253.67324
  18482533.820   -29156116.117 7 -21715919.91227
  18999408.398   -21640094.142 7 -16685857.81929
  20628294.891   -20556439.628 6 -15817145.67926
  18319171.984   -27241097.071 7 -21036351.89029
  20425450.008    -9335151.962 6  -7115613.08926
 94  1 30  5  0 59.9920000  0  8  9 24  2 13 12  7  4  5
  18683825.172   -24822097.480 6 -19246844.84829
  19017999.531   -18552605.644 6 -14153954.52828
  21156980.625    -4638623.186 4  -3502982.62224
  18486066.359   -29137549.802 7 -21701452.66027
  18985905.563   -21711042.586 7 -16741142.31629
  20638279.648   -20503959.464 6 -15776252.04426
  18314002.297   -27268267.194 7 -21057523.40829
  20406396.172    -9435271.169 6  -7193628.04326
 94  1 30  5  1 29.9920000  0  8  9 24  2 13 12  7  4  5
  18677818.781   -24853650.131 6 -19271431.33329
  19000386.109   -18645170.789 6 -14226083.19828
  21167594.930    -4582862.381 4  -3459532.67924
  18489664.953   -29118635.622 7 -21686714.33727
  18972492.680   -21781531.650 7 -16796068.85629
  20648281.688   -20451404.898 6 -15735300.43526
  18308945.031   -27294857.315 7 -21078242.98029
  20387359.125    -9535311.309 6  -7271581.39326
 94  1 30  5  1 59.9920000  0  8  9 24  2 13 12  7  4  5
  18671929.695   -24884596.203 6 -19295545.15829
  18982846.930   -18737327.925 6 -14297893.94428
  21178250.234    -4526874.994 4  -3415906.17325
  18493330.688   -29099379.256 7 -21671709.37727
  18959167.930   -21851562.474 7 -16850638.33229
  20658294.914   -20398781.502 6 -15694295.18826
  18303994.492   -27320862.867 7 -21098507.03929
  20368338.875    -9635260.691 6  -7349464.00926
 94  1 30  5  2 29.9920000  0  8  9 24  2 13 12  7  4  5
  18666156.977   -24914947.024 6 -19319195.14629
  18965389.274   -18829073.428 6 -14369383.93428
  21188949.781    -4470648.382 4  -3372093.25524
  18497059.508   -29079783.606 7 -21656440.04327
  18945927.047   -21921133.184 7 -16904849.27129
  20668318.516   -20346096.010 6 -15653241.56826
  18299159.398   -27346268.704 7 -21118303.78529
  20349335.758    -9735121.560 6  -7427277.65526
 94  1 30  5  2 59.9920000  0  8  9 24  2 13 12  7  4  5
  18660490.219   -24944716.719 6 -19342392.31529
  18948007.391   -18920407.733 6 -14440553.51428
  21199692.664    -4414179.729 4  -3328091.74224
  18500852.422   -29059852.895 7 -21640909.61127
  18932777.195   -21990243.544 7 -16958701.49729
  20678351.703   -20293373.053 6 -15612158.75026
  18294439.023   -27371065.429 7 -21137625.89629
  20330347.203    -9834907.716 6  -7505033.09726
 94  1 30  5  3 29.9920000  0  8  9 24  2 13 12  7  4  5
  18654934.320   -24973904.457 6 -19365136.02929
  18930711.859   -19011300.098 6 -14511378.71628
  21210484.633    -4357475.000 4  -3283906.26525
  18504709.453   -29039583.357 7 -21625115.16427
  18919715.680   -22058885.089 7 -17012188.41329
  20688390.008   -20240633.716 6 -15571063.16826
  18289841.125   -27395234.354 7 -21156458.81929
  20311371.391    -9934628.297 6  -7582737.43826
 94  1 30  5  3 59.9920000  0  8  9 24  2 13 12  7  4  5
  18649488.219   -25002537.202 6 -19387447.26629
  18913500.875   -19101744.887 6 -14581855.16628
  21221320.164    -4300541.262 4  -3239542.34624
  18508629.094   -29018980.320 7 -21609060.85227
  18906740.758   -22127058.593 7 -17065310.63029
  20698424.703   -20187883.836 6 -15529959.36426
  18285361.219   -27418782.153 7 -21174807.74729
  20292407.539   -10034298.056 6  -7660402.15826
 94  1 30  5  4 29.9920000  0  8  9 24  2 13 12  7  4  5
  18644142.500   -25030626.885 6 -19409335.34429
  18896374.250   -19191742.232 6 -14651982.95828
  21232197.336    -4243377.533 4  -3194999.21525
  18512613.648   -28998045.066 7 -21592747.66627
  18893860.523   -22194760.715 7 -17118065.52529
  20708463.625   -20135136.689 5 -15488857.69926
  18280996.000   -27441710.183 7 -21192673.73829
  20273446.266   -10133934.555 6  -7738040.97026
 94  1 30  5  4 59.9920000  0  8  9 24  2 13 12  7  4  5
  18638900.438   -25058166.112 6 -19430794.48829
  18879335.227   -19281292.688 6 -14721762.52428
  21243114.203    -4185992.089 4  -3150283.32825
  18516658.250   -28976784.691 7 -21576181.13927
  18881064.430   -22261993.885 7 -17170455.01029
  20718501.641   -20082383.209 5 -15447751.09026
  18276748.336   -27464049.320 7 -21210080.85529
  20254488.242   -10233548.840 6  -7815662.47826
 94  1 30  5  5 29.9920000  0  8  9 24  2 13 12  7  4  5
  18633770.047   -25085137.235 6 -19451810.93629
  18862378.859   -19370399.719 6 -14791196.56128
  21254083.023    -4128382.802 4  -3105393.00724
  18520767.766   -28955197.494 7 -21559359.94027
  18868359.852   -22328752.070 7 -17222474.38129
  20728540.656   -20029610.333 5 -15406629.37926
  18272607.367   -27485803.715 7 -21227032.32229
  20235540.938   -10333128.717 6  -7893257.16326
 94  1 30  5  5 59.9920000  0  8  9 24  2 13 12  7  4  5
  18628746.172   -25111534.972 6 -19472380.60429
  18845504.586   -19459072.385 6 -14860292.13028
  21265091.125    -4070529.790 4  -3060312.76924
  18524937.422   -28933281.630 7 -21542282.65327
  18855748.430   -22395028.670 7 -17274118.48728
  20738596.024   -19976797.602 5 -15365476.60326
  18268577.406   -27506977.123 7 -21243531.08029
  20216598.492   -10432657.463 6  -7970812.02627
 94  1 30  5  6 29.9920000  0  8  9 24  2 13 12  7  4  5
  18623835.852   -25137335.539 6 -19492484.94829
  18828714.617   -19547299.424 6 -14929040.46528
  21276150.016    -4012428.818 4  -3015039.32224
  18529169.523   -28911040.941 7 -21524952.25927
  18843229.203   -22460823.157 7 -17325386.92328
  20748651.805   -19923933.096 5 -15324283.48326
  18264658.813   -27527581.874 7 -21259586.71829
  20197671.219   -10532120.761 6  -8048315.88027
 94  1 30  5  6 59.9920000  0  8  9 24  2 13 12  7  4  5
  18619043.359   -25162530.891 6 -19512117.69529
  18812011.219   -19635073.455 6 -14997435.80028
  21287252.836    -3954072.687 4  -2969567.03624
  18533465.063   -28888473.683 7 -21507367.37827
  18830803.070   -22526129.091 7 -17376274.66428
  20758728.023   -19871007.684 5 -15283042.90926
  18260842.586   -27547614.560 7 -21275196.59429
  20178763.617   -10631490.189 6  -8125746.59127
 94  1 30  5  7 29.9920000  0  8  9 24  2 13 12  7  4  5
  18614357.258   -25187137.826 6 -19531291.92429
  18795397.258   -19722395.615 6 -15065479.03828
  21298409.203    -3895470.120 4  -2923902.73924
  18537818.789   -28865585.489 7 -21489532.42027
  18818466.859   -22590947.898 7 -17426782.82428
  20768805.711   -19818029.712 5 -15241761.38226
  18257144.602   -27567061.407 7 -21290349.96729
  20159876.797   -10730750.312 6  -8203092.13427
 94  1 30  5  7 59.9920000  0  8  9 24  2 13 12  7  4  5
  18609784.922   -25211173.007 6 -19550020.64329
  18778865.469   -19809256.334 6 -15133162.70628
  21309604.422    -3836631.180 4  -2878054.26323
  18542234.211   -28842385.292 7 -21471454.34027
  18806226.719   -22655283.698 7 -17476914.61928
  20778902.305   -19764988.674 5 -15200430.69526
  18253553.516   -27585933.178 7 -21305055.24129
  20141008.750   -10829884.767 6  -8280339.74827
 94  1 30  5  8 29.9920000  0  8  9 24  2 13 12  7  4  5
  18605324.219   -25234627.280 6 -19568296.70429
  18762425.078   -19895653.981 6 -15200485.53928
  21320840.727    -3777555.971 4  -2832021.66724
  18546711.094   -28818870.041 7 -21453130.76627
  18794074.430   -22719128.919 7 -17526664.14728
  20789005.617   -19711890.298 5 -15159055.34926
  18250071.203   -27604220.621 7 -21319305.18329
  20122170.680   -10928877.094 6  -8357476.59527
 94  1 30  5  8 59.9920000  0  8  9 24  2 13 12  7  4  5
  18600965.406   -25257516.796 6 -19586132.69729
  18746072.547   -19981597.961 6 -15267454.86228
  21332128.141    -3718247.945 4  -2785807.65322
  18551245.531   -28795040.966 7 -21434562.66227
  18782018.063   -22782480.496 7 -17576029.00428
  20799119.383   -19658750.119 5 -15117647.42125
  18246706.609   -27621911.042 7 -21333089.92429
  20103361.586   -11027733.755 6  -8434507.73527
 94  1 30  5  9 29.9920000  0  8  9 24  2 13 12  7  4  5
  18596720.258   -25279836.040 6 -19603524.32329
  18729802.875   -20067078.723 6 -15334063.23628
  21343455.180    -3658716.920 4  -2739419.86522
  18555837.938   -28770899.195 7 -21415750.88527
  18770059.039   -22845334.985 7 -17625006.52328
  20809240.516   -19605557.426 5 -15076198.57626
  18243452.023   -27639011.306 7 -21346414.79629
  20084572.688   -11126468.063 6  -8511443.52927
 94  1 30  5  9 59.9920000  0  8  9 24  2 13 12  7  4  5
  18592583.297   -25301571.915 6 -19620461.36629
  18713622.180   -20152104.373 6 -15400316.98828
  21354831.195    -3598955.406 3  -2692852.51323
  18560490.805   -28746449.476 7 -21396699.16027
  18758193.258   -22907692.867 7 -17673597.08828
  20819368.961   -19552323.056 5 -15034717.24126
  18240305.867   -27655543.322 7 -21359296.87929
  20065804.586   -11225099.671 6  -8588299.31227
 94  1 30  5 10 29.9920000  0  8  9 24  2 13 12  7  4  5
  18588558.391   -25322715.945 6 -19636937.23929
  18697531.648   -20236672.693 6 -15466214.37228
  21366250.117    -3538960.611 3  -2646103.34122
  18565202.453   -28721691.438 7 -21377407.17327
  18746420.094   -22969549.168 7 -17721796.80328
  20829503.672   -19499069.816 5 -14993221.21626
  18237269.805   -27671504.779 7 -21371734.36729
  20047047.992   -11323663.069 6  -8665101.94127
 94  1 30  5 10 59.9920000  0  8  9 24  2 13 12  7  4  5
  18584648.641   -25343274.593 6 -19652956.96129
  18681528.570   -20320779.428 6 -15531752.08028
  21377709.797    -3478740.184 3  -2599178.34322
  18569972.781   -28696630.193 7 -21357878.92327
  18734745.336   -23030904.823 7 -17769606.40728
  20839639.899   -19445793.244 5 -14951707.01026
  18234339.438   -27686893.755 7 -21383725.77029
  20028301.070   -11422172.285 6  -8741862.36927
 94  1 30  5 11 59.9910000  0  8  9 24  2 13 12  7  4  5
  18577164.839   -25382593.367 6 -19683594.94729
  18649779.034   -20487606.872 6 -15661747.47228
  21400757.222    -3357613.323 3  -2504793.82823
  18579679.667   -28645612.570 7 -21318124.93327
  18711681.206   -23152107.433 7 -17864050.00328
  20859933.901   -19339149.501 5 -14868608.00326
  18228813.784   -27715938.785 7 -21406358.25029
  19990844.269   -11619025.934 6  -8895254.79827
 94  1 30  5 12 29.9910000  0  8  9 24  2 13 12  7  4  5
  18573592.870   -25401374.491 6 -19698229.58029
  18634037.784   -20570333.002 6 -15726209.38728
  21412340.339    -3296718.869 3  -2457343.64623
  18584617.026   -28619668.503 7 -21297908.76827
  18700292.964   -23211960.954 7 -17910689.11528
  20870083.659   -19285806.163 5 -14827041.77426
  18226217.995   -27729566.888 7 -21416977.54029
  19972128.964   -11717367.391 6  -8971884.49027
 94  1 30  5 12 59.9910000  0  8  9 24  2 13 12  7  4  5
  18570130.198   -25419561.219 6 -19712401.05629
  18618385.550   -20652592.018 6 -15790307.33228
  21423973.784    -3235602.463 3  -2409720.49822
  18589610.605   -28593430.276 7 -21277463.39027
  18688997.472   -23271305.366 7 -17956931.51128
  20880245.878   -19232425.195 5 -14785446.22526
  18223743.823   -27742582.275 7 -21427119.39629
  19953429.105   -11815619.094 6  -9048444.25527
 94  1 30  5 13 29.9910000  0  8  9 24  2 13 12  7  4  5
  18566781.105   -25437153.330 6 -19726109.20429
  18602821.620   -20734378.810 6 -15854037.29328
  21435644.730    -3174264.056 3  -2361924.36823
  18594657.245   -28566900.067 7 -21256790.49427
  18677802.448   -23330138.205 7 -18002775.27628
  20890405.862   -19179015.300 5 -14743828.12026
  18221380.378   -27755001.804 7 -21436796.94129
  19934751.737   -11913780.808 6  -9124933.88627
 94  1 30  5 13 59.9910000  0  8  9 24  2 13 12  7  4  5
  18563546.714   -25454167.373 6 -19739366.89929
  18587348.847   -20815685.602 6 -15917393.23729
  21447353.331    -3112708.209 3  -2313958.79822
  18599761.120   -28540079.350 7 -21235891.21827
  18666704.839   -23388456.739 7 -18048218.29428
  20900576.081   -19125587.892 5 -14702196.37326
  18219126.620   -27766839.632 7 -21446021.22429
  19916093.214   -12011837.853 6  -9201341.95027
 94  1 30  5 14 29.9910000  0  8  9 24  2 13 12  7  4  5
  18560416.722   -25470605.268 6 -19752175.66229
  18571968.792   -20896514.090 6 -15980376.46229
  21459111.511    -3050941.137 3  -2265828.62922
  18604919.276   -28512972.057 7 -21214768.65527
  18655705.347   -23446260.657 7 -18093260.31028
  20910747.034   -19072134.453 5 -14660544.35225
  18216983.644   -27778106.302 7 -21454800.43529
  19897452.159   -12109792.895 6  -9277670.54627
 94  1 30  5 14 59.9910000  0  8  9 24  2 13 12  7  4  5
  18557400.167   -25486457.524 6 -19764528.07729
  18556681.526   -20976854.791 6 -16042979.58629
  21470905.159    -2988957.327 3  -2217529.56623
  18610132.456   -28485577.710 7 -21193422.40527
  18644803.933   -23503545.178 7 -18137897.60328
  20920926.933   -19018642.419 5 -14618862.25026
  18214946.909   -27788810.165 6 -21463141.09929
  19878832.534   -12207641.820 6  -9353916.43427
 94  1 30  5 15 29.9910000  0  8  9 24  2 13 12  7  4  5
  18554490.995   -25501751.823 6 -19776445.71529
  18541484.190   -21056715.530 6 -16105208.72129
  21482737.308    -2926769.689 3  -2169071.71023
  18615398.519   -28457908.850 7 -21171862.24927
  18634000.612   -23560318.674 7 -18182136.69728
  20931112.089   -18965131.307 5 -14577165.29326
  18213013.573   -27798958.759 6 -21471049.09229
  19860233.620   -12305386.904 6  -9430081.42327
 94  1 30  5 15 59.9910000  0  8  9 24  2 13 12  7  4  5
  18551684.636   -25516485.999 6 -19787926.89329
  18526379.136   -21136086.651 6 -16167056.33629
  21494614.347    -2864371.110 3  -2120449.44721
  18620716.972   -28429963.983 7 -21150087.03427
  18623296.480   -23616575.187 7 -18225972.94528
  20941293.081   -18911596.647 5 -14535449.98326
  18211193.269   -27808531.707 7 -21478508.52429
  19841656.417   -12403011.227 6  -9506152.28927
 94  1 30  5 16 29.9910000  0  8  9 24  2 13 12  7  4  5
  18548992.300   -25530641.877 6 -19798957.45429
  18511368.003   -21214973.826 6 -16228526.84929
  21506527.214    -2801753.547 3  -2071656.56822
  18626085.909   -28401743.905 7 -21128097.34527
  18612688.597   -23672311.546 7 -18269403.87828
  20951486.378   -18858030.228 5 -14493709.92025
  18209484.433   -27817516.529 6 -21485509.67629
  19823099.276   -12500521.258 6  -9582134.10927
 94  1 30  5 16 59.9910000  0  8  9 24  2 13 12  7  4  5
  18546407.190   -25544226.913 6 -19809543.20629
  18496447.894   -21293374.064 6 -16289617.92829
  21518495.464    -2738910.571 3  -2022688.02621
  18631509.175   -28373247.061 7 -21105892.00627
  18602184.433   -23727521.720 7 -18312424.79528
  20961692.222   -18804429.380 5 -14451943.02725
  18207885.237   -27825911.870 7 -21492051.49929
  19804567.253   -12597897.154 6  -9658011.41427
 94  1 30  5 17 29.9910000  0  8  9 24  2 13 12  7  4  5
  18543929.503   -25557244.935 6 -19819687.12829
  18481617.605   -21371300.945 6 -16350340.16729
  21530494.011    -2675839.411 3  -1973541.70622
  18636984.355   -28344475.762 7 -21083472.81327
  18591778.323   -23782203.952 7 -18355034.32128
  20971894.159   -18750803.264 5 -14410156.46025
  18206401.472   -27833717.067 7 -21498133.46329
  19786064.472   -12695142.014 6  -9733786.60827
 94  1 30  5 17 59.9910000  0  8  9 24  2 13 12  7  4  5
  18541566.901   -25569667.026 6 -19829366.69829
  18466878.058   -21448761.336 6 -16410698.88929
  21542536.636    -2612529.897 3  -1924209.67121
  18642509.511   -28315431.373 7 -21060840.81827
  18581474.511   -23836355.300 7 -18397230.17028
  20982103.120   -18697142.473 5 -14368342.85925
  18205027.417   -27840938.652 7 -21503760.66929
  19767583.370   -12792260.761 6  -9809463.53527
 94  1 30  5 18 29.9910000  0  8  9 24  2 13 12  7  4  5
  18539316.292   -25581489.718 6 -19838579.19829
  18452224.886   -21525763.177 6 -16470700.32429
  21554630.628    -2548990.144 3  -1874698.19321
  18648090.558   -28286118.552 7 -21037999.66327
  18571269.941   -23889976.439 7 -18439012.87528
  20992325.800   -18643446.933 5 -14326502.18825
  18203760.839   -27847590.289 7 -21508943.75429
  19749124.308   -12889262.114 6  -9885048.99327
 94  1 30  5 18 59.9910000  0  8  9 24  2 13 12  7  4  5
  18537176.839   -25592732.329 6 -19847339.69329
  18437659.026   -21602296.517 6 -16530336.68729
  21566764.495    -2485228.341 3  -1825013.67622
  18653716.214   -28256545.063 7 -21014955.38727
  18561166.386   -23943071.230 7 -18480385.44228
  21002545.941   -18589728.983 5 -14284644.05625
  18202603.050   -27853682.127 7 -21513690.63729
  19730685.597   -12986152.851 6  -9960548.25927
 94  1 30  5 19 29.9910000  0  8  9 24  2 13 12  7  4  5
  18535152.753   -25603374.724 6 -19855632.47229
  18423190.573   -21678353.920 6 -16589602.18829
  21578938.886    -2421235.193 3  -1775148.93122
  18659393.917   -28226710.110 7 -20991707.36927
  18551162.394   -23995634.388 7 -18521343.74828
  21012772.480   -18535989.221 5 -14242768.92825
  18201549.237   -27859214.248 7 -21518001.37629
  19712265.839   -13082945.087 6 -10035970.76627
 94  1 30  5 19 59.9910000  0  8  9 24  2 13 12  7  4  5
  18533240.542   -25613421.212 6 -19863460.90029
  18408811.480   -21753905.868 6 -16648473.82629
  21591160.073    -2357014.958 3  -1725107.19822
  18665122.441   -28196613.165 7 -20968255.20927
  18541263.315   -24047661.359 7 -18561884.25028
  21023003.503   -18482224.364 5 -14200874.24825
  18200600.698   -27864186.922 6 -21521876.18029
  19693866.550   -13179643.556 6 -10111320.20227
 94  1 30  5 20 29.9910000  0  8  9 24  2 13 12  7  4  5
  18531434.183   -25622902.296 6 -19870848.76829
  18394529.917   -21828948.894 6 -16706948.89329
  21603418.901    -2292582.620 3  -1674900.20722
  18670895.339   -28166259.754 7 -20944603.19927
  18531465.214   -24099153.612 7 -18602008.08928
  21033233.433   -18428448.774 5 -14158971.20225
  18199765.440   -27868601.336 7 -21525315.97729
  19675480.433   -13276259.705 6 -10186605.50927
 94  1 30  5 20 59.9910000  0  8  9 24  2 13 12  7  4  5
  18529738.566   -25631828.157 6 -19877803.98529
  18380349.323   -21903482.177 6 -16765026.76429
  21615721.800    -2227936.014 3  -1624526.23723
  18676721.573   -28135651.681 7 -20920752.75627
  18521767.237   -24150108.999 7 -18641713.58728
  21043472.823   -18374657.023 5 -14117055.57125
  18199029.261   -27872449.993 7 -21528314.92529
  19657110.323   -13372794.119 6 -10261827.11827
 94  1 30  5 21 29.9910000  0  8  9 24  2 13 12  7  4  5
  18528148.175   -25640185.231 6 -19884315.99229
  18366260.245   -21977507.766 6 -16822709.03228
  21628065.120    -2163079.050 3  -1573988.37222
  18682594.347   -28104788.595 7 -20896703.59827
  18512173.925   -24200523.047 7 -18680997.26228
  21053711.870   -18320842.656 5 -14075122.30525
  18198405.745   -27875728.201 7 -21530869.36729
  19638757.589   -13469243.479 6 -10336982.47027
 94  1 30  5 21 59.9910000  0  8  9 24  2 13 12  7  4  5
  18526660.909   -25647987.200 6 -19890395.45729
  18352269.839   -22051024.958 6 -16879995.15128
  21640445.987    -2098029.961 3  -1523300.82522
  18688516.690   -28073672.938 7 -20872457.63727
  18502686.042   -24250394.335 7 -18719858.00628
  21063958.151   -18267004.036 5 -14033170.14025
  18197892.261   -27878433.545 7 -21532977.42929
  19620421.940   -13565592.035 6 -10412059.25527
 94  1 30  5 22 29.9910000  0  8  9 24  2 13 12  7  4  5
  18525282.901   -25655234.231 6 -19896042.49229
  18338376.237   -22124050.872 7 -16936898.45228
  21652863.675    -2032784.990 3  -1472460.62423
  18694484.120   -28042309.640 7 -20848018.71027
  18493296.448   -24299723.731 7 -18758296.49928
  21074202.480   -18213141.335 5 -13991199.22725
  18197488.237   -27880560.128 7 -21534634.50429
  19602111.167   -13661813.375 6 -10487036.89727
 94  1 30  5 22 59.9910000  0  8  9 24  2 13 12  7  4  5
  18524016.253   -25661905.743 6 -19901241.07429
  18324575.112   -22196570.693 6 -16993407.39628
  21665316.612    -1967334.609 3  -1421460.35922
  18700500.925   -28010699.242 7 -20823387.22727
  18484013.401   -24348507.695 7 -18796309.97228
  21084457.081   -18159246.536 5 -13949203.28425
  18197191.886   -27882108.720 7 -21535841.19929
  19583830.300   -13757890.546 6 -10561902.22827
 94  1 30  5 23 29.9910000  0  8  9 24  2 13 12  7  4  5
  18522854.237   -25667992.794 6 -19905984.23229
  18310872.042   -22268581.408 6 -17049519.63328
  21677805.253    -1901680.135 3  -1370301.08222
  18706558.823   -27978848.084 7 -20798568.14327
  18474834.651   -24396748.989 7 -18833900.59128
  21094724.097   -18105340.547 5 -13907198.63325
  18197005.909   -27883098.690 7 -21536612.60029
  19565575.026   -13853820.819 6 -10636653.07827
 94  1 30  5 23 59.9910000  0  8  9 24  2 13 12  7  4  5
  18521807.737   -25673499.204 6 -19910274.95228
  18297266.901   -22340081.895 6 -17105234.28628
  21690346.206    -1835815.002 3  -1318977.64022
  18712666.886   -27946758.590 7 -20773563.34327
  18465756.995   -24444445.948 7 -18871067.05428
  21104981.761   -18051420.716 5 -13865183.19425
  18196921.464   -27883528.935 7
  19547348.972   -13949591.591 6 -10711279.63127
 94  1 30  5 24 29.9910000  0  8  9 24  2 13 12  7  4  5
  18520874.222   -25678412.369 6 -19914103.40028
  18283756.261   -22411074.650 7 -17160553.30528
  21702922.831    -1769719.513 3  -1267474.68522
  18718818.644   -27914430.475 7 -20748372.61027
  18456786.558   -24491594.273 7 -18907806.01928
  21115244.159   -17997488.067 5 -13823157.75325
  18196947.253   -27883397.991 7
  19529155.550   -14045203.063 6 -10785782.06527
 94  1 30  5 24 59.9910000  0  8  9 24  2 13 12  7  4  5
  18520051.589   -25682735.106 6 -19917471.76528
  18270344.612   -22481555.786 7 -17215473.65828
  21715543.105    -1703402.905 3  -1215799.45722
  18725016.386   -27881866.069 7 -20722997.74727
  18447916.909   -24538192.664 6 -18944116.45728
  21125511.816   -17943548.199 5 -13781126.69225
  18197075.183   -27882722.553 7 -21536319.49529
  19510986.886   -14140680.787 6 -10860180.27827
 94  1 30  5 25 29.9910000  0  8  9 24  2 13 12  7  4  5
  18519335.550   -25686480.073 6 -19920389.92028
  18257027.589   -22551541.080 6 -17270007.64828
  21728199.667    -1636860.837 2  -1163948.48822
  18731257.940   -27849064.812 7 -20697438.32427
  18439156.495   -24584236.684 7 -18979994.91828
  21135774.394   -17889595.094 5 -13739085.31925
  18197310.769   -27881493.888 7 -21535362.08629
  19492844.206   -14236020.264 6 -10934470.78327
 94  1 30  5 25 59.9910000  0  8  9 24  2 13 12  7  4  5
  18518731.058   -25689669.072 6 -19922874.85728
  18243800.425   -22621040.311 6 -17324162.88728
  21740902.745    -1570100.993 2  -1111927.85621
  18737544.425   -27816031.821 7 -20671698.33027
  18430498.862   -24629727.491 7 -19015442.30328
  21146042.456   -17835624.099 5 -13697030.00625
  18197648.472   -27879701.117 7 -21533965.11929
  19474727.370   -14331225.261 6 -11008656.48827
 94  1 30  5 26 29.9910000  0  8  9 24  2 13 12  7  4  5
  18518231.612   -25692302.225 6 -19924926.67129
  18230668.620   -22690056.878 6 -17377942.02028
  21753649.081    -1503128.520 2  -1059741.52621
  18743873.698   -27782767.084 7 -20645777.75227
  18421947.698   -24674661.284 6 -19050455.65428
  21156318.026   -17781646.580 5 -13654969.60525
  18198095.386   -27877354.099 7 -21532136.27129
  19456635.214   -14426303.646 6 -11082743.53328
 94  1 30  5 26 59.9910000  0  8  9 24  2 13 12  7  4  5
  18517834.472   -25694382.755 6 -19926547.86729
  18217626.878   -22758584.295 6 -17431339.99528
  21766429.667    -1435953.971 2  -1007397.78021
  18750248.308   -27749273.270 7 -20619678.67127
  18413505.355   -24719037.202 6 -19085034.30128
  21166593.573   -17727663.275 5 -13612904.70325
  18198646.800   -27874450.928 7 -21529874.05929
  19438565.816   -14521257.283 6 -11156733.37727
 94  1 30  5 27 29.9910000  0  8  9 24  2 13 12  7  4  5
  18517544.019   -25695900.744 6 -19927730.71729
  18204679.964   -22826619.246 6 -17484354.23528
  21779260.901    -1368574.190 2   -954894.04922
  18756663.214   -27715550.185 7 -20593400.94627
  18405167.011   -24762850.998 6 -19119174.92828
  21176864.042   -17673672.380 5 -13570833.88425
  18199313.065   -27870975.954 7 -21527166.28129
  19420522.487   -14616064.912 6 -11230609.44927
 94  1 30  5 27 59.9910000  0  8  9 24  2 13 12  7  4  5
  18517365.292   -25696836.823 6 -19928460.13329
  18191832.769   -22894140.133 6 -17536967.90628
  21792116.198    -1300997.143 2   -902236.65021
  18763128.323   -27681590.054 7 -20566938.50026
  18396937.386   -24806091.406 6 -19152868.75628
  21187141.026   -17619672.813 5 -13528756.30525
  18200081.940   -27866933.719 7 -21524016.48629
  19402512.151   -14710721.135 6 -11304367.53228
 94  1 30  5 28 29.9910000  0  8  9 24  2 13 12  7  4  5
  18517294.972   -25697201.228 6
  18179079.784   -22961153.285 6 -17589185.93528
  21805006.636    -1233244.011 2   -849442.03221
  18769630.737   -27647416.316 7 -20540309.61627
  18388814.870   -24848778.229 6 -19186131.22428
  21197416.980   -17565683.437 5 -13486686.67025
  18200952.675   -27862347.923 7 -21520443.13129
  19384524.940   -14805244.663 6 -11378022.20828
 94  1 30  5 28 59.9910000  0  8  9 24  2 13 12  7  4  5
  18517334.550   -25697003.802 6
  18166426.269   -23027646.864 6 -17640999.10728
  21817931.855    -1165305.880 2   -796503.26121
  18776174.081   -27613032.666 7 -20513517.16227
  18380798.894   -24890911.452 6 -19218962.30528
  21207684.433   -17511693.537 5 -13444616.63325
  18201929.948   -27857210.186 7 -21516439.69229
  19366565.636   -14899622.937 6 -11451563.72728
 94  1 30  5 29 29.9910000  0  8  9 24  2 13 12  7  4  5
  18517478.855   -25696236.123 6 -19927992.05729
  18153873.269   -23093606.819 6 -17692396.46828
  21830905.315    -1097166.292 2   -743407.46721
  18782759.542   -27578426.238 7 -20486551.11727
  18372888.433   -24932474.610 6 -19251349.18528
  21217967.753   -17457689.747 5 -13402535.77225
  18203012.245   -27851518.004 7 -21512004.22629
  19348636.730   -14993828.484 6 -11524970.64428
 94  1 30  5 29 59.9910000  0  7  9 24 13 12  7  4  5
  18517729.855   -25694916.140 6 -19926963.50028
  18141423.558   -23159032.778 6 -17743377.71428
  18789383.323   -27543604.427 7 -20459417.23326
  18365087.370   -24973471.426 6 -19283294.76227
  21228243.112   -17403679.303 5 -13360449.72425
  18204200.433   -27845284.058 7 -21507146.60429
  19330744.362   -15087869.018 6 -11598248.97728
 94  1 30  5 30 29.9910000  0  7  9 24 13 12  7  4  5
  18518088.503   -25693044.569 6 -19925505.14028
  18129072.745   -23223931.698 6 -17793948.28729
  18796053.065   -27508571.876 7 -20432119.13727
  18357393.917   -25013902.988 7 -19314799.87328
  21238523.386   -17349659.808 5 -13318356.61925
  18205488.745   -27838506.381 7 -21501865.29929
  19312880.073   -15181738.627 6 -11671394.12628
 94  1 30  5 30 59.9910000  0  7  9 24 13 12  7  4  5
  18518551.355   -25690616.300 6 -19923612.99028
  18116820.300   -23288327.873 6 -17844127.10128
  18802757.339   -27473332.362 7 -20404659.77627
  18349806.565   -25053769.561 6 -19345864.73528
  21248802.730   -17295634.737 5 -13276259.17624
  18206880.448   -27831201.842 7 -21496173.44329
  19295050.269   -15275436.147 6 -11744405.17328
 94  1 30  5 31 29.9910000  0  7  9 24 13 12  7  4  5
  18519122.362   -25687612.861 6 -19921272.65528
  18104661.081   -23352222.560 6 -17893915.15728
  18809503.073   -27437885.977 7 -20377039.21427
  18342328.347   -25093067.580 6 -19376486.57128
  21259087.878   -17241597.120 5 -13234151.95425
  18208367.605   -27823370.297 7 -21490070.93629
  19277248.659   -15368979.045 6 -11817295.74528
 94  1 30  5 31 59.9910000  0  7  9 24 13 12  7  4  5
  18519810.534   -25684007.346 6 -19918463.17528
  18092600.776   -23415601.084 6 -17943300.99929
  18816285.933   -27402229.123 7 -20349254.65627
  18334960.667   -25131790.163 6 -19406660.01728
  21269374.675   -17187533.393 5 -13192024.37925
  18209963.019   -27814990.744 7 -21483541.41829
  19259478.050   -15462369.990 6 -11890067.91228
 94  1 30  5 32 29.9910000  0  7  9 24 13 12  7  4  5
  18520611.511   -25679793.587 6 -19915179.72928
  18080637.620   -23478465.362 6 -17992286.14729
  18823113.956   -27366367.419 7 -20321310.46327
  18327700.440   -25169939.266 6 -19436386.59228
  21279664.894   -17133439.939 5 -13149873.65625
  18211660.730   -27806068.029 7 -21476588.64729
  19241735.230   -15555612.766 6 -11962724.61228
 94  1 30  5 32 59.9910000  0  7  9 24 13 12  7  4  5
  18521524.753   -25674995.245 6 -19911440.76728
  18068773.784   -23540807.330 6 -18040864.29428
  18829972.206   -27330306.647 7 -20293211.16627
  18320550.995   -25207517.387 7 -19465668.24927
  21289964.042   -17079322.236 5 -13107704.01825
  18213464.933   -27796597.123 7 -21469208.72029
  19224015.987   -15648724.237 6 -12035278.98728
 94  1 30  5 33 29.9910000  0  7  9 24 13 12  7  4  5
  18522547.440   -25669628.126 6 -19907258.60528
  18057016.808   -23602597.205 6 -18089012.23229
  18836872.464   -27294048.998 7 -20264958.45127
  18313508.331   -25244523.299 7 -19494504.02927
  21300265.722   -17025181.005 5 -13065516.06425
  18215372.628   -27786575.491 7 -21461399.65629
  19206321.112   -15741702.520 6 -12107729.59028
 94  1 30  5 33 59.9910000  0  7  9 24 13 12  7  4  5
  18523670.847   -25663711.600 6 -19902648.33128
  18045361.534   -23663837.623 6 -18136732.02229
  18843810.612   -27257594.051 7 -20236551.99927
  18306576.440   -25280953.100 6 -19522890.89027
  21310573.136   -16971035.431 5 -13023324.72525
  18217380.472   -27776015.964 7 -21453171.44429
  19188658.417   -15834530.793 6 -12180063.29928
 94  1 30  5 34 29.9910000  0  7  9 24 13 12  7  4  5
  18524898.847   -25657270.594 6 -19897629.36528
  18033811.081   -23724547.362 6 -18184038.30228
  18850785.097   -27220943.473 7 -20207993.11027
  18299752.308   -25316805.271 7 -19550827.65028
  21320879.714   -16916885.500 5 -12981129.99525
  18219487.128   -27764940.893 7 -21444541.51529
  19171020.675   -15927215.710 6 -12252285.32228
 94  1 30  5 34 59.9910000  0  7  9 24 13 12  7  4  5
  18526224.159   -25650296.441 6 -19892194.96328
  18022360.355   -23784725.581 6 -18230930.41328
  18857797.120   -27184091.865 7 -20179277.57727
  18293041.550   -25352071.107 7 -19578307.52927
  21331184.940   -16862721.945 5 -12938924.64925
  18221693.081   -27753353.531 7 -21435512.40329
  19153413.722   -16019737.175 6 -12324379.95528
 94  1 30  5 35 29.9910000  0  7  9 24 13 12  7  4  5
  18527657.019   -25642777.623 6 -19886336.15228
  18011005.175   -23844386.827 6 -18277419.67829
  18864846.237   -27147046.791 7 -20150411.30227
  18286441.550   -25386754.904 6 -19605333.87327
  21341491.761   -16808552.113 4 -12896714.38825
  18223993.917   -27741269.441 7 -21426096.22729
  19135843.175   -16112076.940 6 -12396333.01228
 94  1 30  5 35 59.9910000  0  7  9 24 13 12  7  4  5
  18529194.003   -25634699.176 6 -19880041.26428
  17999745.769   -23903552.359 6 -18323522.67929
  18871932.190   -27109807.665 7 -20121393.81027
  18279953.894   -25420852.658 7 -19631903.56227
  21351803.276   -16754368.323 4 -12854493.27725
  18226389.597   -27728676.715 7 -21416283.70929
  19118307.519   -16204224.291 6 -12468136.15328
 94  1 30  5 36 29.9910000  0  7  9 24 13 12  7  4  5
  18530835.050   -25626060.826 6 -19873310.09828
  17988583.331   -23962215.069 6 -18369233.85428
  18879054.526   -27072384.218 7 -20092232.67827
  18273575.581   -25454370.800 6 -19658021.60127
  21362110.511   -16700170.765 4 -12812261.42025
  18228884.761   -27715568.364 7 -21406069.41129
  19100811.355   -16296169.782 6 -12539781.97628
 94  1 30  5 36 59.9910000  0  7  9 24 13 12  7  4  5
  18532587.987   -25616859.054 6 -19866139.88628
  17977520.323   -24020354.898 6 -18414537.61129
  18886212.487   -27034776.367 7 -20062927.85927
  18267306.112   -25487306.407 6 -19683685.70528
  21372427.308   -16645972.200 4 -12770028.79025
  18231479.855   -27701921.875 7 -21395435.78329
  19083355.362   -16387898.672 7 -12611259.02028
 94  1 30  5 37 29.9910000  0  7  9 24 13 12  7  4  5
  18534442.839   -25607103.219 6 -19858537.95529
  17966555.722   -24077969.582 6 -18459432.16729
  18893401.253   -26996988.130 7 -20033482.49027
  18261152.784   -25519660.175 6 -19708896.44028
  21382742.159   -16591785.614 4 -12727805.48025
  18234181.784   -27687730.414 7 -21384377.49729
  19065940.011   -16479422.756 7 -12682576.48628
 94  1 30  5 37 59.9910000  0  7  9 24 13 12  7  4  5
  18536401.315   -25596803.502 6 -19850512.20229
  17955695.230   -24135047.257 6 -18503908.27028
  18900626.964   -26959021.431 7 -20003898.04727
  18255104.394   -25551430.841 6 -19733652.81327
  21393041.206   -16537612.645 4 -12685592.79325
  18236987.401   -27672994.535 7 -21372894.99929
  19048559.526   -16570752.385 6 -12753742.41528
 94  1 30  5 38 29.9910000  0  7  9 24 13 12  7  4  5
  18538461.940   -25585978.026 6 -19842076.78029
  17944937.206   -24191574.185 6 -18547955.22528
  18907885.808   -26920877.593 7 -19974175.58627
  18249170.737   -25582616.607 7 -19757953.42727
  21403356.909   -16483462.134 5 -12643397.59225
  18239892.105   -27657724.228 7 -21360996.05429
  19031214.120   -16661900.749 6 -12824767.11928
 94  1 30  5 38 59.9910000  0  7  9 24 13 12  7  4  5
  18540622.050   -25574626.108 6 -19833231.13828
  17934284.089   -24247565.172 7 -18591584.54828
  18915177.698   -26882557.874 7 -19944316.07527
  18243347.206   -25613215.829 7 -19781796.98427
  21413651.636   -16429320.647 5 -12601209.43625
  18242895.706   -27641933.350 7 -21348691.47629
  19013900.628   -16752887.707 7 -12895666.04728
 94  1 30  5 39 29.9910000  0  7  9 24 13 12  7  4  5
  18542883.964   -25562740.836 6 -19823969.88828
  17923728.933   -24303020.420 7 -18634796.43028
  18922504.136   -26844062.650 7 -19914319.79027
  18237638.487   -25643225.884 7 -19805181.45328
  21423964.909   -16375168.786 5 -12559013.19225
  18245999.183   -27625628.991 7 -21335986.77529
  18996618.472   -16843703.884 7 -12966431.89728
 94  1 30  5 39 59.9910000  0  7  9 24 13 12  7  4  5
  18545247.058   -25550328.181 6 -19814297.69529
  17913281.089   -24357941.088 7 -18677591.74928
  18929860.667   -26805396.411 7 -19884190.26127
  18232039.315   -25672648.017 7 -19828107.79028
  21434265.722   -16320997.358 4 -12516801.70225
  18249197.597   -27608813.977 7 -21322884.16429
  18979367.065   -16934358.583 6 -13037071.92428
 94  1 30  5 40 29.9910000  0  7  9 24 13 12  7  4  5
  18547708.409   -25537389.319 6 -19804215.48929
  17902924.659   -24412348.421 7 -18719987.06128
  18937249.386   -26766565.493 7 -19853932.39927
  18226552.831   -25701485.476 7 -19850578.54528
  21444580.136   -16266813.857 4 -12474580.80524
  18252496.964   -27591489.386 7 -21309384.48429
  18962144.495   -17024866.977 6 -13107597.94428
 94  1 30  5 40 59.9910000  0  8  9 24 20 13 12  7  4  5
  18550274.144   -25523908.052 6 -19793710.62629
  17892672.597   -24466234.025 7 -18761975.84628
  21932675.183          -0.03613
  18944672.980   -26727566.927 7 -19823543.90927
  18221175.284   -25729732.717 7 -19872589.38728
  21454897.503   -16212604.511 4 -12432339.77325
  18255891.917   -27573640.594 7 -21295476.33429
  18944952.862   -17115204.593 7 -13177990.88028
 94  1 30  5 41 29.9910000  0  8  9 24 20 13 12  7  4  5
  18552939.659   -25509892.626 6 -19782789.52828
  17882520.636   -24519586.837 7 -18803549.44128
  21910077.745     -118768.203 3
  18952124.659   -26688403.160 7 -19793026.69627
  18215912.456   -25757388.993 7 -19894139.73528
  21465212.175   -16158393.360 4 -12390097.33125
  18259389.972   -27555263.759 7 -21281156.72129
  18927796.378   -17205362.520 7 -13248243.79829
 94  1 30  5 41 59.9910000  0  8  9 24 20 13 12  7  4  5
  18555708.011   -25495349.848 6 -19771457.52328
  17872465.222   -24572422.230 7 -18844719.87528
  21887465.058     -237564.481 3        -0.06832
  18959607.472   -26649081.294 7 -19762386.27827
  18210762.792   -25784458.753 7 -19915233.06128
  21475525.901   -16104205.381 4 -12347872.94324
  18262983.167   -27536374.889 7 -21266438.12029
  18910674.050   -17295344.553 7 -13318359.67028
 94  1 30  5 42 29.9910000  0  8  9 24 20 13 12  7  4  5
  18558578.776   -25480269.864 6 -19759706.89628
  17862510.644   -24624732.275 7 -18885480.94228
  21864857.261     -356383.617 3    -92586.33722
  18967119.839   -26609599.653 6 -19731621.36526
  18205723.206   -25810937.249 7 -19935865.65928
  21485827.581   -16050038.652 4 -12305665.11623
  18266670.761   -27516988.368 7 -21251331.74129
  18893592.128   -17385112.600 7 -13388308.80528
 94  1 30  5 42 59.9910000  0  8  9 24 20 13 12  7  4  5
  18561551.440   -25464653.333 6 -19747538.17229
  17852660.815   -24676499.307 6 -18925818.89128
  21842245.948     -475220.711 3   -185186.66122
  18974662.519   -26569956.615 6 -19700730.68726
  18200797.081   -25836820.178 7 -19956034.16828
  21496144.495   -15995880.289 5 -12263463.81222
  18270452.948   -27497115.185 7 -21235846.14229
  18876555.573   -17474643.369 7 -13458073.03728
 94  1 30  5 43 29.9910000  0  8  9 24 20 13 12  7  4  5
  18564623.566   -25448493.637 6 -19734946.22529
  17842911.034   -24727733.521 7 -18965741.64728
  21819618.737     -594075.395 3   -277800.64823
  18982235.956   -26530155.073 7 -19669716.50326
  18195984.073   -25862107.748 7 -19975738.77528
  21506442.378   -15941735.315 4 -12221272.92723
  18274327.448   -27476767.093 7 -21219990.48929
  18859560.042   -17563953.061 7 -13527665.00528
 94  1 30  5 43 59.9910000  0  8  9 24 20 13 12  7  4  5
  18567800.308   -25431792.261 6 -19721932.18228
  17833260.964   -24778447.135 7 -19005258.73228
  21797008.362     -712952.315 3   -370432.00623
  18989841.401   -26490203.177 7 -19638585.15526
  18191286.269   -25886805.414 7 -19994983.70728
  21516741.909   -15887582.961 4 -12179076.29022
  18278288.034   -27455944.371 7 -21203764.99229
  18842607.722   -17653042.159 7 -13597085.07529
 94  1 30  5 44 29.9910000  0  8  9 24 20 13 12  7  4  5
  18571085.292   -25414551.605 6 -19708497.92428
  17823713.042   -24828622.267 7 -19044356.22628
  21774377.933     -831844.037 3   -463074.87622
  18997473.581   -26450096.810 7 -19607333.44326
  18186698.558   -25910906.143 7 -20013763.50528
  21527054.245   -15833406.120 4 -12136860.59023
  18282343.315   -27434627.740 7 -21187154.63029
  18825693.480   -17741923.483 7 -13666343.24729
 94  1 30  5 44 59.9910000  0  8  9 24 20 13 12  7  4  5
  18574465.589   -25396778.352 6 -19694648.63629
  17814266.183   -24878266.415 7 -19083039.96428
  21751751.089     -950755.290 2   -555732.94021
  19005133.636   -26409844.208 7 -19575967.78026
  18182225.940   -25934415.547 7 -20032082.52628
  21537371.706   -15779217.868 4 -12094635.98522
  18286497.417   -27412799.590 7 -21170145.67829
  18808813.355   -17830626.860 7 -13735462.75929
 94  1 30  5 45 29.9910000  0  8  9 24 20 13 12  7  4  5
  18577949.323   -25378478.958 6 -19680389.36628
  17804918.386   -24927381.936 7 -19121311.79828
  21729119.448    -1069680.779 3   -648402.14922
  19012818.659   -26369443.616 6 -19544486.80226
  18177864.628   -25957329.209 7 -20049937.33028
  21547672.261   -15725027.114 4 -12052409.42222
  18290751.917   -27390448.464 7 -21152729.21229
  18791971.667   -17919134.950 7 -13804430.10529
 94  1 30  5 45 59.9910000  0  8  9 24 20 13 12  7  4  5
  18581529.722   -25359662.498 6 -19665727.20528
  17795673.847   -24975963.066 7 -19159167.21128
  21706489.175    -1188614.669 3   -741077.90522
  19020538.003   -26328892.333 6 -19512888.40526
  18173619.300   -25979641.820 7 -20067323.78728
  21557991.737   -15670839.385 4 -12010185.23824
  18295103.769   -27367578.426 7 -21134908.40929
  18775171.636   -18007421.853 7 -13873225.08929
 94  1 30  5 46 29.9910000  0  8  9 24 20 13 12  7  4  5
  18585208.050   -25340324.532 6 -19650658.70128
  17786532.534   -25024008.102 7 -19196604.89128
  21683857.894    -1307558.261 3   -833761.21621
  19028278.753   -26288195.222 6 -19481176.37126
  18169487.683   -26001355.967 7 -20084243.91128
  21568304.620   -15616682.910 4 -11967985.39524
  18299552.597   -27344209.822 7 -21116699.10329
  18758412.339   -18095486.560 7 -13941846.93229
 94  1 30  5 46 59.9910000  0  8  9 24 20 13 12  7  4  5
  18588990.870   -25320467.568 6 -19635185.79228
  17777487.394   -25071529.591 7 -19233634.61928
  21661218.980    -1426511.850 3   -926452.30922
  19036050.847   -26247356.157 6 -19449353.72426
  18165467.948   -26022472.782 7 -20100698.58228
  21578585.995   -15562566.021 4 -11925816.39625
  18304090.628   -27320362.802 7 -21098117.01229
  18741700.003   -18183309.384 7 -14010280.31129
 94  1 30  5 47 29.9910000  0  8  9 24 20 13 12  7  4  5
  18592862.440   -25300100.899 6 -19619315.69028
  17768540.370   -25118545.512 7 -19270270.39428
  21638579.128    -1545478.233 3  -1019153.35821
  19043849.128   -26206381.410 6 -19417425.35026
  18161565.105   -26042995.918 7 -20116690.64328
  21588888.636   -15508483.905 3 -11883674.49423
  18308714.909   -27296064.137 7 -21079182.98829
  18725034.456   -18270891.874 7 -14078526.41629
 94  1 30  5 47 59.9910000  0  8  9 24 20 13 12  7  4  5
  18596840.050   -25279205.257 6 -19603033.37128
  17759693.683   -25165035.981 7 -19306496.72228
  21615941.214    -1664448.893 3  -1111857.76422
  19051674.339   -26165265.362 6 -19385386.87626
  18157772.597   -26062917.417 7 -20132213.89028
  21599180.323   -15454414.042 4 -11841542.12923
  18313421.253   -27271309.442 7 -21059893.61429
  18708408.323   -18358261.951 7 -14146606.99329
 94  1 30  5 48 59.9900000  0  8  9 24 20 13 12  7  4  5
  18605082.865   -25235895.693 6 -19569285.63028
  17742308.725   -25256394.600 7 -19377685.22528
  21570657.053    -1902398.770 3  -1297273.19922
  19067398.670   -26082624.985 7 -19320991.78226
  18150534.404   -26100959.498 7 -20161857.08728
  21619755.654   -15346242.509 3 -11757252.63323
  18323116.303   -27220374.085 7 -21020203.72529
  18675263.607   -18532431.099 7 -14282323.19929
 94  1 30  5 49 29.9900000  0  8  9 24 20 13 12  7  4  5
  18609340.279   -25213507.986 6 -19551840.68028
  17733775.123   -25301235.324 7 -19412626.04128
  21548020.217    -2021384.752 3  -1389989.54722
  19075298.982   -26041108.899 6 -19288641.59026
  18147085.592   -26119085.439 7 -20175981.20228
  21630061.131   -15292115.394 3 -11715075.69623
  18328104.725   -27194170.239 7 -20999785.14229
  18658745.959   -18619241.589 7 -14349967.74029
 94  1 30  5 49 59.9900000  0  8  9 24 20 13 12  7  4  5
  18613694.334   -25190632.902 6 -19534015.96128
  17725358.826   -25345476.815 7 -19447099.92528
  21525378.787    -2140369.856 3  -1482705.16122
  19083227.045   -25999460.409 6 -19256188.22426
  18143749.256   -26136609.034 6 -20189635.96128
  21640363.678   -15237962.917 3 -11672878.96424
  18333184.795   -27167454.248 7 -20978967.48329
  18642264.982   -18705840.542 7 -14417447.45329
 94  1 30  5 50 29.9900000  0  8  9 24 20 13 12  7  4  5
  18618138.061   -25167276.561 6 -19515816.21628
  17717047.920   -25389135.610 7 -19481119.76028
  21502736.717    -2259348.206 3  -1575415.56121
  19091175.873   -25957677.192 6 -19223629.87126
  18140531.170   -26153525.666 6 -20202817.75828
  21650672.514   -15183791.009 3 -11630667.08823
  18338369.498   -27140225.766 7 -20957750.49029
  18625834.678   -18792188.206 7 -14484731.34129
 94  1 30  5 50 59.9900000  0  8  9 24 20 13 12  7  4  5
  18622679.045   -25143427.918 6 -19497232.88528
  17708846.678   -25432241.399 7 -19514708.68028
  21480093.936    -2378329.944 3  -1668128.58722
  19099150.928   -25915772.304 7 -19190976.72026
  18137426.147   -26169846.269 6 -20215535.10828
  21660976.022   -15129624.780 3 -11588459.65524
  18343640.483   -27112512.062 7 -20936155.39529
  18609452.006   -18878282.995 7 -14551818.18529
 94  1 30  5 51 29.9900000  0  8  9 24 20 13 12  7  4  5
  18627314.506   -25119049.649 6 -19478236.84628
  17700746.295   -25474805.380 7 -19547875.40728
  21457456.232    -2497307.930 3  -1760838.70221
  19107149.764   -25873742.040 7 -19158225.86326
  18134433.475   -26185564.826 7 -20227783.34528
  21671285.615   -15075467.534 3 -11546259.22624
  18349008.365   -27084317.332 7 -20914185.47229
  18593119.459   -18964110.998 7 -14618697.15629
 94  1 30  5 51 59.9900000  0  8  9 24 20 13 12  7  4  5
  18632057.600   -25094145.464 6 -19458830.98328
  17692741.678   -25516868.596 7 -19580651.91928
  21434809.842    -2616281.833 3  -1853545.60323
  19115169.272   -25831589.602 7 -19125379.80726
  18131558.076   -26200682.270 7 -20239563.17628
  21681587.318   -15021333.210 3 -11504076.64624
  18354459.717   -27055663.392 7 -20891857.72929
  18576831.287   -19049695.629 7 -14685386.47829
 94  1 30  5 52 29.9900000  0  8  9 24 20 13 12  7  4  5
  18636896.615   -25068702.891 6 -19439005.60128
  17684830.732   -25558444.462 7 -19613048.69228
  21412179.475    -2735244.654 3  -1946243.89423
  19123215.420   -25789311.517 6 -19092435.85026
  18128796.209   -26215193.103 7 -20250870.33428
  21691888.295   -14967215.316 3 -11461906.87723
  18359997.951   -27026563.197 7 -20869182.25129
  18560590.889   -19135049.663 7 -14751896.12729
 94  1 30  5 52 59.9900000  0  8  9 24 20 13 12  7  4  5
  18641839.053   -25042722.869 6 -19418761.42228
  17677015.725   -25599521.155 7 -19645056.49628
  21389538.248    -2854200.067 3  -2038936.42423
  19131281.756   -25746915.010 6 -19059399.61826
  18126149.404   -26229102.544 7 -20261708.86928
  21702182.381   -14913109.797 3 -11419746.76723
  18365620.936   -26997024.855 7 -20846165.36129
  18544387.990   -19220186.405 7 -14818236.45229
 94  1 30  5 53 29.9900000  0  8  9 24 20 13 12  7  4  5
  18646883.592   -25016228.401 6 -19398116.39228
  17669293.615   -25640088.160 7 -19676667.14028
  21366899.107    -2973147.414 3  -2131622.62723
  19139371.873   -25704402.864 6 -19026273.26926
  18123617.092   -26242410.930 7 -20272079.04728
  21712481.022   -14859001.053 4 -11377584.11622
  18371321.772   -26967053.471 7 -20822811.03629
  18528233.045   -19305089.254 7 -14884394.51029
 94  1 30  5 53 59.9900000  0  8  9 24 20 13 12  7  4  5
  18652023.225   -24989235.053 6 -19377082.64528
  17661674.748   -25680129.069 7 -19707867.83228
  21344270.623    -3092080.243 4  -2224297.53023
  19147483.920   -25661771.802 6 -18993054.26726
  18121199.607   -26255113.316 6 -20281977.00828
  21722781.147   -14804874.683 4 -11335407.72924
  18377108.404   -26936644.714 7 -20799115.90529
  18512123.279   -19389737.794 7 -14950354.40829
 94  1 30  5 54 29.9900000  0  8  9 24 20 13 12  7  4  5
  18657250.350   -24961749.653 6 -19355665.46328
  17654161.022   -25719619.683 7 -19738639.72928
  21321640.826    -3211000.865 4  -2316962.94322
  19155619.154   -25619027.552 6 -18959747.06826
  18118896.006   -26267213.340 6 -20291405.61228
  21733082.279   -14750719.217 3 -11293208.68723
  18382981.514   -26905788.224 7 -20775071.88729
  18496067.772   -19474114.578 7 -15016102.53829
 94  1 30  5 54 59.9900000  0  8  9 24 20 13 12  7  4  5
  18662571.561   -24933772.514 6 -19333865.12528
  17646753.022   -25758549.325 7 -19768974.50628
  21299017.389    -3329904.895 4  -2409615.40724
  19163775.475   -25576169.336 6 -18926351.05526
  18116709.108   -26278708.231 6 -20300362.67728
  21743393.725   -14696525.799 3 -11250980.06822
  18388939.623   -26874473.507 7 -20750670.81029
  18480067.170   -19558201.620 7 -15081624.90029
 94  1 30  5 55 29.9900000  0  8  9 24 20 13 12  7  4  5
  18667991.170   -24905312.956 6 -19311688.87228
  17639447.404   -25796938.796 7 -19798888.37228
  21276392.654    -3448793.746 4  -2502256.07222
  19171950.998   -25533202.108 6 -18892870.09926
  18114635.350   -26289600.918 6 -20308850.49628
  21753712.162   -14642319.808 3 -11208741.64023
  18394981.529   -26842713.489 7 -20725922.74529
  18464117.928   -19642013.617 7 -15146932.94729
 94  1 30  5 55 59.9900000  0  8  9 24 20 13 12  7  4  5
  18673498.498   -24876367.941 6 -19289134.33928
  17632242.779   -25834795.766 7 -19828387.29728
  21253774.225    -3567664.783 4  -2594882.82922
  19180148.061   -25490126.528 6 -18859304.71826
  18112678.647   -26299890.190 6 -20316868.12628
  21764026.147   -14588125.894 3 -11166512.62824
  18401111.818   -26810505.250 7 -20700825.41229
  18448215.467   -19725587.465 7 -15212055.41429
 94  1 30  5 56 29.9900000  0  8  9 24 20 13 12  7  4  5
  18679099.475   -24846938.243 6 -19266202.09828
  17625140.873   -25872117.755 7 -19857469.35728
  21231156.139    -3686513.119 5  -2687491.89424
  19188364.920   -25446941.101 6 -18825653.74526
  18110837.029   -26309572.810 6 -20324413.03228
  21774337.272   -14533954.848 3 -11124301.44123
  18407325.272   -26777845.713 7 -20675376.42729
  18432355.311   -19808927.830 7 -15276995.96129
 94  1 30  5 56 59.9900000  0  8  9 24 20 13 12  7  4  5
  18684789.795   -24817037.773 6 -19242903.05328
  17618138.248   -25908917.186 7 -19886144.23628
  21208545.217    -3805338.158 5  -2780082.81623
  19196601.818   -25403648.515 6 -18791919.27526
  18109109.600   -26318649.480 7 -20331485.77828
  21784631.584   -14479824.098 3 -11082121.63623
  18413625.357   -26744747.722 7 -20649585.78429
  18416540.108   -19892040.399 7 -15341759.01229
